ECMWFFLT2_925_thetae_000.txt.gz
Theta_e
338 339 341 340 339 340 339 341 341 340 339 335 330 328 327 328 329 329 330 331 331 331 334 336 333 333 336 337 336 336 334 333 330 325 324 322 322 324 326 327 325 324 324 323 323 323 322 323 327 329 329 329 329 329 327 327 327 327 326 325 324 323
331 335 337 339 338 336 338 339 339 340 340 336 330 328 326 329 330 330 332 332 331 332 333 335 337 336 335 336 335 335 336 335 331 327 326 324 323 324 324 325 324 324 324 324 324 323 322 325 328 329 329 329 328 329 327 327 328 328 326 325 325 324
323 327 331 335 337 337 337 338 338 338 338 336 332 327 327 329 330 330 332 334 333 333 335 335 337 337 335 335 333 333 334 332 329 328 328 327 327 326 326 326 325 325 324 325 325 323 322 326 329 329 329 329 329 328 327 328 328 327 326 326 325 326
318 321 326 330 333 337 338 337 339 339 337 337 336 335 332 329 330 331 331 334 334 333 335 335 335 336 336 335 334 334 333 330 329 329 327 327 327 327 328 328 328 327 326 326 325 323 322 326 329 329 330 329 328 327 327 329 329 327 326 326 327 327
316 317 320 324 328 333 338 338 338 339 339 338 339 340 339 333 331 332 331 333 334 333 334 333 336 338 337 336 336 336 334 332 330 329 328 326 326 326 325 326 327 328 327 326 325 324 323 327 329 330 330 329 329 328 328 330 329 327 326 326 327 327
315 315 316 319 323 326 332 337 338 337 338 339 339 339 340 337 332 332 331 331 332 335 335 334 337 338 337 336 335 334 334 333 332 330 329 328 327 326 325 325 325 326 327 326 325 323 323 327 330 330 330 329 329 328 329 330 328 327 327 326 326 326
314 314 315 315 319 322 325 331 336 336 336 338 338 337 336 335 334 332 331 330 330 333 334 335 337 337 335 335 336 335 335 334 333 332 330 329 327 326 325 325 325 325 326 326 325 323 323 328 330 330 330 330 329 329 330 329 328 327 327 326 325 325
312 313 314 313 315 320 324 327 331 334 334 335 337 337 335 335 337 336 333 331 330 331 331 334 337 336 333 335 336 336 335 334 333 333 331 330 329 327 326 325 324 324 325 325 325 323 321 326 329 330 330 330 329 330 330 329 327 327 326 326 324 323
312 312 313 313 313 317 321 323 326 329 332 333 335 336 335 336 340 341 338 333 331 331 332 333 336 336 335 335 335 334 333 333 333 333 332 331 329 328 326 325 324 323 323 323 323 323 321 323 328 330 330 330 330 330 330 328 327 326 326 325 323 321
311 312 312 312 313 314 316 319 321 323 327 329 332 334 334 335 337 340 340 338 334 332 332 334 336 336 336 336 334 332 332 332 332 333 332 332 330 328 327 325 324 323 321 320 321 322 320 321 326 328 330 330 331 330 329 328 327 326 326 325 323 321
310 310 311 311 312 312 313 316 318 319 321 323 327 331 333 333 335 337 338 339 338 335 334 334 335 337 336 337 335 333 332 331 331 331 332 332 330 328 327 326 324 321 320 319 319 321 320 320 324 327 329 330 330 329 328 328 327 326 325 324 323 321
310 309 309 310 311 312 312 313 315 316 318 319 321 325 329 328 329 333 336 337 337 338 337 335 335 336 336 337 336 334 334 332 330 330 330 331 332 329 327 327 323 319 320 320 317 318 320 320 323 326 328 329 329 329 328 328 327 326 325 324 323 322
310 309 309 309 310 311 312 312 313 314 315 316 318 320 323 323 322 328 333 334 335 336 337 336 336 336 336 338 337 336 335 333 331 329 329 331 333 331 328 327 323 319 321 319 315 317 319 318 322 325 326 327 328 329 328 327 326 326 325 324 324 323
311 310 310 309 309 311 312 313 312 313 313 314 315 317 320 321 321 324 328 330 332 334 335 335 336 337 337 337 338 337 336 334 333 331 330 331 333 331 328 326 321 321 322 317 313 317 317 318 322 324 325 326 327 328 328 327 326 325 325 324 324 324
312 311 310 309 309 309 311 312 313 313 313 313 313 314 316 319 320 321 323 324 326 330 332 332 334 336 338 337 338 337 336 335 334 333 331 331 333 331 329 325 321 323 322 316 314 316 317 319 323 324 325 326 327 327 327 327 326 326 325 324 324 323
312 311 310 309 308 308 308 310 312 312 313 313 313 313 313 315 317 319 320 320 322 324 326 329 331 333 335 338 338 337 337 336 334 334 332 331 332 330 328 324 321 325 322 316 316 317 319 322 324 324 324 325 325 326 327 327 326 326 325 325 325 324
312 311 310 309 308 307 307 308 310 311 312 313 313 313 313 313 314 315 316 317 318 319 321 324 327 328 331 334 337 337 336 337 336 334 333 332 331 329 327 324 323 325 322 318 318 319 322 323 324 325 324 324 325 325 326 326 326 326 325 325 325 324
312 311 309 309 309 308 307 307 308 310 311 312 312 313 313 313 313 313 314 314 316 316 318 320 322 323 325 327 332 336 336 336 336 335 333 332 331 328 326 324 324 326 324 320 319 321 323 324 324 324 324 324 324 324 324 324 326 326 325 325 325 324
312 311 309 309 309 309 308 308 309 310 311 312 312 312 313 313 313 313 314 314 314 315 316 318 318 318 319 322 326 332 336 336 336 336 334 332 331 328 326 324 323 327 326 323 321 321 323 324 323 323 324 324 324 323 323 324 326 326 325 323 322 324
311 310 309 307 308 308 309 309 309 309 310 312 311 312 312 313 313 313 313 313 314 314 314 316 316 315 316 319 321 326 333 336 335 335 334 333 331 327 325 324 323 327 328 326 326 324 323 324 324 323 324 324 324 324 324 325 326 326 325 321 318 322
311 310 308 308 308 308 309 309 309 309 309 311 311 312 312 313 313 313 313 313 313 313 313 314 314 315 316 317 318 323 330 334 334 335 334 334 331 327 324 324 323 325 328 329 329 328 326 326 325 324 324 323 323 323 324 326 327 326 324 320 318 322
310 309 308 309 309 308 309 308 309 309 309 310 311 312 312 312 313 313 313 312 312 312 313 313 314 314 317 318 318 322 328 332 332 333 335 334 332 328 324 324 324 324 326 329 329 329 329 329 326 325 323 322 323 323 323 325 326 325 323 322 321 324
309 308 308 308 309 308 308 308 308 308 308 309 310 311 312 312 312 312 312 312 312 312 312 313 313 314 316 319 320 322 324 329 332 332 332 333 332 329 326 324 325 325 325 327 328 329 328 328 327 325 323 323 324 323 323 323 324 324 323 324 323 324
308 307 308 308 308 308 308 308 308 308 308 309 310 310 312 312 312 312 311 312 312 312 312 313 313 314 314 316 321 324 323 324 328 332 331 331 331 330 328 325 326 326 326 326 327 327 326 326 326 325 323 323 324 324 325 324 322 322 322 324 324 325
308 308 308 308 308 309 309 308 308 308 309 309 309 310 312 312 312 311 311 311 312 312 312 312 313 314 315 316 319 323 325 324 323 328 332 331 331 330 329 327 326 327 327 327 327 327 327 326 327 327 324 325 325 325 327 324 321 322 321 323 325 325
307 307 308 308 308 309 309 308 307 308 309 309 309 309 310 311 311 311 311 311 312 312 312 312 312 313 314 317 319 322 326 326 323 324 328 330 331 331 331 329 328 327 327 327 327 327 328 328 328 328 326 325 326 326 325 323 324 325 323 323 325 325
305 307 307 308 309 309 308 308 307 307 307 308 308 309 310 310 311 311 311 310 311 311 311 312 312 313 313 315 318 321 325 328 327 324 324 327 330 331 331 330 329 328 328 328 328 327 328 328 327 326 326 325 324 324 325 323 325 327 327 325 324 324
305 306 307 308 309 308 307 307 307 307 307 308 308 309 309 309 310 310 311 310 310 311 311 312 312 312 313 313 315 318 321 326 329 329 326 324 326 330 331 331 330 329 328 328 328 328 328 328 326 325 325 325 324 325 326 324 323 325 327 327 325 324
304 305 306 307 309 308 307 306 306 306 307 308 308 308 308 308 309 310 310 310 310 310 311 312 313 312 312 313 313 314 316 319 324 329 331 328 325 329 331 331 330 330 329 329 329 329 328 328 327 326 325 324 324 325 326 326 324 324 324 326 326 324
303 304 305 306 308 308 307 306 305 305 306 307 307 307 307 307 308 309 309 310 309 310 311 311 312 313 312 312 312 313 314 315 318 323 330 333 330 330 331 331 330 329 329 329 329 329 329 328 328 327 326 325 324 324 326 326 325 324 324 325 326 325
302 303 303 304 306 307 306 305 305 305 305 305 306 306 306 306 307 308 308 309 309 309 310 311 311 312 312 312 312 312 312 313 316 320 324 329 332 333 332 332 331 330 329 329 329 329 329 329 328 328 326 325 324 324 326 326 325 325 325 325 326 326
301 302 302 304 305 306 306 305 305 305 305 305 305 305 305 305 306 307 308 308 309 309 309 309 310 311 311 312 312 312 312 312 314 318 321 324 329 332 333 333 331 330 329 329 329 329 330 329 328 328 327 326 325 325 325 326 326 325 325 326 326 326
301 301 302 303 305 306 306 306 305 305 304 304 304 304 304 305 305 306 307 308 308 308 309 309 309 310 310 311 312 312 313 312 313 316 319 322 327 330 331 332 331 330 330 329 328 329 328 329 329 328 327 326 325 325 325 325 326 326 326 326 326 326
301 301 301 302 304 305 305 305 305 304 304 303 303 303 304 304 305 305 306 306 307 307 308 308 309 309 309 310 311 312 312 313 313 313 315 318 321 327 330 331 331 331 330 329 328 328 328 328 329 329 328 327 326 325 325 325 326 327 327 326 326 326
301 301 301 302 304 305 305 305 304 304 304 303 303 303 303 304 304 305 305 305 306 307 307 308 308 308 309 309 310 311 312 312 313 313 314 314 316 320 325 330 331 330 330 330 328 328 328 328 328 328 328 328 328 327 326 326 326 327 328 327 327 326
301 301 300 301 303 304 304 304 304 304 303 303 303 303 303 303 303 303 303 304 304 305 305 306 307 307 308 309 310 311 311 312 313 313 314 314 315 316 319 324 329 330 329 329 329 328 328 328 327 328 328 328 328 328 327 327 327 328 329 328 328 327
301 301 300 301 302 303 304 304 303 303 303 303 302 302 302 302 302 302 302 303 303 303 304 305 306 307 308 309 310 311 312 312 313 313 313 314 315 316 317 321 326 329 329 329 329 329 328 328 328 328 328 328 329 328 328 328 328 328 329 329 329 328

ECMWFFLT2_925_thetae_003.txt.gz
Theta_e
333 336 338 339 339 339 340 339 339 340 341 340 334 328 329 331 332 330 330 330 329 330 330 331 334 335 335 336 335 333 333 330 328 327 325 322 320 322 325 328 328 328 329 330 329 325 323 326 327 326 327 327 326 328 327 327 328 328 329 328 328 328
327 331 335 338 338 338 340 340 340 341 340 338 334 330 328 330 332 330 329 329 330 330 330 331 335 336 336 336 335 333 332 331 329 325 324 323 321 324 325 327 327 328 329 327 325 323 323 326 328 328 327 327 327 328 327 327 328 329 329 329 329 327
322 327 332 336 338 337 339 340 341 342 339 336 335 332 328 329 332 332 329 329 330 330 330 330 333 335 335 336 335 333 330 329 328 323 324 324 323 326 327 326 326 326 325 324 323 322 323 326 329 329 328 328 327 328 327 327 328 329 329 329 328 327
318 323 328 334 337 338 338 339 340 340 338 337 336 334 331 329 332 334 331 329 330 330 331 332 334 334 336 338 336 333 329 327 327 324 324 325 325 326 327 327 325 324 324 324 324 322 322 326 329 329 330 329 328 328 327 328 329 330 329 328 328 327
316 319 323 329 335 339 337 338 339 338 338 338 337 335 331 330 331 334 333 331 331 332 332 334 337 336 336 338 336 333 331 328 327 327 325 326 326 326 326 326 325 325 325 326 326 324 323 326 329 329 330 330 329 328 327 328 329 330 329 328 329 327
314 316 319 324 332 337 337 337 337 337 338 338 338 336 333 332 332 333 334 333 331 332 333 335 337 337 336 337 336 334 332 329 330 330 328 327 327 326 326 327 326 327 327 327 327 326 323 324 328 329 329 329 329 328 327 329 329 329 329 329 328 326
313 314 316 320 326 333 336 336 336 336 337 337 338 337 335 335 334 333 334 334 333 332 334 336 337 337 337 335 334 334 333 331 332 332 330 328 327 327 328 328 328 328 327 327 327 326 323 324 328 329 329 329 329 329 327 328 329 329 329 329 328 327
312 313 315 318 321 325 329 331 334 335 335 336 337 337 336 337 336 334 334 335 335 334 335 337 337 337 337 334 333 333 333 332 332 332 330 327 326 327 327 327 327 327 327 328 328 327 323 324 328 329 329 329 329 329 328 328 329 329 329 329 329 327
312 312 313 314 317 320 322 326 330 332 334 335 336 336 336 336 336 335 335 335 335 334 334 336 336 336 336 335 335 333 332 332 331 333 332 327 327 326 326 326 325 325 326 327 328 328 324 323 327 329 330 330 330 329 328 329 329 328 328 328 329 328
310 311 312 312 314 316 318 321 323 326 329 331 334 335 335 336 336 336 336 336 335 335 335 335 335 336 336 336 335 333 332 333 332 334 333 329 328 328 327 326 326 325 325 325 327 327 324 323 325 328 330 331 331 330 328 329 329 328 327 328 328 327
309 310 310 311 312 312 314 316 317 319 321 324 329 332 334 335 335 335 336 337 336 335 335 335 335 334 336 338 335 332 332 333 334 335 334 331 329 329 328 326 326 325 324 324 324 323 323 323 322 326 329 331 331 330 329 329 329 328 327 328 327 326
310 309 309 310 311 312 312 312 313 314 316 318 321 325 328 331 332 333 335 336 337 336 334 334 335 333 335 338 336 333 333 333 334 334 333 331 330 330 328 327 326 325 325 325 324 320 320 322 322 324 328 330 330 330 330 330 330 328 327 327 325 325
311 310 309 308 309 310 311 312 312 312 313 313 315 317 319 322 326 330 333 335 337 336 336 335 335 335 334 335 336 335 334 334 334 334 333 331 330 329 328 327 326 326 327 327 326 321 318 321 322 323 327 329 330 330 330 330 329 328 327 326 326 325
311 311 309 309 309 309 309 310 311 312 312 312 312 313 314 316 319 324 329 332 335 335 335 336 336 336 335 334 335 335 334 334 334 334 334 332 329 328 327 326 327 328 328 328 327 322 319 321 321 322 326 328 330 330 330 330 328 328 327 326 326 325
312 311 310 309 309 309 309 308 309 310 311 312 312 312 313 313 315 320 324 326 330 332 333 335 335 336 336 336 336 336 335 334 333 333 334 332 329 328 327 328 329 329 328 327 327 323 320 322 321 322 325 328 330 330 329 329 328 327 326 325 325 324
312 312 311 309 308 308 308 308 308 308 310 311 312 312 313 313 313 315 318 321 324 328 331 333 333 333 334 335 336 337 336 335 335 333 334 332 330 328 329 330 330 329 328 327 326 323 321 321 321 322 325 327 328 329 329 329 328 327 326 325 325 325
313 312 311 309 308 307 307 308 308 308 309 310 311 312 312 313 313 313 314 316 319 323 326 328 330 331 331 333 334 335 335 336 336 335 335 333 330 328 330 331 331 330 328 326 325 323 321 321 322 324 325 326 326 327 328 328 327 327 327 325 325 325
313 312 310 309 308 307 307 308 308 309 309 309 310 311 311 312 313 313 313 313 315 317 320 323 326 327 329 330 331 333 333 334 336 336 335 334 332 329 331 332 331 330 327 325 325 322 322 321 323 325 325 325 326 326 327 327 326 326 326 326 325 325
313 311 309 308 307 307 307 307 307 308 309 309 310 310 310 311 312 313 313 313 313 314 315 318 320 321 323 325 327 329 330 331 333 336 336 335 333 331 331 331 331 330 326 325 325 323 323 323 324 326 325 326 326 325 325 325 325 325 324 325 325 325
312 310 309 307 306 306 306 307 307 307 308 309 310 310 310 310 311 312 313 313 313 313 313 314 315 316 317 319 323 325 327 328 328 332 336 335 334 333 331 330 331 330 325 325 326 324 324 324 325 326 325 326 326 325 325 325 325 324 324 325 325 325
311 309 308 306 305 306 307 308 308 308 309 309 310 310 310 311 311 312 312 313 312 312 313 313 314 314 314 316 318 320 323 326 326 329 335 335 334 334 332 329 331 330 325 326 328 324 324 325 326 326 326 326 325 325 325 325 325 325 325 326 326 325
310 309 307 306 305 305 308 309 309 309 310 310 310 310 310 311 312 312 311 312 312 312 312 312 313 313 314 314 316 318 319 320 323 327 333 335 333 333 332 330 331 329 325 327 328 326 325 325 326 326 326 326 325 325 325 325 326 326 327 327 327 325
310 308 306 305 304 304 306 308 309 310 310 310 310 311 311 312 312 311 311 311 312 312 312 312 313 313 314 314 316 320 320 318 320 324 330 333 333 333 332 331 331 329 325 327 328 328 327 325 324 324 324 324 323 324 325 325 326 326 327 327 327 325
309 307 305 304 304 304 304 306 308 309 310 310 310 310 311 312 312 312 313 313 312 312 312 312 313 313 314 314 314 319 322 321 322 325 330 332 333 333 332 331 330 328 326 327 328 328 328 325 323 324 324 323 323 324 324 326 327 327 327 327 327 326
309 306 304 304 303 303 303 304 306 308 310 310 311 311 311 313 313 313 313 313 313 312 311 311 312 313 314 315 314 316 321 324 324 325 329 332 332 332 332 331 330 328 326 326 328 329 328 327 326 326 324 324 325 325 324 326 327 327 327 327 326 326
308 305 304 303 303 303 303 303 306 309 310 311 311 311 311 312 312 312 312 312 313 313 312 310 311 312 313 314 314 316 320 324 325 325 326 328 331 331 332 331 329 327 326 325 328 330 330 328 327 327 327 327 327 327 326 326 325 326 327 326 326 325
307 304 304 304 303 303 303 303 306 308 309 310 310 311 311 310 311 311 311 311 312 312 312 311 310 311 312 313 314 315 318 321 324 326 325 325 328 330 332 331 330 328 326 325 326 329 330 330 329 328 328 328 328 327 327 326 324 324 325 325 325 324
306 304 304 304 303 303 303 303 305 307 308 310 310 310 310 310 310 310 310 311 311 312 312 312 312 311 311 313 313 313 315 318 321 325 326 325 325 328 331 331 329 327 326 326 325 327 329 330 330 329 328 328 328 327 326 326 325 323 323 323 323 323
306 303 303 303 302 302 302 303 305 307 308 309 309 309 309 309 309 309 310 310 310 311 311 312 312 312 311 311 313 313 314 314 317 320 325 326 326 326 328 330 329 327 327 327 326 326 327 329 330 329 329 328 328 328 327 326 325 324 323 322 322 322
305 303 302 302 302 302 302 304 305 306 307 308 308 308 308 308 309 309 309 309 310 310 311 311 312 312 312 311 311 312 313 314 315 316 319 323 326 326 327 328 329 329 328 328 327 326 326 328 329 329 329 328 328 329 328 327 326 326 325 324 323 323
304 302 302 302 302 302 302 304 305 306 307 307 307 307 307 307 308 308 308 309 309 309 310 310 311 311 312 312 312 312 313 314 314 315 316 318 322 325 327 327 327 328 329 329 328 327 327 327 328 329 329 329 329 329 329 329 328 327 327 326 324 324
303 301 301 301 302 302 302 303 305 306 306 306 306 306 307 307 307 307 307 308 308 309 309 309 310 310 311 312 313 313 313 314 314 315 316 317 318 322 325 327 328 328 328 329 329 328 328 327 327 328 329 329 329 329 329 329 329 328 328 327 326 325
303 301 301 302 302 302 302 303 305 306 306 306 306 306 306 306 306 306 306 307 307 308 308 308 309 309 310 311 312 312 313 314 314 314 315 316 317 319 322 325 328 329 328 329 330 329 329 328 328 328 328 329 329 329 329 329 329 329 328 328 328 327
303 301 301 302 302 301 301 302 305 305 305 305 305 305 305 305 305 305 305 305 306 306 307 307 308 308 309 310 310 311 312 313 314 314 313 314 316 317 319 321 324 326 328 330 330 330 329 329 328 328 328 328 329 328 329 329 329 329 329 328 328 327
302 301 301 302 301 300 300 302 304 305 305 304 304 305 305 305 305 305 304 304 304 305 305 305 306 307 307 308 309 310 310 311 313 313 313 314 314 316 318 319 321 322 326 330 330 330 330 329 329 328 328 328 328 328 328 329 329 329 328 328 328 328
302 302 301 301 301 300 300 301 304 305 304 304 304 304 304 304 304 304 304 304 304 304 304 304 305 305 305 307 308 309 310 311 312 313 313 314 314 316 317 318 320 320 322 326 329 330 330 330 329 329 329 328 328 328 328 328 329 329 328 328 328 328
302 302 302 301 300 300 300 301 303 304 304 303 303 303 303 303 303 303 303 303 303 303 303 303 304 304 305 306 307 308 310 310 311 312 313 314 314 315 316 317 319 320 321 323 326 329 329 330 330 329 329 328 328 328 328 328 329 329 329 328 328 328

ECMWFFLT2_925_thetae_006.txt.gz
Theta_e
338 340 341 342 342 343 341 342 341 337 336 336 334 332 330 328 331 331 331 330 331 334 335 335 335 334 334 333 332 332 329 326 329 327 323 322 321 323 326 328 330 328 324 326 329 327 325 326 325 325 326 325 325 329 330 329 328 327 330 328 328 333
335 338 340 341 342 342 341 342 341 339 337 337 335 333 330 328 331 332 331 330 333 337 337 337 338 335 335 335 333 333 331 328 330 329 324 321 319 322 325 328 329 326 325 329 331 327 326 327 327 326 326 325 327 331 331 330 329 327 330 328 331 330
331 335 338 340 341 342 342 342 341 341 340 340 338 334 333 333 334 335 334 332 336 338 335 338 337 334 336 337 335 335 333 329 331 329 324 322 319 321 326 330 330 327 328 330 329 327 328 330 329 328 327 328 329 331 331 331 330 328 330 329 332 328
328 333 335 338 341 341 342 342 342 342 341 341 339 335 335 336 337 336 335 334 337 336 333 338 336 333 337 337 336 336 334 331 332 330 326 326 323 322 327 330 330 329 329 329 327 326 327 330 332 331 331 331 331 330 331 331 330 330 330 329 331 327
325 329 333 335 338 340 341 341 341 341 341 340 338 335 334 336 338 338 337 335 337 336 334 338 336 335 339 338 337 337 337 334 334 332 327 329 329 326 328 329 329 328 329 328 326 327 327 329 332 333 332 333 332 331 331 331 330 331 331 330 331 328
324 326 330 333 335 338 340 341 341 341 340 340 338 336 335 336 339 340 339 336 336 337 336 338 339 339 339 339 338 337 337 334 334 333 329 331 331 330 330 330 329 328 328 328 328 328 328 330 331 332 333 333 332 331 331 331 331 332 332 332 331 328
322 324 327 329 332 335 337 339 339 340 340 339 338 337 336 335 338 340 340 338 337 338 338 339 340 340 339 339 339 337 336 335 335 333 331 331 332 332 331 331 330 329 329 329 329 329 329 329 331 331 332 332 332 331 331 331 331 331 331 331 330 328
320 322 324 326 329 331 333 335 336 337 338 338 338 337 337 335 336 338 338 339 339 338 339 339 340 340 339 339 340 339 337 336 336 334 333 332 332 332 332 332 332 331 330 329 329 329 328 328 330 331 331 332 332 331 331 331 331 331 331 331 331 329
319 320 321 323 325 327 329 330 332 333 334 335 337 337 338 336 337 338 336 338 340 339 339 339 340 340 339 339 340 339 338 336 335 335 335 333 332 332 332 333 333 332 330 330 329 329 328 328 329 331 331 332 332 332 331 331 331 331 331 330 331 330
317 318 319 320 322 323 325 326 327 328 329 332 334 336 336 337 338 339 338 338 339 339 338 337 339 339 337 338 339 339 339 337 335 336 336 334 332 332 332 333 332 331 330 330 329 329 329 327 328 329 331 331 331 331 331 331 331 330 330 329 329 331
316 316 318 319 320 321 322 322 323 324 325 326 328 331 333 335 336 337 338 338 338 338 337 336 337 338 338 338 338 338 338 337 336 337 335 335 333 332 332 332 332 331 330 330 329 329 329 328 327 327 329 330 329 331 331 331 331 330 329 329 328 330
317 317 317 318 319 320 320 320 320 321 322 319 321 325 328 331 333 334 335 336 338 338 338 337 337 338 339 338 338 338 338 337 337 336 335 335 334 333 332 332 332 332 331 331 331 330 329 328 327 325 327 329 330 330 331 331 330 330 328 328 327 326
318 317 317 317 317 318 318 318 319 320 320 318 319 321 322 325 328 331 333 334 337 337 338 338 337 338 338 338 336 336 337 337 335 335 336 336 335 334 332 332 333 333 333 331 331 330 329 328 327 325 326 328 330 330 331 331 330 330 329 328 327 326
317 316 315 315 315 316 315 316 318 318 318 319 322 322 320 320 321 325 329 332 334 336 336 337 337 338 338 338 336 335 335 336 334 334 336 336 336 336 333 332 332 332 332 331 330 330 329 327 325 325 325 327 329 330 330 330 330 329 329 328 327 326
317 315 314 311 311 312 312 314 316 315 314 316 321 322 321 320 320 322 325 327 331 334 335 336 337 337 336 337 337 338 337 336 334 334 336 336 335 335 334 332 332 332 332 331 330 329 329 326 325 324 324 326 328 330 331 330 330 329 328 328 327 327
319 317 313 309 308 308 308 310 314 314 312 313 318 321 322 320 320 322 323 324 326 330 333 334 336 336 335 335 336 338 338 338 336 335 335 336 335 334 334 334 332 332 331 332 330 329 329 326 325 323 323 327 328 329 330 329 330 329 328 328 327 327
319 317 314 310 309 309 308 308 312 312 311 313 316 318 320 320 320 321 322 323 325 327 329 332 334 335 335 335 336 336 336 336 336 336 336 335 335 334 334 335 334 332 331 332 331 329 329 326 324 323 323 326 328 329 329 329 329 329 328 327 327 326
316 315 313 309 309 311 312 312 314 312 310 314 317 317 317 319 321 321 321 321 322 324 326 327 329 332 334 335 335 335 335 335 335 337 337 335 336 335 334 335 334 332 332 332 331 330 329 325 324 323 323 327 328 328 328 328 329 328 328 327 326 326
316 314 311 309 310 314 315 315 317 316 315 316 317 317 317 318 319 320 321 320 319 321 323 324 324 327 330 332 334 334 334 334 335 336 337 335 335 336 336 335 333 332 332 333 332 329 328 326 323 322 325 328 327 328 328 328 328 328 327 326 326 326
317 313 314 315 314 315 314 314 315 316 317 318 317 318 319 318 318 319 320 320 319 319 321 322 321 322 323 326 329 331 331 331 332 333 335 336 335 335 335 335 334 333 333 334 332 330 328 325 324 323 325 327 327 327 328 328 329 328 327 325 326 326
318 315 317 318 316 314 313 312 314 314 313 315 316 317 319 319 318 318 318 319 320 320 320 321 321 322 322 322 322 324 325 325 327 329 330 333 334 335 336 336 334 333 332 333 332 330 329 326 324 324 327 327 327 327 327 327 328 328 325 325 326 325
319 316 315 315 317 317 313 310 312 314 313 313 315 316 318 318 318 318 318 318 319 320 320 320 320 321 322 323 322 323 323 322 322 324 327 329 331 332 334 335 335 333 333 332 332 330 329 327 325 326 328 328 327 327 327 327 327 327 324 325 326 324
318 317 315 313 315 316 311 307 309 312 312 312 314 316 316 318 317 318 317 317 318 319 319 320 320 321 321 322 323 324 326 325 324 325 327 327 327 330 333 335 334 333 333 331 330 330 329 327 326 326 327 327 326 326 327 326 326 326 325 326 326 325
318 316 314 310 309 311 310 309 311 313 313 312 314 316 317 318 317 317 316 316 316 317 318 319 320 320 320 321 322 323 325 326 326 326 327 327 325 327 331 333 334 333 332 331 329 329 329 328 326 326 326 327 327 326 326 327 327 327 326 326 326 327
318 315 313 306 304 310 315 315 316 317 316 315 315 316 316 316 316 315 315 315 315 316 316 317 318 319 319 320 321 323 323 324 326 325 327 327 326 324 324 327 331 333 332 331 329 329 329 327 326 326 326 326 327 327 326 326 328 328 326 326 326 327
318 316 311 305 302 309 316 316 315 315 314 314 314 314 314 315 315 315 314 315 315 315 315 316 316 317 318 319 320 322 323 324 325 326 327 328 328 327 326 327 330 333 332 330 329 328 329 328 328 327 324 326 327 326 327 327 328 329 328 327 327 327
317 315 309 304 302 308 316 316 314 315 315 314 314 314 314 314 314 314 314 314 314 315 315 315 315 316 317 317 319 320 321 322 323 325 327 328 329 329 330 330 331 332 332 331 329 328 329 329 329 327 324 325 326 326 329 328 328 328 328 328 327 327
317 315 308 303 302 306 313 315 314 315 315 315 314 314 314 313 313 313 314 314 314 314 314 315 315 315 316 316 317 318 319 321 321 323 325 327 328 329 329 330 331 332 331 331 330 328 328 329 330 328 325 325 326 327 329 328 328 328 327 327 327 328
316 315 309 303 303 304 307 311 313 314 314 314 314 313 313 313 313 313 313 313 313 314 314 314 314 314 315 316 316 317 317 319 320 321 322 324 326 328 328 328 330 331 330 331 330 328 328 328 330 330 327 326 327 328 328 328 327 328 327 326 325 327
317 315 309 303 303 304 305 310 313 313 313 314 314 313 313 313 313 312 312 313 313 314 314 314 314 314 314 315 315 316 316 317 318 320 320 322 324 326 328 328 329 330 329 330 330 328 327 326 328 330 329 328 329 329 329 329 328 328 328 327 325 326
317 315 310 305 305 307 309 311 313 311 312 313 313 313 313 313 313 312 312 312 312 313 313 313 313 313 313 314 314 315 316 316 317 318 319 321 322 324 326 327 328 329 329 330 329 329 328 327 327 329 330 329 330 330 330 330 329 328 328 328 327 327
317 315 312 307 307 310 312 312 311 310 310 312 312 312 313 312 312 312 311 312 311 312 312 312 313 313 312 313 313 314 315 316 316 316 318 319 320 322 323 325 327 329 329 329 329 329 328 328 327 328 329 329 330 330 330 329 330 329 329 328 328 327
317 315 312 309 310 311 312 312 311 310 310 311 311 312 312 312 311 311 311 311 311 311 311 311 312 312 312 312 312 313 314 315 315 316 317 318 319 320 321 323 325 327 328 329 330 329 329 328 327 327 328 328 329 330 330 330 330 330 329 329 329 328
318 315 312 310 311 312 312 311 310 309 310 310 310 310 311 311 311 311 311 310 310 310 310 310 310 310 311 311 311 312 312 313 314 315 316 316 317 318 319 321 322 324 326 328 329 329 329 329 327 327 327 327 328 329 329 330 330 330 329 329 329 328
317 314 311 310 311 312 311 311 309 308 309 309 309 309 309 309 310 309 310 309 309 309 309 309 309 309 309 309 309 310 311 312 312 313 314 315 316 317 318 319 320 321 323 326 327 328 329 329 328 327 327 327 328 328 329 329 330 329 329 330 330 328
317 314 311 310 311 310 310 310 308 307 308 308 308 308 308 308 308 308 308 308 308 309 309 308 308 308 308 308 308 309 309 310 311 312 313 315 316 316 317 318 319 320 321 323 325 326 327 327 328 328 329 328 327 327 328 329 329 329 329 330 330 328
317 314 311 310 310 309 309 309 308 308 308 308 307 307 308 308 308 307 307 307 308 308 308 308 308 308 307 307 307 307 308 309 310 311 313 314 315 316 316 317 318 319 320 321 323 324 325 327 328 329 330 330 328 328 328 329 329 329 329 329 329 329

ECMWFFLT2_925_thetae_009.txt.gz
Theta_e
341 344 344 345 343 343 342 340 338 339 337 333 332 331 329 328 330 333 331 331 331 332 334 333 333 334 332 333 332 330 328 324 321 323 326 326 324 328 333 333 329 328 325 324 325 325 325 325 322 321 322 322 320 320 328 333 329 329 329 328 329 332
336 340 343 345 343 343 342 341 341 341 338 335 335 332 332 331 333 334 332 332 333 335 338 335 334 335 334 335 333 330 328 323 322 324 325 324 322 325 332 332 329 327 325 324 326 327 327 327 324 323 323 321 322 327 333 332 328 328 329 328 328 333
329 335 339 343 342 342 342 342 342 341 339 337 336 334 336 335 335 336 335 335 335 336 338 336 335 336 335 335 334 331 329 326 327 328 325 322 321 324 329 331 330 326 325 327 328 328 329 330 327 326 326 325 327 332 333 330 328 328 328 331 330 332
327 330 334 339 341 341 341 341 341 341 339 338 337 336 337 336 335 336 335 335 336 336 337 336 336 336 335 336 336 333 330 329 331 330 326 323 322 322 325 330 329 325 326 329 329 327 329 333 331 329 329 330 330 333 332 330 329 329 330 331 330 330
326 327 330 334 338 340 340 340 341 340 339 339 337 337 337 337 336 336 336 334 335 336 335 336 337 338 337 338 338 335 332 332 333 332 329 328 328 325 324 330 330 327 329 330 329 326 327 332 333 332 332 332 332 332 332 331 330 331 332 330 330 331
325 325 328 330 334 339 339 339 339 339 338 339 337 336 337 337 337 338 338 336 336 336 335 335 337 338 337 338 339 336 335 335 336 334 331 331 332 329 328 332 331 329 331 330 328 328 327 330 332 333 332 332 332 332 332 331 331 331 332 333 333 332
323 324 326 327 331 336 337 338 338 338 338 338 338 336 337 337 338 340 339 337 336 335 335 336 337 336 336 337 338 338 337 338 337 335 332 332 332 331 330 331 330 330 330 329 328 329 328 329 331 332 332 332 331 331 331 331 332 331 331 334 334 332
322 323 324 326 327 330 334 336 337 338 337 336 338 336 335 337 340 340 338 337 337 336 335 337 337 335 336 336 338 339 338 338 336 335 333 332 333 332 331 332 331 330 330 329 328 328 329 329 330 331 331 331 331 331 331 331 332 331 331 333 333 332
321 322 322 323 326 328 329 332 334 336 337 336 337 338 337 338 340 339 337 336 337 337 336 336 336 335 337 338 337 337 337 337 335 334 334 332 333 333 332 333 332 332 331 330 328 328 329 329 329 330 330 330 331 331 330 331 331 332 331 332 334 332
321 321 321 322 324 325 326 327 329 331 333 334 335 336 337 338 339 338 337 337 337 337 337 337 338 337 338 338 338 336 336 335 334 335 335 333 334 334 333 333 333 333 332 330 328 328 329 330 330 329 330 330 330 331 330 331 331 332 331 331 334 333
320 322 321 321 321 322 323 323 324 326 328 329 331 333 333 334 336 337 337 338 338 336 336 337 338 338 339 339 339 338 336 335 334 335 335 335 335 333 333 332 332 332 332 330 328 328 329 329 329 329 329 330 329 330 330 331 331 331 331 330 332 333
320 321 320 320 320 321 321 321 321 323 324 324 326 328 329 331 333 335 336 337 337 337 336 337 337 338 338 337 338 337 336 335 335 334 335 337 336 335 333 333 332 332 331 330 328 329 329 329 329 328 328 329 329 330 330 330 330 331 331 330 331 333
319 319 319 319 319 317 318 319 319 321 322 322 324 323 324 327 329 332 334 335 337 337 338 337 337 338 337 336 336 336 335 336 335 334 335 336 336 336 335 333 332 332 332 331 330 330 330 330 329 328 327 328 329 329 330 330 330 330 331 331 330 331
319 318 318 318 318 316 317 317 317 318 319 320 323 322 322 323 323 326 329 333 335 336 337 337 336 337 337 337 336 336 336 336 336 335 336 336 336 336 335 335 333 332 333 332 331 330 331 330 329 328 327 327 328 329 330 330 329 330 330 330 329 329
319 318 317 318 318 317 318 317 315 316 317 318 320 323 323 322 321 322 324 328 331 333 335 335 336 335 336 336 336 336 337 336 336 335 334 336 336 337 337 335 333 333 333 332 331 330 330 330 328 328 326 326 327 329 331 330 330 329 329 329 329 329
320 319 318 318 318 318 319 318 316 316 317 318 318 320 322 321 320 322 323 324 327 330 331 333 335 336 336 336 336 336 336 336 336 334 334 336 336 337 336 334 333 333 332 331 331 330 329 330 329 328 326 326 326 328 330 330 330 329 328 329 328 329
322 321 320 320 320 319 319 318 318 318 318 318 318 318 319 319 320 322 322 323 326 328 329 331 333 335 335 336 335 335 337 337 337 334 334 336 337 337 336 334 334 333 332 332 331 330 330 329 329 327 327 326 326 327 329 329 329 328 327 327 328 329
323 322 321 321 321 320 320 320 319 320 320 319 319 318 317 319 320 321 322 324 325 325 326 329 330 332 334 335 335 334 336 337 337 335 334 334 336 336 335 334 334 335 335 333 331 330 330 329 328 327 327 326 326 327 328 329 328 328 328 327 327 328
323 322 321 322 322 321 321 319 318 318 318 318 319 319 318 319 320 320 322 323 324 324 325 326 327 329 330 333 335 334 335 335 336 337 336 335 336 336 335 334 333 335 336 333 332 332 331 331 328 327 327 326 326 328 328 329 328 327 328 327 326 326
322 321 321 322 319 317 316 315 314 314 314 316 316 319 320 320 319 321 322 322 323 324 324 325 326 326 328 329 331 333 333 335 336 336 337 336 336 336 335 334 334 335 335 333 333 334 333 331 329 327 327 325 327 329 328 328 328 327 327 328 327 326
322 320 321 320 316 314 313 313 314 313 312 314 314 316 320 321 320 321 321 322 323 324 324 324 325 325 326 327 328 328 331 332 333 333 334 335 336 336 335 336 336 335 335 334 333 334 334 333 331 329 326 326 328 329 329 328 328 328 328 328 327 325
323 320 319 319 317 315 313 314 313 313 313 313 313 313 316 320 319 320 321 321 322 323 323 323 324 324 325 326 327 327 328 329 330 330 330 331 333 335 336 337 336 336 335 335 334 334 333 333 331 330 327 328 329 329 329 328 328 328 327 327 327 325
324 321 318 319 319 316 315 315 315 316 314 313 315 316 318 320 319 320 320 320 320 321 321 321 323 324 324 325 325 326 327 327 328 328 328 328 330 333 335 336 335 336 336 335 334 334 333 333 331 331 329 329 329 329 329 328 329 328 328 327 327 326
324 322 319 317 317 316 316 318 317 318 318 317 317 318 319 320 319 319 318 318 319 319 319 320 321 322 323 323 323 324 325 326 326 327 328 328 329 331 332 333 334 335 336 335 334 334 334 333 331 331 330 328 329 329 328 329 329 328 328 328 327 327
324 322 320 316 317 319 320 321 322 321 320 319 318 316 315 315 316 317 318 318 317 317 318 318 319 320 321 321 322 323 324 324 326 326 327 327 328 329 331 332 333 334 334 334 334 334 333 332 331 331 332 330 329 329 328 328 330 330 329 328 327 327
324 322 320 317 317 320 320 320 319 318 316 316 315 315 314 314 315 316 317 318 317 316 317 317 318 318 319 320 321 322 322 323 324 325 326 327 327 328 329 330 332 332 333 333 333 333 333 331 330 330 331 330 329 329 329 328 329 330 330 329 328 328
324 322 321 318 316 318 319 317 316 316 315 314 315 316 316 316 316 316 316 317 317 317 316 316 317 317 318 319 319 320 321 322 323 324 325 326 327 328 329 330 330 331 332 333 333 334 333 332 330 330 330 329 328 329 329 328 328 328 329 330 329 329
325 322 321 318 315 317 318 317 317 317 316 315 316 317 317 316 315 315 316 316 317 317 317 316 316 316 317 317 318 319 319 320 321 322 323 324 325 326 328 329 330 331 331 332 332 331 331 332 332 331 331 329 329 329 328 327 328 328 329 330 330 330
324 322 321 318 315 316 318 317 317 317 316 316 316 317 316 315 315 315 316 316 316 317 317 317 317 316 316 316 317 318 318 319 320 321 322 322 323 325 326 328 329 331 330 331 331 329 329 331 332 333 332 330 329 329 328 326 327 328 328 329 329 331
324 322 321 319 316 317 316 316 316 317 317 317 316 316 316 316 316 315 315 316 316 316 316 316 316 316 316 316 316 317 317 318 318 319 320 321 322 323 324 326 328 329 330 331 331 332 332 333 332 332 332 331 329 329 329 327 327 328 328 329 329 330
324 323 322 319 317 318 317 316 317 317 317 317 317 316 316 317 317 315 315 315 315 315 314 314 315 316 316 316 316 316 317 317 318 318 318 319 320 322 323 325 326 328 330 331 332 333 333 333 333 332 332 332 330 329 328 328 329 328 328 329 328 329
325 323 322 319 318 318 317 316 317 317 317 317 317 317 317 317 316 316 316 315 314 314 314 314 315 315 315 316 315 315 315 316 317 317 318 318 319 320 322 323 324 325 328 330 331 333 333 333 332 332 331 331 330 329 329 329 329 329 330 330 330 330
325 323 322 320 318 317 317 317 317 316 316 317 317 317 316 316 316 316 315 315 314 313 313 313 314 314 313 314 314 314 315 315 316 316 317 318 319 319 320 322 323 324 325 328 330 332 332 331 331 332 331 330 330 330 330 330 330 330 330 331 332 331
324 323 321 319 318 317 317 317 316 316 315 315 316 316 315 315 316 315 314 314 314 313 313 312 313 313 313 313 313 313 314 315 315 315 316 317 318 318 319 320 321 322 323 325 327 330 331 330 330 331 331 331 330 330 331 331 331 330 330 331 332 331
324 323 322 319 318 317 317 317 316 315 315 314 314 315 314 314 314 314 313 313 313 313 313 312 313 313 313 313 313 313 312 313 314 314 315 315 316 317 318 319 319 320 322 323 324 327 329 330 331 331 330 330 330 330 330 330 330 330 329 330 330 330
324 323 322 319 317 317 316 316 316 314 314 314 313 313 313 312 313 313 313 313 313 313 313 313 313 312 313 312 312 312 312 312 313 313 314 315 315 316 317 318 319 319 321 322 323 324 326 329 331 331 331 330 330 330 329 329 329 330 330 330 330 330
323 323 321 319 317 317 317 316 315 315 314 313 312 312 312 312 313 312 312 312 312 312 312 312 312 312 313 312 312 312 312 311 312 312 313 313 314 315 316 317 318 318 319 320 322 322 324 325 328 330 330 330 330 330 330 329 328 329 329 330 331 330

ECMWFFLT2_925_thetae_012.txt.gz
Theta_e
342 342 342 342 342 342 339 337 336 334 332 332 334 332 331 333 333 334 335 335 335 333 333 333 332 334 334 333 333 331 330 329 329 328 326 328 331 333 332 330 329 328 327 324 324 323 324 322 321 321 318 319 319 322 329 332 329 326 330 332 331 331
340 340 342 342 342 342 341 340 337 335 335 334 334 331 330 331 330 332 334 335 333 332 334 335 333 335 335 334 333 331 330 330 327 324 323 324 326 330 332 330 328 327 325 323 324 325 325 324 323 321 318 317 317 324 332 330 328 328 330 329 328 331
336 338 340 341 342 342 341 341 338 337 337 336 336 334 333 334 334 335 335 334 334 333 335 337 335 336 336 335 335 332 331 330 327 323 322 322 323 327 330 331 328 326 324 324 325 326 327 326 323 321 318 316 319 329 333 329 327 330 330 328 329 330
330 335 337 338 341 342 341 341 339 338 338 337 336 337 337 337 337 336 336 336 336 335 335 337 337 337 338 336 335 334 333 331 326 325 323 321 323 326 329 330 329 326 324 324 326 328 330 329 324 320 316 318 326 332 334 330 327 329 330 330 329 329
326 329 335 336 337 341 341 341 341 340 340 339 337 338 339 338 337 335 336 336 336 335 335 337 337 337 338 336 336 336 334 331 327 327 325 322 324 327 329 329 327 327 324 325 329 329 331 332 329 325 319 322 331 332 333 331 326 329 331 330 329 328
325 325 332 336 334 338 340 340 341 341 341 340 338 339 340 339 337 336 336 336 335 335 336 336 336 336 336 335 337 337 335 333 331 330 328 326 328 326 328 328 324 325 326 327 331 330 330 333 334 331 326 327 331 332 333 331 328 331 331 329 330 329
325 324 328 334 335 336 338 340 340 340 340 340 339 339 339 339 337 337 338 338 338 337 335 335 335 335 335 335 336 337 336 336 335 334 331 331 332 327 328 330 325 326 328 329 331 329 327 332 334 332 331 331 331 332 332 331 330 332 332 331 331 331
323 323 325 330 334 336 336 337 339 339 339 339 339 338 337 337 337 337 338 339 339 338 334 334 335 334 335 336 336 336 336 336 336 335 332 331 333 329 329 331 328 329 330 330 331 328 326 329 332 332 332 332 331 332 331 331 331 332 333 332 332 331
322 322 323 326 330 334 333 332 334 335 337 338 338 338 336 336 336 337 338 339 339 338 335 334 335 335 335 336 335 336 337 336 336 335 332 331 334 331 330 332 331 331 330 331 330 328 328 328 329 330 331 331 331 332 331 330 331 332 332 332 332 331
323 322 323 325 326 328 329 330 330 331 334 335 335 336 336 337 337 337 337 338 338 337 337 336 335 335 334 335 335 335 337 337 336 335 332 331 334 332 331 332 332 332 331 331 329 327 328 328 329 329 329 331 330 331 331 330 331 331 331 332 333 332
322 323 322 323 324 324 324 325 327 330 331 329 331 333 335 336 336 337 337 337 337 336 337 336 336 336 336 336 336 335 336 337 337 336 334 333 334 333 333 333 333 333 332 332 330 328 328 328 329 329 329 329 329 331 330 331 331 331 331 333 333 332
320 321 321 321 321 322 322 321 322 326 326 324 327 328 331 333 333 335 336 336 336 337 337 336 336 337 337 337 336 336 336 336 336 335 333 334 334 334 334 333 333 333 333 333 331 328 328 328 329 329 329 328 329 330 329 330 330 331 330 332 333 332
319 319 320 319 318 319 320 320 320 322 321 322 325 324 326 329 328 329 331 331 332 335 336 336 335 336 337 337 337 337 336 336 335 333 333 333 334 334 334 333 333 333 332 332 331 330 329 329 329 329 329 328 328 329 329 330 330 330 330 331 333 333
318 318 319 318 317 318 318 316 318 319 317 319 323 323 324 324 322 321 326 329 328 330 334 335 335 336 337 338 338 337 336 336 334 333 333 333 333 333 333 333 333 333 333 333 332 331 330 330 330 329 328 328 328 328 328 329 330 331 330 331 332 333
317 318 318 318 318 318 317 315 316 317 315 318 322 323 323 322 321 320 323 327 326 325 328 333 335 336 337 337 338 337 336 336 335 334 334 333 333 334 334 334 333 333 333 333 332 331 330 330 330 329 329 327 326 327 328 329 329 330 330 330 331 332
317 318 318 318 319 319 318 316 317 317 317 318 318 321 322 320 321 322 322 324 325 324 324 329 334 335 335 336 337 337 336 335 336 335 335 334 333 334 334 334 333 333 333 333 332 331 330 330 330 329 329 328 326 325 326 329 330 330 330 330 330 330
318 319 320 320 320 319 319 319 319 320 319 319 318 317 319 318 319 323 322 324 327 326 325 328 331 333 335 335 336 337 336 336 336 335 336 335 333 334 335 334 332 332 332 332 331 331 330 329 329 329 328 328 326 325 325 328 330 329 329 329 329 329
321 321 322 322 321 319 320 320 321 321 319 319 320 317 316 318 321 322 322 325 326 325 326 328 329 332 333 334 335 336 336 336 336 336 337 337 334 334 336 335 333 333 333 333 332 331 330 330 329 329 328 327 327 326 325 326 329 329 329 329 329 329
323 321 320 321 321 322 322 319 317 317 316 318 319 318 319 319 319 320 322 324 324 323 325 326 327 329 330 331 333 334 336 335 335 336 337 337 335 334 335 336 335 334 333 334 334 333 332 331 331 331 330 328 327 327 326 326 328 329 328 328 328 328
324 322 320 322 322 322 321 316 314 314 314 315 315 318 322 319 317 321 323 323 324 323 324 326 325 327 327 328 329 331 332 333 334 335 336 336 336 335 335 335 336 335 334 334 335 334 334 334 333 333 331 329 327 327 327 327 327 328 329 328 327 328
323 322 322 321 318 317 316 314 314 313 314 313 312 316 322 321 319 321 321 321 324 324 325 324 324 325 326 327 327 328 327 329 331 333 334 334 335 336 336 336 335 335 335 335 335 335 334 334 334 333 332 329 326 326 327 328 328 328 328 328 327 327
323 321 322 320 316 315 314 315 315 312 313 314 312 314 319 319 319 320 320 320 322 323 323 323 323 325 325 325 326 327 327 328 329 330 331 331 331 333 334 335 335 334 335 335 336 336 334 333 333 333 333 331 328 327 328 328 329 328 327 327 327 327
323 320 320 319 317 316 313 313 315 313 313 315 317 318 320 320 319 320 320 320 320 321 321 321 322 323 324 324 324 325 326 327 328 328 328 329 329 328 328 331 334 335 336 335 335 336 335 334 333 333 333 333 331 331 331 329 329 328 327 327 327 327
325 321 319 319 319 318 313 311 314 315 315 316 318 319 319 318 317 319 319 319 319 319 319 319 320 321 322 323 323 324 325 325 326 327 328 328 328 328 328 329 331 332 334 335 334 335 335 335 333 333 334 334 333 332 333 332 330 329 328 328 328 327
325 322 319 319 319 315 312 315 318 320 321 320 318 315 314 314 315 317 318 318 318 318 317 318 319 320 320 321 322 322 323 324 325 325 326 327 327 328 328 329 330 330 333 334 333 334 335 335 334 334 334 334 334 334 333 331 330 330 329 328 329 328
326 324 320 318 317 314 314 321 324 323 323 321 317 314 314 315 315 315 316 316 318 318 317 317 318 318 319 320 320 321 322 322 323 324 324 325 326 327 327 328 329 330 332 333 333 334 335 335 335 334 333 333 333 334 334 331 330 332 331 329 329 328
326 324 321 318 317 318 320 322 320 318 317 316 316 315 316 316 315 315 315 316 317 318 318 317 317 318 318 318 319 320 320 321 321 322 323 324 324 326 327 328 329 329 330 331 333 334 334 334 334 334 333 332 331 331 332 332 330 332 332 331 330 328
326 324 323 319 317 319 321 319 316 316 315 315 316 316 317 316 315 315 316 316 317 317 317 317 317 317 317 317 318 318 319 319 320 320 321 322 323 324 325 326 328 329 329 330 332 333 334 334 334 333 333 331 330 330 330 331 330 330 330 331 331 330
327 325 323 321 317 318 320 319 318 317 316 316 316 316 317 316 315 316 316 316 316 316 317 316 316 317 317 317 317 317 318 318 319 319 320 320 321 322 323 323 325 326 328 330 330 332 333 333 333 333 332 330 330 330 330 331 331 330 329 328 330 331
327 325 323 321 318 317 319 319 318 317 317 316 316 316 316 315 316 316 316 316 316 316 316 316 316 317 316 316 316 316 317 317 317 318 318 319 320 320 321 322 323 324 325 327 328 330 331 332 333 333 332 331 331 331 332 331 331 330 329 328 329 330
327 325 323 322 318 316 318 319 317 317 317 317 316 316 316 316 316 316 316 316 316 315 315 314 315 316 316 316 316 316 316 316 316 316 317 318 318 319 319 320 321 322 323 325 326 328 330 332 333 332 332 331 332 333 332 332 331 330 329 328 331 333
328 325 323 322 319 317 317 317 316 317 317 317 317 316 316 317 317 317 316 316 316 315 314 314 315 315 315 316 316 315 315 315 315 315 316 317 317 318 319 319 320 321 322 324 325 326 328 331 332 333 332 331 332 333 332 332 331 330 329 328 331 334
328 325 324 323 320 319 318 316 316 318 317 317 318 316 316 317 317 317 316 316 316 315 314 314 314 314 314 314 314 314 314 314 315 315 315 315 316 317 318 319 319 320 321 322 323 325 326 328 331 332 332 332 332 332 332 332 331 330 329 329 330 332
329 326 325 324 321 320 319 317 317 318 317 317 317 317 317 316 316 316 315 315 315 315 314 313 313 313 313 314 314 314 314 313 313 313 312 313 314 315 317 317 318 319 320 320 321 322 324 325 328 330 331 332 333 333 333 333 332 330 330 330 331 332
328 326 325 324 321 321 320 318 318 318 317 317 316 316 316 315 316 316 315 314 314 314 314 313 313 313 313 313 314 314 313 313 312 312 312 312 312 313 315 316 317 318 319 319 320 320 321 323 325 327 329 331 332 332 333 333 332 332 330 330 331 331
328 326 325 324 322 321 320 319 318 317 316 316 315 315 315 314 314 315 315 314 314 314 313 313 313 313 313 313 313 313 313 313 313 313 313 313 313 313 315 315 317 317 318 318 319 320 320 321 323 324 326 329 330 331 332 332 332 332 331 330 331 331
327 326 325 324 322 320 320 319 318 317 316 315 315 315 315 314 314 314 314 313 313 313 313 313 313 313 313 313 313 313 313 313 313 313 312 312 312 313 313 314 315 316 317 317 318 319 320 320 321 323 324 326 329 330 330 331 331 331 331 330 331 331

ECMWFFLT2_925_thetae_015.txt.gz
Theta_e
341 342 340 339 336 334 333 333 333 331 331 332 335 338 339 339 339 340 339 338 338 337 336 336 336 334 335 334 331 330 331 332 331 331 331 332 333 332 330 329 327 328 327 326 324 322 322 321 320 320 321 323 325 329 331 330 330 331 332 332 331 330
341 342 341 341 339 337 336 335 334 332 331 331 333 335 335 337 337 337 337 335 336 336 335 335 334 333 333 334 332 331 331 331 331 329 329 330 332 332 329 328 327 327 326 325 323 323 322 319 318 318 321 323 325 329 331 330 329 330 332 331 329 329
339 340 340 340 340 340 339 337 336 334 332 331 332 333 331 333 334 333 334 334 334 334 334 334 334 333 334 335 334 332 331 331 330 327 325 326 330 331 329 328 327 326 325 323 323 324 323 321 317 316 320 321 323 326 329 330 330 329 331 329 328 328
336 337 337 338 339 341 341 339 338 336 334 332 333 334 332 333 334 334 335 335 334 334 336 337 336 335 336 336 335 334 333 332 330 326 323 324 327 329 329 329 327 326 325 322 324 325 324 324 319 315 317 319 321 323 326 330 329 328 330 328 328 328
336 337 336 336 338 340 341 341 340 338 336 335 334 334 334 336 337 337 336 336 335 336 337 338 337 336 336 336 336 335 334 333 330 325 323 322 322 326 329 329 326 325 325 323 324 325 327 328 323 317 315 319 324 325 328 331 329 328 329 328 328 328
331 334 335 335 337 339 339 340 340 339 338 337 336 335 337 339 339 337 336 337 337 337 337 336 336 336 337 336 336 336 335 334 330 324 324 321 320 323 325 325 324 324 324 324 324 326 329 331 328 321 316 324 332 330 331 332 329 329 329 328 328 327
325 330 336 336 336 339 339 340 340 339 339 338 337 337 338 339 339 337 336 336 336 336 336 336 336 336 337 337 336 336 335 335 331 327 327 323 319 321 321 321 322 325 325 325 325 327 329 330 331 328 321 327 333 332 332 331 329 329 330 329 328 328
323 327 336 338 336 336 337 339 340 339 340 339 339 338 339 339 338 337 336 336 336 336 336 335 335 335 336 336 335 336 336 335 333 332 331 326 322 320 320 320 322 324 326 326 327 329 330 330 332 332 328 329 331 332 332 331 330 330 330 330 330 329
322 325 334 337 334 333 334 336 338 339 339 339 339 338 338 338 338 337 337 337 337 336 336 334 333 334 335 335 335 336 336 336 335 334 332 330 330 326 322 323 325 326 327 329 329 330 330 330 332 333 331 331 330 331 332 329 329 331 331 331 331 330
322 324 328 330 329 329 330 332 335 336 338 338 338 338 337 337 337 336 336 337 337 337 336 334 333 333 334 335 335 335 336 336 336 335 332 331 333 332 328 327 329 329 329 330 330 330 329 328 330 330 329 331 330 331 331 328 328 331 331 331 331 330
322 323 324 324 324 323 326 330 331 330 331 333 335 335 335 336 336 336 336 337 337 337 336 335 334 335 335 335 335 334 335 336 336 336 332 329 331 333 332 329 330 331 331 331 331 331 329 326 328 328 327 329 330 330 330 329 328 331 331 331 331 330
321 321 322 322 322 321 322 325 326 324 324 326 327 329 332 334 335 335 335 335 336 337 336 335 335 336 335 335 335 334 334 335 336 336 333 329 330 333 333 330 331 332 333 332 332 332 329 327 329 328 328 328 328 329 330 330 329 330 331 331 331 331
320 319 321 321 320 320 320 320 321 321 323 324 324 327 329 330 330 331 329 329 331 334 335 335 335 336 336 336 336 335 335 335 335 336 335 331 330 333 333 331 332 332 332 332 332 332 329 328 329 327 328 328 328 328 329 330 329 329 330 331 331 332
319 318 318 319 318 317 318 318 318 319 322 323 323 325 325 324 323 322 325 327 327 330 334 335 335 335 336 337 336 336 336 335 335 336 336 334 332 332 333 332 332 332 332 332 332 333 330 328 328 327 326 327 328 328 328 329 329 330 330 330 331 332
317 317 316 317 316 314 315 316 316 317 321 322 322 323 322 321 321 320 325 327 326 326 328 331 335 335 336 337 336 337 337 336 336 335 335 334 332 332 332 332 332 333 333 333 333 333 331 329 328 329 327 326 327 327 326 327 328 329 330 330 330 331
316 316 316 317 314 313 314 315 314 316 318 319 320 322 320 320 322 322 326 327 327 327 326 328 332 334 335 336 336 337 337 336 336 335 334 333 332 332 332 331 332 333 333 333 333 332 331 330 329 329 329 327 326 326 326 326 327 328 330 330 331 331
314 315 315 314 314 315 317 316 316 317 317 316 317 318 317 319 321 323 325 328 327 328 328 328 330 332 333 334 335 337 337 337 336 335 334 333 333 332 333 332 333 333 332 332 333 332 331 330 330 329 329 329 326 326 325 326 326 328 330 330 331 331
314 316 317 316 316 318 319 318 317 318 319 316 314 316 318 319 321 322 324 326 325 324 326 327 328 330 333 332 334 335 336 336 336 336 335 334 334 333 333 333 333 333 332 332 332 332 332 332 331 330 329 329 327 326 324 324 325 327 329 330 330 331
315 318 319 319 318 319 320 319 316 317 319 317 314 317 319 319 319 320 322 323 322 322 324 326 327 328 330 331 332 333 334 335 335 335 335 335 335 335 334 333 334 333 332 332 332 333 334 334 333 332 331 330 328 326 325 324 324 326 328 329 329 330
316 317 320 320 320 321 320 318 315 315 316 315 316 319 318 316 318 321 323 323 322 323 324 325 325 325 327 329 329 330 331 332 331 332 333 334 335 335 335 335 334 334 333 333 333 333 333 334 334 333 333 332 330 328 326 325 324 324 326 329 328 328
315 318 321 321 322 322 318 313 313 314 312 312 318 322 318 315 318 320 320 320 321 324 323 322 323 323 325 326 327 328 328 328 328 330 331 331 334 335 335 335 334 333 334 335 334 333 332 334 334 333 333 333 332 329 327 326 325 324 325 327 328 328
314 320 322 320 319 320 315 312 313 314 311 311 317 320 316 314 316 317 316 315 318 322 322 322 323 322 322 323 324 326 327 327 327 329 329 329 331 332 332 334 334 334 334 334 335 334 334 334 334 333 332 332 333 330 327 326 326 326 325 326 327 328
315 320 321 316 314 315 314 313 312 314 314 313 315 317 316 316 318 318 319 318 318 320 320 319 321 321 322 322 323 324 325 325 326 327 329 328 328 328 329 330 331 332 334 334 335 335 335 335 334 333 332 334 335 332 330 328 326 327 327 327 327 327
317 319 320 316 313 313 313 313 311 313 316 314 316 320 319 318 318 317 319 319 319 320 318 317 318 320 321 321 322 322 323 323 324 325 326 328 328 327 328 328 328 329 331 332 334 334 335 335 335 334 333 335 334 332 334 332 327 327 328 328 328 327
320 319 320 318 316 314 310 311 312 314 316 316 319 321 317 315 317 318 318 317 317 318 316 315 317 319 319 319 320 321 322 322 323 324 324 325 326 327 328 328 328 329 330 331 332 332 332 333 334 334 333 333 333 333 335 332 328 329 328 328 329 327
322 319 319 319 319 316 309 310 315 316 316 317 317 316 313 313 314 315 316 316 316 316 315 315 315 316 318 318 318 319 320 320 321 322 322 322 323 324 325 327 327 328 329 329 330 331 332 332 333 333 332 333 333 334 334 332 332 333 331 329 328 328
324 321 319 318 320 317 310 310 318 320 318 318 316 311 311 312 312 311 311 312 315 316 316 317 317 315 316 317 318 318 318 319 319 320 320 321 321 322 323 324 324 326 327 328 329 331 332 331 333 333 333 333 333 332 331 332 333 333 334 333 329 328
326 323 319 319 320 316 311 314 321 322 320 319 316 311 310 310 311 312 312 313 316 316 316 317 317 317 316 315 316 317 317 318 318 319 319 319 320 320 321 322 322 323 325 327 328 330 331 331 332 332 333 333 334 332 329 330 330 330 332 332 330 329
326 324 321 320 319 314 314 319 321 319 316 316 316 313 311 311 312 313 314 314 315 315 315 314 314 315 316 316 316 316 316 317 317 317 318 318 319 319 320 320 320 321 322 323 324 327 329 331 332 332 332 333 333 332 330 329 329 329 330 331 330 329
326 325 323 322 320 315 317 321 318 315 315 316 316 314 313 314 314 313 314 313 313 314 315 315 315 313 313 315 315 314 312 312 313 313 313 314 315 317 318 319 319 319 319 320 321 323 325 327 329 330 332 332 332 331 330 329 329 329 330 331 331 329
326 325 323 323 320 317 318 320 317 315 316 316 316 315 315 315 315 314 315 314 313 314 315 315 315 314 313 314 314 313 312 311 311 310 309 308 309 310 313 316 318 318 318 319 320 320 321 323 325 327 329 331 332 331 330 330 330 330 330 330 331 330
326 325 324 323 321 318 317 320 319 316 316 317 316 316 315 315 315 315 315 315 314 314 315 313 314 314 313 314 315 316 315 314 312 311 311 311 311 312 311 312 315 317 318 319 320 320 321 322 323 325 327 329 331 331 331 331 330 330 330 329 330 329
326 326 324 323 322 319 316 319 319 317 317 317 316 315 315 315 316 315 315 315 314 315 315 314 314 314 314 315 315 315 314 312 310 310 312 313 314 314 313 313 314 315 316 317 318 319 320 321 321 322 325 327 329 330 331 331 331 331 330 330 329 328
326 326 325 323 322 320 317 318 319 317 317 317 316 315 314 315 317 317 315 314 314 315 314 313 313 313 313 313 312 312 312 311 311 310 311 310 310 310 310 311 312 312 314 314 315 317 318 319 320 320 322 324 326 328 329 329 330 331 331 330 329 328
327 326 325 323 322 321 318 317 317 316 316 316 316 316 314 314 317 316 315 315 315 315 314 313 313 313 312 312 312 312 312 312 312 311 311 311 311 311 311 311 311 312 313 315 316 316 317 317 318 319 320 321 323 325 327 327 328 330 331 330 330 329
327 327 325 324 323 322 319 318 316 316 316 317 316 316 314 315 316 316 314 315 314 314 314 313 313 312 312 312 312 311 311 311 310 310 311 312 312 312 312 312 312 312 313 313 314 315 316 317 316 317 319 319 320 322 325 326 327 328 330 330 330 329
327 327 326 324 323 322 320 319 317 316 316 317 317 316 315 314 314 315 315 314 314 313 313 312 311 310 310 310 310 311 311 311 310 310 310 311 311 311 311 311 311 311 311 311 312 313 314 316 316 317 317 319 320 320 321 324 326 326 328 329 329 328

ECMWFFLT2_925_thetae_021.txt.gz
Theta_e
335 336 337 337 338 339 339 338 337 337 338 338 339 339 338 338 337 337 337 337 336 336 337 337 337 338 338 337 337 335 333 333 333 332 332 330 329 327 325 324 323 321 320 327 329 323 323 322 322 322 321 325 330 331 331 331 332 332 330 329 328 327
335 335 335 335 336 337 338 338 337 335 335 336 337 338 337 337 337 337 338 337 336 336 336 336 337 338 337 337 336 335 333 333 333 331 331 330 330 327 326 325 323 323 325 328 326 323 323 322 322 321 321 325 330 331 331 332 332 331 330 329 328 327
337 336 334 334 333 334 336 336 336 334 334 335 336 337 337 337 337 337 337 338 337 337 337 336 336 336 335 335 335 334 333 333 333 332 329 329 330 327 324 325 325 326 328 328 326 323 322 321 321 320 320 325 329 331 331 331 332 331 330 329 328 327
339 339 337 336 334 333 333 334 335 333 333 335 335 335 335 336 336 337 338 338 338 337 337 335 336 335 334 334 334 333 333 333 332 332 329 328 330 328 324 324 326 327 327 328 326 323 321 320 320 320 320 323 327 330 331 331 331 331 330 330 328 326
340 341 340 339 336 335 334 333 333 332 333 333 334 334 332 333 335 335 336 337 336 336 335 335 335 334 333 334 334 334 333 333 332 331 329 325 327 328 325 325 326 326 326 325 324 322 321 320 320 320 320 321 324 328 331 331 331 330 330 330 328 326
340 341 341 340 340 338 337 336 335 333 332 332 333 334 331 329 331 331 332 333 334 334 334 334 334 333 333 334 335 335 334 333 332 330 327 324 324 325 325 326 325 325 324 323 321 321 322 321 321 321 320 320 321 327 330 330 331 330 329 330 327 326
339 340 340 340 341 340 339 339 338 336 334 332 332 333 330 328 328 329 330 333 334 334 334 334 334 334 334 334 335 335 334 333 332 330 326 323 323 322 324 325 323 324 324 322 321 323 324 325 326 325 323 319 319 327 330 329 329 329 329 329 327 327
337 337 338 339 339 340 340 340 340 339 337 335 333 333 332 328 327 330 333 336 336 335 334 334 336 336 336 335 335 335 335 334 333 331 327 323 322 321 324 325 322 322 324 322 322 325 327 328 329 328 324 319 320 327 330 330 329 328 329 328 327 328
332 334 335 336 338 339 339 339 339 340 339 337 336 335 334 331 329 331 335 336 336 336 335 335 336 336 336 335 335 336 336 335 334 333 328 324 323 321 323 325 321 321 321 320 323 326 327 328 328 328 325 322 324 329 330 331 330 328 328 328 328 328
329 332 334 335 336 338 338 338 338 338 339 338 338 337 336 335 334 334 335 335 335 336 336 336 336 336 336 335 334 335 336 336 335 335 331 325 324 323 322 324 322 321 321 322 324 326 327 328 328 328 327 325 327 328 329 330 331 329 328 328 328 329
331 333 332 332 333 334 336 337 337 337 338 338 338 338 337 337 337 337 337 336 335 335 336 335 335 336 335 334 335 335 336 336 336 336 333 328 326 326 325 325 323 323 324 324 325 325 326 327 328 328 328 328 328 328 329 330 331 330 328 328 328 329
333 331 329 330 330 331 333 335 336 337 337 337 337 337 337 337 336 336 336 336 336 335 336 335 335 335 334 334 334 335 335 336 336 335 334 331 329 328 329 328 327 326 325 324 325 326 327 328 329 330 329 329 329 329 330 330 330 330 330 328 328 329
331 327 326 327 328 328 329 330 332 332 332 332 333 335 335 335 336 335 335 335 336 335 336 336 335 335 334 333 332 334 334 334 335 335 336 334 331 331 332 331 331 330 329 327 327 328 330 331 331 331 331 330 330 330 330 330 329 329 330 329 328 329
325 323 323 325 326 325 325 325 326 326 328 329 331 333 334 335 335 334 333 333 333 334 336 335 335 335 334 333 332 333 334 334 335 335 335 335 333 331 332 333 332 332 332 331 329 330 332 332 332 332 332 331 330 329 330 330 329 328 329 329 329 329
321 321 322 323 324 322 322 323 322 323 326 327 327 330 332 332 331 330 329 328 329 332 333 334 335 334 333 333 332 332 333 333 334 334 334 335 334 332 330 331 332 331 332 332 331 331 331 332 332 332 332 330 328 329 329 329 328 327 328 329 329 329
319 319 320 321 321 320 320 321 322 323 323 323 322 323 325 325 325 328 328 326 327 329 330 331 333 333 332 332 332 332 332 332 333 333 334 334 334 333 330 330 331 331 331 331 331 331 332 332 332 332 332 330 328 328 329 328 327 326 328 328 329 329
319 319 318 318 318 317 318 319 321 322 322 321 320 319 320 321 323 328 328 326 327 327 327 329 330 331 332 332 333 333 332 331 332 333 333 334 334 332 331 329 330 331 331 331 331 331 331 331 332 332 331 329 328 327 328 328 327 327 327 328 328 329
318 317 316 315 314 315 316 317 318 318 319 319 319 319 320 322 325 329 328 326 326 326 326 327 329 330 330 331 332 333 331 330 331 332 333 334 333 332 332 331 331 330 331 331 330 330 330 330 332 333 332 330 328 327 327 327 326 326 326 326 327 328
316 315 314 313 312 314 315 315 314 315 317 318 319 321 323 324 327 328 326 325 325 324 325 326 327 328 328 329 329 330 331 329 330 331 333 334 333 333 333 333 332 331 331 331 331 330 330 330 330 331 333 332 330 328 327 327 326 326 326 326 326 327
315 314 313 313 314 315 316 315 313 314 317 317 318 320 322 323 325 324 323 322 322 322 323 323 324 325 326 327 326 327 328 328 329 330 331 333 333 332 332 333 332 331 331 331 331 330 330 330 330 330 332 333 333 332 330 328 328 327 326 326 326 326
315 314 313 314 316 316 316 315 314 315 317 317 317 317 318 319 320 321 321 321 321 321 320 320 321 322 323 325 325 326 326 326 329 329 328 329 330 330 330 331 331 331 331 331 331 330 331 332 331 331 331 332 332 332 332 331 330 329 328 327 326 325
314 315 314 315 316 315 315 314 313 313 315 317 317 314 314 316 317 317 319 321 320 319 318 318 319 320 321 323 324 324 325 325 327 328 328 328 328 327 328 328 328 328 328 329 329 330 331 331 331 330 329 331 333 333 332 331 331 331 329 328 327 325
314 316 316 317 317 316 314 314 312 311 313 315 314 313 314 315 315 315 316 318 318 317 318 319 319 320 321 322 322 323 323 323 324 326 326 326 325 325 326 327 326 326 326 326 327 328 329 329 330 329 328 330 333 334 334 332 330 331 331 330 329 327
315 316 317 318 318 316 315 314 312 311 312 312 311 312 315 316 317 316 316 317 318 317 317 317 318 319 321 321 321 322 322 322 322 322 323 323 322 322 322 324 324 325 326 327 327 329 329 329 329 329 329 331 330 331 335 332 328 329 330 330 328 328
316 316 317 318 319 318 314 312 311 312 312 311 311 313 315 316 317 317 316 317 318 315 314 315 317 318 319 320 320 320 320 321 321 321 321 321 320 320 320 320 321 321 322 324 326 328 329 329 330 330 329 330 330 331 334 330 328 331 329 328 328 327
316 316 317 318 319 319 314 311 312 312 312 312 312 312 312 313 315 315 316 316 315 313 314 314 315 316 317 317 317 318 318 319 319 319 319 319 319 319 319 318 318 319 318 319 321 323 324 324 327 329 330 330 330 331 331 329 330 332 330 329 328 327
316 317 318 319 320 320 315 312 312 312 311 312 311 310 310 311 313 314 315 315 313 314 315 315 314 315 315 315 315 316 316 317 317 317 317 317 317 317 317 316 316 317 317 317 318 318 319 320 323 325 327 328 330 329 329 329 331 331 331 331 330 328
317 318 320 319 319 320 315 312 312 312 311 312 310 308 308 310 311 312 312 312 312 314 316 315 315 315 314 314 314 313 313 312 313 312 313 313 312 312 312 312 313 314 315 316 316 317 317 318 319 321 322 324 327 328 329 329 329 330 331 332 330 328
317 319 320 318 317 318 315 312 311 311 311 312 312 309 309 310 309 308 308 309 310 313 314 313 314 314 314 313 311 310 309 308 308 307 307 307 306 306 306 308 309 311 312 313 313 314 315 316 316 318 319 322 324 326 328 328 328 329 329 330 330 328
317 320 320 316 315 316 314 312 312 310 310 312 313 311 311 311 309 307 307 308 308 310 312 312 311 312 313 312 310 309 308 307 308 307 306 306 305 306 307 308 309 309 309 309 309 310 311 312 314 315 317 318 320 323 325 326 328 329 329 329 329 328
316 319 320 316 313 314 313 312 312 309 310 312 313 312 311 311 309 307 307 307 307 309 311 312 313 312 311 311 311 311 310 309 310 309 308 307 308 309 309 308 307 307 307 308 308 308 308 309 311 313 314 315 317 318 320 322 325 326 327 328 329 329
315 317 319 317 314 314 313 312 311 310 311 314 314 313 311 309 309 308 307 306 307 309 310 312 313 312 312 312 312 313 313 312 312 310 309 308 308 308 307 305 306 308 308 308 308 308 308 308 308 310 312 314 315 315 316 318 319 321 322 325 327 327
314 313 316 318 317 316 315 314 312 310 312 315 315 315 313 311 310 310 309 307 307 309 309 310 311 311 312 313 313 314 315 314 312 310 309 308 307 305 304 304 306 308 309 309 309 309 309 308 308 309 310 311 312 313 314 315 316 317 319 321 323 324
315 315 316 318 318 318 317 316 315 311 311 315 316 316 315 313 312 312 311 310 308 309 309 309 310 311 312 313 314 314 314 312 311 310 309 308 306 305 304 304 306 308 309 309 310 309 309 309 309 309 309 309 310 311 312 313 314 316 317 319 321 322
318 319 320 319 318 318 318 317 317 314 311 314 316 315 314 314 313 313 313 312 311 310 309 309 312 312 313 313 313 313 312 311 310 309 307 306 305 305 305 305 306 307 308 309 309 309 309 309 309 309 309 309 309 309 309 311 312 314 315 316 318 320
320 320 321 321 320 319 318 317 317 316 313 313 315 316 314 313 314 313 314 313 312 312 310 310 312 313 313 313 313 312 311 310 309 307 305 305 305 306 306 306 307 306 306 307 307 308 308 308 309 309 309 309 309 309 309 309 311 313 314 316 316 318
321 321 321 321 321 321 320 319 318 318 315 314 315 316 315 314 314 314 314 314 313 313 312 311 312 313 313 312 312 311 310 308 307 306 305 305 305 306 307 307 307 306 306 306 306 307 307 307 308 308 308 308 308 308 309 309 310 310 312 313 314 315

ECMWFFLT2_925_thetae_024.txt.gz
Theta_e
338 339 339 340 340 341 341 341 342 342 341 340 339 338 338 338 337 337 337 336 336 336 336 336 336 336 337 336 335 334 333 331 332 333 331 327 324 322 322 323 323 325 327 329 327 324 323 322 322 321 322 326 329 329 329 331 332 331 329 327 326 326
338 337 338 338 339 339 339 339 340 340 340 339 339 338 339 339 337 337 338 337 336 336 336 336 336 336 337 336 335 334 333 332 332 333 332 329 326 323 322 321 322 325 326 328 329 324 323 323 321 321 322 325 330 330 329 330 331 331 329 327 326 325
336 337 337 337 337 338 338 338 337 338 337 338 339 339 339 339 337 337 338 337 336 335 335 335 335 336 336 336 335 333 333 332 332 333 333 330 326 323 322 319 320 324 327 330 329 324 323 323 321 321 321 324 329 330 330 331 331 332 330 328 327 326
335 335 335 335 335 336 337 337 336 336 336 336 337 337 338 338 337 337 337 336 335 335 335 335 336 336 335 335 335 333 333 333 332 332 332 330 327 326 322 318 318 323 329 331 327 324 323 322 321 320 321 324 329 331 330 331 331 331 330 328 327 326
337 336 335 335 334 334 336 336 336 335 334 335 335 335 337 336 336 336 337 337 335 335 336 336 336 335 335 334 335 334 333 333 332 331 332 330 329 328 323 318 317 320 327 329 325 324 323 322 321 319 320 323 328 331 330 331 331 331 330 328 328 326
340 339 338 337 335 335 334 334 335 334 333 335 335 335 334 334 335 335 336 336 336 336 336 336 336 335 335 334 334 335 334 333 332 331 331 330 328 328 324 320 317 318 324 327 325 324 323 321 321 319 319 322 326 329 330 331 331 331 330 328 328 326
340 340 340 340 338 337 336 335 334 333 331 333 336 336 333 330 330 332 335 334 334 335 335 334 335 335 336 334 334 334 334 334 332 331 331 329 328 327 324 322 320 318 321 325 325 323 322 322 323 321 319 320 324 328 330 330 331 330 330 328 328 327
339 339 339 340 340 339 338 337 336 335 333 333 336 336 333 329 328 329 330 330 330 331 333 333 334 334 335 334 334 334 335 334 333 332 331 329 327 325 323 323 323 320 320 324 323 322 322 323 325 325 322 320 321 327 330 329 329 330 329 329 328 327
337 337 337 337 339 338 338 337 338 338 336 336 336 337 335 331 329 329 328 329 330 331 332 332 333 332 334 335 335 335 336 335 334 333 332 329 326 324 322 323 324 322 321 322 321 321 322 323 325 326 325 322 319 324 330 330 329 329 329 329 328 327
335 334 335 334 336 337 337 336 337 338 337 337 337 337 336 334 330 330 330 331 333 334 334 333 333 333 334 336 336 335 334 334 335 334 333 330 326 325 323 324 324 321 320 321 321 322 323 323 324 325 326 324 320 323 329 330 330 329 328 328 328 328
332 332 334 333 333 334 335 335 335 336 336 337 337 337 337 336 333 331 332 334 335 335 335 335 335 335 335 336 336 334 334 334 334 334 335 332 328 326 325 325 324 322 320 319 321 323 324 324 325 325 326 326 324 325 328 329 329 330 329 328 327 327
330 332 332 332 332 332 332 332 332 333 335 336 337 337 336 336 335 335 334 334 335 335 335 336 336 335 334 334 334 333 334 333 333 333 335 334 330 326 324 324 325 324 322 322 322 323 325 325 326 328 328 328 328 327 328 328 329 329 330 329 328 328
328 331 331 330 329 329 329 330 332 333 335 335 335 335 335 336 335 335 335 334 335 335 335 335 334 333 333 333 333 333 333 332 332 333 334 334 331 327 325 324 325 325 324 324 324 324 324 326 328 330 331 331 330 329 329 329 329 329 330 330 329 328
327 330 329 329 329 328 329 329 331 331 332 332 331 333 333 335 335 335 334 333 332 332 334 333 331 331 332 332 331 331 332 332 332 333 333 334 333 331 330 329 328 327 327 327 327 326 326 328 330 331 331 331 331 330 330 330 329 329 329 329 330 329
327 328 327 328 327 327 326 326 326 327 328 328 328 330 333 334 334 332 331 330 329 330 331 332 331 331 331 331 331 332 331 331 332 332 332 332 333 333 332 332 330 329 330 330 330 330 329 330 331 331 332 332 331 331 330 329 329 329 329 329 328 329
324 325 325 325 325 324 324 324 323 324 325 325 324 325 327 330 331 330 329 330 329 328 328 328 329 330 331 331 331 332 332 331 332 331 331 331 332 332 332 332 331 330 332 331 331 331 330 330 331 331 332 332 331 330 330 328 328 329 329 329 327 327
321 322 323 324 322 322 322 322 322 323 323 322 320 320 320 323 329 330 329 329 328 327 327 326 326 327 330 330 331 332 332 332 332 331 331 331 332 332 332 332 331 331 331 331 331 331 331 330 330 331 331 332 331 330 329 328 328 329 329 328 327 326
320 321 322 321 320 320 320 321 322 323 322 320 319 319 319 321 328 330 327 326 326 326 326 326 325 326 328 329 329 330 331 331 330 330 329 331 332 331 331 331 330 329 329 330 329 330 330 330 329 330 330 331 332 331 329 327 327 328 328 327 326 327
320 320 320 319 317 317 318 319 321 321 320 319 319 320 321 324 328 328 325 325 325 324 324 323 323 324 326 327 326 328 329 329 328 328 329 330 331 330 331 331 329 328 328 329 329 330 330 330 329 329 329 330 331 332 330 328 327 327 327 327 326 326
318 318 317 316 315 315 316 316 318 318 319 319 319 320 323 325 326 325 323 323 322 321 321 321 321 322 323 325 325 326 327 327 327 327 328 329 329 330 330 330 329 329 329 329 330 330 330 330 330 329 329 329 330 331 331 330 328 327 327 326 326 326
317 316 315 314 314 314 314 315 315 317 318 318 317 319 322 324 323 322 321 321 320 320 319 318 318 320 322 323 324 325 326 327 328 328 327 327 327 328 328 328 328 328 328 329 329 330 330 330 330 330 329 329 329 330 332 331 331 330 329 328 327 326
316 314 313 313 313 314 315 314 314 314 316 316 316 316 318 320 320 320 320 320 319 318 318 318 318 320 321 322 323 324 324 326 327 327 326 325 326 326 327 327 327 326 326 327 328 328 329 329 329 328 328 327 329 330 331 330 331 331 330 330 330 328
315 314 313 312 313 315 314 312 311 313 315 314 313 314 315 316 317 318 319 317 316 316 317 318 319 321 321 321 322 322 323 323 324 324 323 323 324 324 324 325 326 326 326 327 327 328 328 328 328 328 327 328 330 332 333 330 329 330 329 329 329 329
315 314 313 313 314 315 315 313 312 313 313 310 310 312 314 315 316 316 316 315 316 316 317 317 318 320 320 320 320 321 321 321 321 321 320 320 320 320 320 321 323 324 326 327 328 328 329 329 329 329 329 329 328 330 334 331 327 329 328 328 327 327
314 314 313 313 314 315 315 315 314 314 313 310 311 312 313 315 317 316 315 316 316 315 315 316 317 318 318 319 319 319 320 319 319 319 319 318 318 317 318 318 319 320 321 324 325 324 326 328 329 329 329 330 329 330 332 329 328 330 328 327 328 326
314 314 313 314 315 315 316 315 314 314 312 310 311 311 311 313 316 316 316 316 313 312 314 315 316 316 316 317 317 317 318 318 317 317 316 316 316 316 316 316 317 318 319 319 321 320 321 324 326 326 327 328 329 330 330 329 330 332 329 327 328 327
314 314 314 315 316 317 317 315 312 311 311 309 309 309 309 312 314 315 316 314 312 313 314 314 315 315 315 315 316 315 315 315 314 313 312 312 312 312 312 313 314 315 316 317 319 318 318 320 321 321 323 325 326 328 328 328 330 332 331 329 328 327
313 314 315 316 316 318 317 314 311 311 310 309 308 308 308 311 312 315 316 314 313 314 315 314 314 314 314 314 313 312 312 310 309 308 307 307 308 308 308 309 309 310 311 313 315 315 316 317 318 318 320 322 323 326 326 327 327 329 330 331 329 327
313 315 315 316 317 317 317 314 311 311 311 310 309 307 307 309 311 313 314 313 312 313 314 314 314 314 313 312 310 308 307 306 306 306 306 306 307 306 305 306 306 307 308 308 309 311 312 314 315 316 317 318 319 321 323 325 326 326 328 330 328 327
313 315 315 316 317 317 318 316 312 311 311 311 310 308 307 308 310 311 311 311 311 312 312 312 313 314 313 311 309 308 308 308 308 308 307 306 306 305 305 305 306 307 307 307 307 307 309 310 312 313 315 316 317 318 320 323 323 322 324 327 327 326
313 315 316 316 317 317 318 318 314 312 311 310 310 309 308 307 308 309 308 309 311 310 310 310 310 311 311 311 311 311 311 311 311 310 308 307 306 304 304 305 306 307 308 308 308 308 308 308 308 310 312 314 315 316 318 319 319 319 321 322 323 323
314 315 316 316 318 318 318 319 316 313 311 310 310 311 309 308 307 307 306 307 309 310 310 310 310 310 311 312 312 312 312 312 312 310 309 308 305 304 304 304 307 308 309 309 309 309 308 308 308 308 309 310 311 313 314 315 316 317 318 319 320 321
314 315 316 317 319 319 318 318 318 314 311 310 310 311 311 310 308 307 306 306 308 309 310 311 311 310 311 312 313 313 313 313 311 310 309 307 305 304 304 304 306 307 309 309 309 309 309 309 309 309 309 309 309 309 310 311 312 314 316 317 319 319
314 315 317 317 319 319 317 316 316 314 312 310 310 311 312 312 310 309 308 307 307 307 308 309 310 311 311 312 313 313 313 312 310 310 308 305 305 305 304 304 305 305 306 307 307 308 308 308 309 309 309 309 309 309 309 309 310 312 313 316 317 318
314 315 317 317 319 319 316 314 315 313 312 311 310 311 313 313 312 311 310 309 308 308 307 307 309 310 311 312 313 313 313 312 310 309 307 304 305 305 304 305 305 305 305 305 306 306 307 307 307 307 308 308 308 308 308 309 309 310 312 314 315 316
313 315 316 316 318 319 317 314 313 313 313 312 310 311 313 314 314 313 312 311 311 310 310 308 309 310 312 312 313 313 312 311 310 307 305 304 304 305 305 305 306 305 305 305 305 306 306 306 306 305 306 306 306 307 307 307 308 309 310 312 313 313
314 315 315 316 317 319 318 316 314 314 314 314 312 311 312 314 315 315 313 313 312 312 312 310 310 310 312 313 313 312 312 310 308 306 305 304 305 305 305 306 306 306 305 305 305 305 305 305 305 304 304 304 305 306 306 306 307 307 308 309 310 310

ECMWFFLT2_925_thetae_027.txt.gz
Theta_e
342 342 343 343 343 343 343 342 342 341 340 339 338 337 337 336 336 336 336 336 336 336 337 339 338 337 337 336 337 337 335 332 332 328 324 324 323 325 328 328 329 331 331 328 324 322 322 322 322 323 323 325 327 329 329 331 332 331 329 327 326 328
342 341 341 342 342 343 342 342 342 340 340 340 338 338 338 338 337 336 337 336 336 336 337 337 337 336 336 335 335 336 335 332 332 331 328 326 324 323 327 327 326 329 331 330 326 323 323 322 322 322 322 325 327 329 329 330 332 331 330 327 326 327
341 341 340 341 341 341 341 340 341 340 340 340 339 338 339 339 338 338 337 336 336 335 335 336 337 336 335 335 335 336 335 333 332 333 331 330 326 324 325 327 326 327 329 330 329 324 323 323 322 321 322 324 328 330 330 329 331 332 331 328 327 326
341 341 340 340 340 339 340 340 340 340 339 340 340 339 339 339 339 338 337 337 336 335 335 336 337 336 334 335 335 336 335 333 333 333 332 331 328 326 326 327 327 326 327 330 330 325 322 323 322 321 321 323 327 330 331 329 330 331 331 329 327 326
339 339 340 340 339 339 339 339 338 339 339 339 339 339 339 339 338 338 337 337 336 335 335 335 336 337 335 334 336 337 335 334 335 334 332 331 329 329 328 329 329 327 327 330 330 326 323 323 323 321 320 322 327 329 330 330 330 331 331 329 327 326
337 337 338 338 337 337 338 338 338 338 337 338 338 338 338 339 338 337 338 337 336 335 336 335 336 338 337 335 336 336 335 334 336 335 333 331 331 329 329 330 330 328 328 331 330 326 324 323 323 322 320 321 325 329 330 330 331 331 331 329 327 327
338 338 338 337 335 335 337 337 337 337 337 337 337 336 337 338 338 337 337 337 336 335 336 336 336 337 337 335 334 334 334 334 336 336 333 331 331 329 329 330 330 329 328 330 329 326 324 322 321 323 322 320 323 327 330 330 331 331 331 329 328 327
340 340 340 340 338 337 338 336 336 337 336 334 333 334 335 337 337 337 337 338 337 337 337 336 335 335 335 334 333 333 335 336 335 335 333 332 331 329 330 330 330 329 328 327 327 325 322 322 321 321 323 322 321 325 329 330 330 331 331 330 329 327
340 340 339 340 340 339 339 338 337 336 336 334 334 334 333 335 336 335 336 337 336 335 334 334 333 334 334 334 334 334 335 335 333 332 332 332 332 330 330 330 329 329 327 325 326 324 322 323 324 322 323 324 322 323 327 329 329 330 330 330 329 328
338 337 337 337 339 338 338 338 338 337 337 337 336 335 334 335 335 335 335 334 334 334 333 334 334 334 333 332 334 334 334 333 332 333 333 333 333 330 328 328 327 326 326 324 324 324 322 322 326 326 324 325 324 322 325 329 330 329 329 329 329 328
336 334 333 335 335 336 336 336 337 337 337 337 337 337 336 336 335 334 334 334 335 335 335 335 336 335 333 333 334 334 333 332 333 333 334 333 333 330 326 324 324 325 327 327 324 323 322 322 325 327 326 326 327 324 325 328 330 329 329 328 328 328
334 331 330 330 331 334 335 335 335 335 335 335 335 336 336 337 336 335 335 334 335 335 335 334 335 335 334 334 333 333 333 332 332 332 333 333 333 332 326 323 324 325 326 327 326 323 322 323 324 327 328 328 328 327 327 328 329 330 329 329 328 328
331 329 327 327 329 332 333 334 334 334 334 334 334 335 336 336 335 335 334 333 333 333 333 333 333 333 333 334 333 332 332 332 332 331 332 332 333 333 328 323 323 325 325 326 328 327 325 324 326 329 331 330 329 329 329 328 329 329 329 329 329 328
328 329 328 329 329 329 329 331 333 333 334 333 333 334 334 335 334 335 333 331 330 330 331 331 331 331 331 332 332 332 332 332 332 331 331 332 332 333 330 323 321 324 326 327 328 328 328 328 329 331 331 331 331 330 330 329 329 329 329 329 330 329
328 330 329 329 329 328 328 329 330 331 332 331 332 333 333 333 333 332 331 330 330 329 328 328 329 331 331 331 332 331 332 332 332 331 331 331 332 332 331 326 322 324 326 328 329 329 328 330 331 331 331 331 331 330 330 330 330 329 329 329 329 329
328 329 329 329 328 327 327 327 327 327 328 328 327 328 329 331 331 330 330 329 328 328 327 326 325 326 327 329 331 331 332 332 332 332 331 331 331 331 331 330 328 327 327 328 330 330 329 331 331 331 331 331 332 331 329 329 329 329 329 330 329 329
327 328 327 327 327 325 325 324 323 325 325 323 322 321 324 329 331 329 328 327 327 327 327 326 326 325 326 328 330 331 332 332 331 332 331 331 331 331 330 331 330 330 330 328 329 331 330 331 331 331 331 331 331 331 330 330 329 329 328 329 329 329
325 325 325 325 324 323 322 322 323 323 323 320 320 319 321 328 329 327 326 325 326 326 325 325 324 325 327 327 328 330 331 331 331 331 331 331 331 331 331 331 330 331 331 329 329 331 331 331 331 331 331 331 331 331 331 330 329 328 328 328 329 329
322 323 324 323 322 321 321 321 322 322 321 319 320 320 322 327 328 326 325 325 324 323 323 322 321 323 325 325 327 330 330 329 329 330 330 330 330 330 331 331 330 330 331 330 330 331 331 331 330 330 331 330 330 331 331 331 330 328 327 328 329 328
321 323 322 321 319 319 320 321 322 321 320 320 321 322 324 327 327 325 324 323 322 321 320 320 319 321 323 324 326 328 329 329 329 329 329 330 330 330 331 330 330 329 329 330 330 330 330 331 330 330 330 330 330 330 330 330 331 330 328 327 327 327
321 322 320 319 318 317 318 319 320 320 320 321 322 323 324 325 324 322 322 321 320 319 318 318 318 320 322 323 325 327 327 328 329 329 329 329 329 330 330 329 329 329 329 330 330 330 330 331 330 330 330 330 329 329 329 329 330 331 330 328 328 327
320 321 319 318 317 316 316 316 318 318 319 321 322 322 323 322 321 321 321 319 318 318 318 319 319 320 322 322 324 326 327 327 328 328 328 328 328 329 328 328 328 329 329 329 330 330 330 330 330 330 329 329 329 329 327 327 329 330 330 330 329 329
319 319 317 316 315 314 314 314 315 316 317 319 319 319 319 320 320 320 318 317 317 318 318 319 320 320 321 321 322 324 325 325 325 326 326 326 327 327 327 328 328 328 328 329 329 329 329 329 330 329 328 330 332 330 328 327 328 328 328 329 329 329
317 317 316 315 314 313 314 313 313 314 315 315 315 315 316 317 318 318 317 316 317 317 317 318 319 320 320 321 321 321 321 321 321 322 322 322 323 324 325 326 328 328 328 328 328 328 328 328 328 328 329 331 331 331 333 330 328 328 328 329 328 328
316 315 314 313 313 313 313 312 313 315 315 313 314 315 316 317 317 317 317 316 316 316 316 317 318 318 319 319 319 319 319 319 319 319 319 319 319 319 320 322 325 327 328 328 328 327 328 328 328 329 329 330 329 332 333 331 329 329 328 328 328 328
315 314 313 312 312 313 313 311 312 314 314 315 318 317 316 316 316 317 316 314 313 315 316 316 316 317 317 317 317 317 317 317 316 316 316 317 316 317 317 318 319 322 323 324 325 326 326 326 327 327 328 329 329 331 331 330 330 331 329 328 328 329
315 314 313 312 312 313 313 311 310 311 311 313 316 314 312 312 314 315 315 313 313 314 315 315 315 315 316 316 315 315 315 314 313 312 311 311 311 312 312 314 315 317 318 319 321 324 324 323 324 324 325 327 327 328 328 329 330 332 332 330 328 328
315 314 313 312 312 313 312 311 311 311 309 308 309 310 310 311 313 314 314 312 313 314 314 314 314 314 314 313 312 310 309 308 307 307 306 306 306 306 306 307 308 310 312 314 316 320 321 321 322 321 321 322 324 325 326 327 327 329 331 331 330 329
315 314 314 313 312 313 312 312 312 311 310 308 307 308 310 311 311 313 314 313 312 314 314 314 314 314 312 310 308 307 307 306 306 305 305 304 304 304 304 305 305 306 307 308 310 313 316 318 319 320 320 320 321 322 324 325 326 326 327 329 329 329
315 314 314 313 313 313 313 313 312 312 311 310 308 309 310 311 311 313 314 313 313 314 314 314 314 313 311 309 308 309 309 308 307 306 305 304 304 304 305 306 306 306 306 307 308 308 310 313 315 317 318 320 320 321 323 323 323 323 324 326 326 326
314 314 314 314 314 314 314 314 314 312 311 311 310 309 310 312 311 312 312 312 312 313 313 313 313 312 310 310 310 311 310 310 309 307 305 304 305 305 306 307 308 308 308 309 309 309 309 310 312 314 314 316 318 318 319 320 320 320 321 322 322 322
312 313 314 315 315 316 316 315 315 313 312 311 311 309 309 309 310 309 308 309 311 312 312 311 311 311 311 311 312 312 312 311 309 307 305 304 305 305 306 307 309 310 310 309 310 310 311 311 312 313 313 314 314 315 316 316 317 318 319 320 320 320
311 312 314 315 316 316 316 316 315 314 313 311 311 310 309 308 307 307 306 307 309 311 311 311 311 311 311 312 312 313 313 312 309 307 305 304 304 304 305 306 307 308 308 309 309 309 310 310 310 311 312 312 312 312 313 313 314 316 317 318 318 318
311 312 313 315 316 317 316 316 315 315 314 313 312 311 310 309 308 307 306 306 307 308 308 309 310 310 311 311 312 313 313 311 310 307 305 305 304 304 304 306 307 307 307 308 308 308 309 308 308 309 310 311 311 311 311 312 313 314 314 316 317 317
312 312 313 315 316 317 316 316 316 316 316 316 315 312 311 310 310 309 307 306 306 306 307 307 308 310 311 311 312 313 313 312 310 307 305 304 304 304 304 305 306 306 307 307 307 307 308 307 307 307 308 309 309 310 310 310 311 312 313 314 315 316
313 312 313 314 316 316 316 317 317 318 318 317 317 314 312 310 311 311 309 307 306 307 307 307 308 310 311 311 312 313 313 312 309 307 305 304 305 305 304 306 306 306 306 307 307 308 307 307 307 307 307 307 308 309 309 309 309 310 311 312 313 314
312 312 313 314 315 316 317 317 318 318 318 317 317 315 313 311 310 311 311 310 308 308 307 307 308 310 311 311 312 312 312 311 309 307 305 305 305 304 305 307 307 307 306 307 307 308 308 307 307 307 307 306 307 308 308 308 309 309 309 310 311 311

ECMWFFLT2_925_thetae_030.txt.gz
Theta_e
344 343 343 344 343 343 342 343 341 338 335 334 334 334 334 336 337 337 337 337 337 339 339 339 337 337 337 337 336 334 333 333 330 328 328 328 329 330 330 331 331 331 329 326 324 322 320 318 318 322 324 325 326 330 335 335 334 333 334 332 332 333
344 344 343 343 343 343 342 343 342 340 339 338 337 336 336 338 339 339 338 337 337 339 339 338 337 338 338 336 336 335 335 334 331 330 328 328 328 329 329 329 329 330 330 329 326 326 325 321 320 322 324 325 329 333 335 335 335 333 333 332 333 331
344 344 342 342 342 342 342 343 341 341 340 340 340 339 340 339 340 340 339 338 338 338 338 337 337 338 337 335 335 335 335 333 332 332 329 328 328 328 328 328 327 327 330 330 329 330 329 327 325 323 324 327 331 334 334 335 335 333 333 332 333 330
343 344 343 343 342 341 341 342 341 341 340 340 339 339 341 340 339 339 339 339 339 339 338 338 338 337 336 335 335 336 336 333 332 333 331 331 330 328 327 327 327 326 328 330 330 330 330 329 328 326 327 329 331 333 333 334 334 334 333 331 332 330
343 343 343 344 343 341 341 341 341 342 341 340 340 340 340 339 339 339 339 338 338 339 339 338 337 336 337 337 337 337 337 335 332 333 333 334 335 331 328 329 329 327 328 330 330 330 330 328 328 328 328 330 331 332 333 333 334 334 333 332 332 329
341 342 342 343 343 341 341 341 340 341 341 340 341 340 340 340 340 340 338 337 337 339 338 338 336 334 337 338 338 338 337 337 334 334 334 333 335 334 331 330 331 330 329 330 330 330 331 330 328 327 327 329 330 331 332 333 334 334 333 333 332 329
340 341 341 341 341 342 341 341 341 341 341 340 340 340 340 340 340 340 339 338 337 338 338 338 337 335 337 338 337 337 337 338 336 335 335 334 335 335 332 329 330 330 329 329 330 330 330 330 329 328 328 328 329 331 331 333 333 334 333 333 332 329
340 341 342 341 341 341 341 342 341 340 340 341 340 340 339 339 339 339 339 337 336 338 338 338 339 338 338 337 336 337 337 338 337 336 336 336 335 335 333 331 330 330 329 329 329 330 329 328 329 328 328 328 329 330 331 332 333 334 333 333 333 330
341 342 342 342 342 341 340 341 340 339 340 339 338 339 339 339 339 337 337 336 336 338 338 337 338 339 337 336 336 336 337 337 337 337 337 337 336 335 334 332 331 331 330 329 328 329 328 327 327 328 327 327 327 328 330 332 332 334 333 333 333 332
341 341 341 341 341 340 340 341 340 340 340 339 337 338 338 338 338 337 335 336 337 338 338 338 339 338 337 338 337 335 337 337 335 334 336 336 336 336 335 332 331 330 330 329 328 328 327 326 327 327 327 327 326 327 330 331 331 332 332 332 333 332
340 341 339 337 337 337 338 337 338 339 339 339 339 339 338 337 336 336 335 335 336 336 335 336 337 336 337 337 336 335 336 336 335 334 334 335 335 335 335 332 331 331 330 328 327 327 326 326 326 327 327 326 326 327 328 330 330 331 331 331 332 332
339 339 337 335 335 335 335 334 335 335 335 336 337 337 338 338 336 336 335 335 334 334 333 334 335 335 335 336 336 336 336 336 335 335 334 334 334 333 334 332 330 331 330 329 328 326 325 326 327 327 327 326 326 327 327 329 330 330 330 331 331 332
336 337 336 335 335 333 333 332 333 332 333 334 335 335 335 336 336 336 335 334 333 334 333 334 336 335 334 335 335 336 335 335 335 334 334 334 334 334 333 332 330 329 328 328 328 327 326 326 327 328 328 328 327 327 326 327 329 329 330 330 330 330
336 336 336 335 334 332 332 332 331 332 333 334 334 334 333 334 335 335 334 334 333 333 333 334 334 334 334 335 336 335 335 335 335 335 334 334 334 334 334 332 330 329 328 327 327 327 327 327 327 329 330 330 329 328 327 327 328 328 329 329 329 329
336 336 336 335 334 333 333 333 332 332 333 333 332 332 332 332 333 333 333 333 332 332 332 332 334 333 333 334 335 335 335 335 335 334 334 333 333 334 335 333 331 329 328 328 327 327 328 329 329 330 331 331 330 330 329 327 327 327 327 329 328 328
334 335 335 334 334 333 333 332 331 332 331 331 330 330 331 331 331 330 331 331 331 331 331 331 332 331 331 332 334 335 334 335 335 334 334 333 333 333 334 334 332 329 329 329 328 328 329 330 331 331 331 332 332 331 330 328 328 327 327 327 328 328
334 335 334 333 333 332 332 331 330 330 330 329 329 329 329 329 329 329 329 329 330 330 330 330 330 329 329 330 332 333 333 333 334 334 334 334 334 333 334 334 332 330 329 329 329 330 330 331 332 332 331 331 332 332 332 329 328 328 327 327 327 328
335 335 334 333 332 331 330 329 329 329 329 328 327 328 327 328 328 327 327 328 329 330 330 329 329 328 329 330 330 331 332 333 334 334 334 334 334 334 334 333 333 331 330 330 330 330 331 331 331 331 331 331 332 333 333 332 331 329 328 327 327 328
335 334 332 331 329 328 328 328 327 327 326 326 326 327 326 326 326 326 326 327 327 327 327 328 328 327 328 328 328 329 330 331 331 333 333 334 334 334 334 333 333 333 331 331 331 330 331 333 332 332 332 331 332 333 333 333 333 332 328 327 327 327
333 331 330 328 326 326 326 326 326 325 325 325 325 326 325 325 325 325 325 325 325 325 325 325 325 326 326 326 326 327 329 329 329 331 332 333 333 334 334 333 333 333 332 332 332 332 332 333 333 334 333 332 330 331 332 332 333 333 330 328 327 326
331 328 327 325 325 325 324 323 323 324 324 324 324 325 325 325 325 324 324 324 324 323 323 323 324 325 325 325 325 325 327 328 328 329 330 332 333 333 334 333 333 333 333 332 333 332 332 333 333 333 333 333 331 331 332 332 332 332 330 329 327 326
328 326 326 325 324 324 323 321 322 322 323 322 323 323 324 324 325 324 324 323 322 322 322 322 322 324 324 325 325 325 326 327 328 329 329 330 331 332 332 332 333 332 332 332 332 332 332 332 332 332 333 332 332 334 333 330 330 331 330 330 329 328
326 325 325 324 323 323 322 322 322 322 321 321 323 324 324 324 324 323 322 321 321 322 322 322 321 322 323 324 324 324 325 326 326 327 328 328 329 330 330 331 331 332 332 332 332 331 331 331 331 332 332 331 332 334 333 330 329 329 330 331 330 330
325 325 325 324 323 323 321 322 323 322 322 322 322 323 323 322 322 321 320 320 320 321 322 321 320 320 321 322 323 323 323 323 324 325 325 326 327 327 328 330 331 331 331 330 329 330 330 330 331 331 331 332 332 331 333 333 330 328 329 331 332 331
325 325 324 324 324 322 320 320 321 321 321 321 321 321 322 321 321 320 320 320 320 320 321 321 321 320 320 320 321 320 320 321 322 322 322 322 324 324 325 327 328 330 329 329 329 330 330 329 330 331 330 332 333 332 333 332 331 330 328 330 332 331
324 324 323 324 322 320 320 321 320 320 320 319 320 321 320 321 321 320 319 319 319 320 320 321 321 320 320 320 320 320 320 320 320 320 320 321 322 322 322 323 324 326 327 328 329 329 329 327 327 328 329 330 330 331 333 331 331 333 330 328 330 330
324 323 323 324 321 319 320 321 320 319 319 318 318 320 320 321 320 319 318 318 319 320 319 320 320 320 320 320 320 320 320 319 318 318 318 318 318 318 319 320 321 323 323 324 326 326 327 326 326 327 327 327 327 328 330 330 330 332 332 330 330 329
323 323 324 323 320 320 320 320 320 319 318 317 318 319 320 321 320 318 318 319 319 319 319 319 319 318 317 317 318 317 317 316 314 313 313 313 314 314 315 316 317 319 320 322 323 324 323 324 325 325 325 326 326 326 327 328 327 328 331 331 331 330
323 323 324 322 320 320 320 320 320 318 317 317 317 317 318 319 319 319 319 319 318 318 318 318 317 316 315 314 314 314 314 313 312 312 311 311 312 313 314 315 315 316 317 318 319 320 321 322 322 323 323 324 324 325 326 326 325 325 327 329 330 330
323 323 324 321 320 321 321 321 321 318 317 317 317 317 317 319 319 319 318 318 318 318 318 318 317 316 314 313 314 314 313 313 312 312 312 313 313 314 314 315 315 315 315 315 315 316 318 318 319 320 321 321 321 322 323 324 324 323 325 326 327 327
323 322 323 322 320 321 322 322 321 319 318 317 317 317 318 319 319 319 318 318 318 317 317 318 317 316 315 315 315 315 314 314 313 313 313 314 314 315 315 315 315 315 315 315 315 315 315 315 316 316 317 318 319 319 320 321 321 321 321 322 322 323
323 323 323 323 322 322 322 322 322 321 319 319 318 317 318 318 319 319 319 318 317 317 317 317 317 316 316 317 316 315 315 314 314 314 313 314 314 314 315 315 316 315 315 315 315 315 315 315 315 315 315 315 316 317 317 318 319 318 319 320 320 320
324 323 324 324 323 323 322 321 322 322 321 320 319 317 317 318 318 318 318 318 317 316 316 317 316 316 317 318 317 316 316 314 314 313 313 313 313 313 313 314 314 315 315 315 315 316 316 315 316 316 315 315 314 314 315 316 316 317 317 318 318 319
325 324 324 324 323 323 323 322 322 323 322 321 320 318 317 318 318 316 316 318 317 315 316 316 316 317 318 318 317 317 317 315 314 313 313 313 313 312 312 312 313 313 314 314 314 314 314 314 314 314 314 315 314 314 314 314 314 315 315 316 317 318
325 325 324 324 323 323 323 323 323 323 322 322 321 319 317 318 318 317 316 317 316 315 316 316 316 317 318 318 318 318 317 315 314 313 313 313 313 312 312 312 312 313 313 313 313 313 312 312 312 312 312 313 313 313 313 313 313 313 314 315 315 316
325 325 324 324 323 323 323 324 324 324 324 323 321 320 318 318 319 318 317 316 316 316 316 315 316 318 318 318 319 318 317 316 314 313 313 313 312 312 311 311 312 312 312 312 313 313 312 312 311 311 311 311 312 312 312 312 312 313 313 313 313 314
324 325 325 324 323 324 324 325 324 324 323 323 322 321 320 320 320 319 318 317 316 316 316 316 318 319 318 318 319 318 317 316 315 313 313 312 312 312 312 311 311 312 312 312 312 312 312 312 311 311 310 310 311 311 310 311 312 312 312 313 312 313

ECMWFFLT2_925_thetae_033.txt.gz
Theta_e
344 344 343 342 342 342 338 334 332 331 331 332 334 335 335 336 337 338 337 337 337 338 338 337 337 337 337 336 335 335 334 333 333 333 334 333 333 333 332 330 329 328 327 327 326 326 324 322 319 317 323 327 326 332 336 335 334 331 333 332 332 334
344 343 343 344 344 343 341 340 337 335 333 332 333 335 336 337 338 339 337 337 337 337 338 338 337 337 338 337 336 335 333 333 333 331 331 332 332 331 330 330 330 330 330 329 328 327 327 325 321 317 320 327 328 333 337 336 335 333 332 332 333 333
344 343 343 344 344 343 342 341 340 340 338 336 336 336 338 339 338 339 338 338 337 337 338 338 336 337 338 338 337 335 334 333 333 332 330 329 329 328 327 327 329 329 329 330 329 329 330 329 326 321 319 325 330 334 336 336 336 334 332 332 334 332
344 343 342 343 342 342 342 341 341 343 342 339 339 340 340 340 338 337 338 339 337 336 337 338 336 336 337 338 337 335 334 333 332 332 331 330 329 327 325 326 327 326 328 330 330 330 331 330 330 327 323 326 331 333 335 336 336 335 333 332 333 332
344 343 342 342 342 342 342 341 341 341 342 340 340 340 340 340 338 337 338 337 337 336 335 336 337 336 336 337 337 336 335 334 334 333 331 332 333 330 329 329 329 327 329 331 330 330 331 330 329 329 328 328 331 332 334 335 335 335 334 333 332 331
341 342 342 343 343 343 342 342 341 340 341 340 340 339 339 339 338 337 337 337 337 335 334 335 336 336 336 337 337 337 335 333 335 335 332 333 335 334 333 332 332 332 331 331 330 329 331 331 329 328 328 328 329 331 332 333 335 335 335 334 333 330
339 339 341 341 342 341 341 342 340 339 339 339 339 338 338 338 337 337 337 337 336 335 335 335 334 333 335 337 337 336 335 333 334 335 334 335 336 336 334 331 331 332 332 331 330 330 331 332 331 329 327 328 328 329 331 332 334 335 335 334 333 331
340 339 338 337 339 339 339 339 339 339 338 337 337 338 337 336 337 337 336 337 337 336 336 336 334 333 335 336 335 335 335 335 334 335 335 335 336 336 334 332 331 331 332 331 330 330 330 331 331 330 328 328 329 328 330 331 333 335 335 335 334 331
342 342 339 336 337 337 337 337 337 337 337 337 336 336 335 335 336 337 336 337 337 337 337 336 336 336 335 334 334 335 335 335 334 333 334 334 334 334 333 332 332 331 332 331 331 330 329 329 329 330 328 327 329 327 328 330 332 335 336 335 335 332
343 344 343 340 337 336 337 336 337 336 336 337 336 336 335 334 336 337 337 336 336 336 337 336 336 336 334 332 334 336 335 335 335 334 335 334 335 335 333 332 332 332 331 331 331 330 329 328 328 328 327 327 328 327 327 330 331 334 335 334 335 334
341 343 341 340 337 336 337 337 337 336 335 336 336 337 336 335 335 336 336 335 335 336 337 336 336 336 333 333 335 336 336 336 336 336 336 335 336 336 335 333 332 331 332 332 330 329 329 328 327 327 327 326 327 327 327 328 330 331 333 333 335 335
340 341 337 334 334 334 334 334 335 334 334 335 336 337 336 335 335 336 336 336 336 336 337 337 336 336 335 334 335 336 336 336 336 337 336 336 337 337 335 334 333 332 333 333 331 329 328 327 326 326 327 326 325 326 327 328 329 329 330 332 333 334
338 338 335 332 332 331 330 330 331 330 332 334 335 335 335 336 336 336 336 337 337 337 337 337 336 336 336 336 336 337 336 336 336 337 337 337 338 337 336 334 333 333 333 333 331 330 329 327 326 326 327 327 326 326 327 327 327 329 330 331 332 333
336 335 334 333 332 330 330 329 329 328 330 332 332 331 334 336 336 336 337 337 337 337 337 335 334 335 336 335 336 337 336 336 336 336 336 337 337 337 336 335 333 332 332 331 329 329 330 328 326 325 326 327 327 327 327 327 327 328 329 330 331 330
336 334 334 334 332 332 331 330 329 330 332 332 331 331 332 334 336 336 337 336 336 336 336 335 334 335 335 335 335 336 336 335 336 336 336 336 336 336 335 335 333 332 331 330 328 328 328 328 328 327 327 328 328 328 327 327 327 327 328 329 330 330
337 336 335 334 333 332 331 331 331 331 331 330 329 329 330 331 332 332 332 334 334 335 334 335 335 335 335 335 335 336 335 335 335 335 335 335 335 335 334 334 334 332 331 330 329 328 328 329 330 329 330 330 331 330 330 329 328 327 327 328 328 328
336 336 335 333 332 332 331 331 330 330 329 328 328 328 327 328 328 329 329 330 332 333 332 333 334 334 334 334 334 334 334 335 335 335 335 335 335 334 333 334 334 332 331 331 330 329 329 330 331 332 332 332 331 331 331 330 329 327 327 327 327 328
336 335 335 332 332 331 331 329 329 329 327 327 327 327 327 327 327 327 328 329 331 331 331 332 331 332 333 333 333 333 334 335 335 334 333 333 334 333 333 333 333 333 332 331 329 330 330 331 332 333 333 331 330 331 332 331 330 329 328 328 327 327
335 335 334 333 331 330 329 328 327 327 325 325 325 326 325 327 327 326 327 328 329 329 329 330 329 329 330 331 331 332 333 335 334 334 333 332 333 333 333 333 332 332 332 331 330 331 331 332 332 332 332 331 331 331 330 330 330 331 330 329 328 327
335 334 332 331 330 328 328 326 326 325 324 325 325 325 326 326 326 326 326 326 326 327 327 327 327 327 328 327 327 329 330 332 332 332 331 331 332 331 331 333 333 332 332 332 332 332 331 332 333 332 332 333 333 331 331 330 329 330 331 330 329 328
334 332 329 329 327 327 326 325 325 325 324 324 324 324 326 326 326 326 325 325 325 324 324 324 324 326 326 325 325 326 327 329 329 330 330 331 332 331 331 332 332 332 332 331 331 332 331 330 331 331 331 332 333 331 330 329 327 329 330 330 329 328
333 329 327 328 326 326 325 324 323 324 323 322 322 323 325 326 326 325 324 324 323 323 323 323 324 325 325 325 325 325 326 328 328 328 329 330 332 333 332 331 332 332 331 330 330 331 331 330 329 330 330 330 332 331 329 328 326 326 327 327 329 328
330 328 327 327 325 324 324 324 323 322 322 322 324 325 325 325 325 324 323 323 323 324 324 324 324 324 323 324 325 324 324 326 327 328 328 328 330 332 332 331 331 331 330 329 329 330 331 331 330 330 330 330 332 332 331 330 329 328 327 327 329 329
329 327 326 325 325 324 325 325 324 323 323 323 324 324 324 324 323 322 322 323 323 324 324 323 323 323 322 323 323 322 322 323 325 325 326 326 328 329 330 331 330 329 329 330 330 331 331 331 330 330 331 332 332 331 332 332 331 331 329 328 329 329
328 327 326 325 326 325 323 324 324 323 323 323 322 322 322 322 321 321 322 322 322 323 324 323 323 323 322 321 321 321 320 321 322 322 322 323 323 325 326 328 328 328 330 331 331 330 330 330 329 330 330 331 331 331 333 333 332 333 329 324 325 327
328 328 326 326 326 323 321 323 322 320 320 320 320 322 322 321 321 321 321 321 322 323 323 323 323 323 322 321 321 320 320 320 320 320 321 321 321 322 323 324 325 326 328 329 329 329 330 329 328 329 329 329 330 331 333 333 332 333 331 326 326 328
328 328 327 326 325 322 321 322 320 318 318 319 320 321 322 322 321 320 320 322 322 322 322 323 322 322 322 322 322 321 320 319 318 318 318 318 318 319 319 319 320 322 324 325 326 327 328 328 327 328 328 327 327 327 329 331 330 332 333 331 329 330
328 327 328 326 323 321 322 321 320 319 318 319 321 322 321 322 320 319 320 321 321 321 321 321 321 320 320 320 320 319 318 317 315 314 314 315 315 315 317 317 317 319 320 321 323 324 325 326 326 327 327 327 327 327 327 327 327 328 330 331 331 330
327 327 328 327 322 321 322 322 321 320 319 320 321 321 320 320 319 320 321 321 320 320 320 320 319 318 317 317 316 316 315 315 314 314 313 313 315 316 317 318 318 318 318 318 319 321 322 322 322 323 323 323 325 326 327 326 325 325 327 328 330 330
327 327 329 327 322 321 322 322 321 319 319 320 319 318 319 319 319 320 321 321 320 320 320 319 318 316 316 316 316 316 315 315 315 314 315 315 316 317 317 318 318 318 318 318 317 318 318 318 319 319 318 319 320 322 324 326 325 325 325 326 327 328
327 326 329 327 322 322 322 322 321 320 320 320 318 319 320 319 319 320 320 320 320 319 319 319 318 317 316 317 317 317 316 315 315 316 316 317 317 317 318 319 318 318 319 319 318 318 317 318 318 317 316 318 318 319 320 321 322 322 322 323 323 323
327 327 329 327 323 322 322 322 322 320 320 321 319 320 320 320 319 320 319 319 319 319 319 319 318 318 318 318 318 317 316 316 316 316 316 316 316 317 318 318 318 319 319 319 319 319 318 319 319 318 317 316 316 317 318 318 319 319 319 320 320 320
327 327 328 327 324 323 322 323 323 322 320 320 320 319 320 320 320 320 319 319 319 319 319 319 319 318 318 319 318 317 316 316 315 315 315 315 315 315 316 316 316 317 318 318 318 318 318 318 318 318 318 317 316 316 317 316 316 317 317 317 318 318
328 327 328 327 325 323 323 323 323 323 321 321 320 319 319 320 319 319 319 319 318 318 319 319 319 319 319 319 319 318 317 316 315 315 315 315 315 315 315 315 315 316 316 316 316 316 316 316 316 316 317 316 316 316 316 316 316 316 317 317 317 318
328 327 328 328 326 325 324 323 323 323 322 321 321 319 318 319 319 318 319 319 318 317 318 318 318 319 319 319 319 319 318 317 316 315 316 315 315 315 314 314 314 316 316 315 315 315 315 315 315 314 314 315 316 316 315 315 315 315 316 316 316 316
328 327 328 328 326 325 324 324 323 323 323 322 321 320 318 318 319 318 318 319 319 318 317 318 318 319 319 319 320 320 319 317 316 316 316 315 316 315 314 314 315 315 315 315 316 316 315 315 315 314 313 314 315 314 313 313 314 314 314 315 315 315
328 328 328 328 327 326 325 324 323 323 324 323 322 321 319 318 320 320 318 319 319 318 318 318 318 320 319 319 320 320 319 318 317 316 316 315 315 315 314 314 314 314 315 315 315 315 315 315 314 314 313 312 313 313 311 312 313 312 313 314 314 314

ECMWFFLT2_925_thetae_036.txt.gz
Theta_e
343 340 335 334 333 332 330 330 331 332 334 335 337 337 337 339 338 338 338 337 337 338 338 337 336 337 337 337 335 333 333 332 332 334 334 333 332 332 331 330 328 328 329 329 329 328 327 325 323 321 324 327 329 330 329 333 337 333 333 334 331 332
344 343 340 339 338 336 331 331 333 334 335 335 338 339 339 339 337 336 336 336 337 338 338 337 337 337 338 338 336 335 334 332 332 333 332 332 332 332 332 331 330 329 328 328 328 327 327 327 325 320 322 326 330 333 333 334 336 334 333 332 330 332
345 344 341 340 341 339 333 334 337 335 334 335 336 338 339 338 335 334 336 336 336 337 338 337 337 338 337 338 337 336 335 333 333 333 331 330 330 330 332 331 331 330 329 329 329 328 328 330 329 324 321 324 330 335 335 335 336 335 333 332 332 331
344 343 342 342 342 342 339 338 340 337 336 337 336 337 337 336 334 335 336 335 336 336 337 337 338 339 338 337 337 337 337 335 334 333 332 329 327 327 329 329 328 328 328 327 327 327 329 331 330 328 323 322 328 333 335 335 335 335 333 332 332 330
344 344 343 342 342 343 343 341 340 339 338 339 338 337 336 336 336 336 335 336 336 336 337 338 338 339 339 338 338 337 336 336 334 334 333 330 328 328 329 330 329 328 325 326 328 329 330 330 330 330 326 324 328 332 334 335 335 335 334 332 332 329
343 343 343 342 342 342 342 341 341 340 340 340 339 338 337 337 337 336 335 336 337 335 336 337 338 338 338 337 338 337 336 335 336 335 334 332 332 332 332 332 333 331 328 329 332 330 330 330 331 331 327 327 329 331 333 334 335 335 334 332 331 329
343 342 342 340 341 341 341 341 340 340 339 339 338 338 338 338 337 337 336 336 337 337 336 335 336 337 337 337 337 336 336 336 337 336 334 333 334 334 334 334 334 333 331 332 332 330 330 330 331 331 329 328 328 330 331 333 334 334 335 333 332 329
342 340 340 339 339 339 340 341 341 340 339 339 338 338 338 337 337 337 337 336 337 337 336 335 336 336 337 337 336 337 336 336 337 335 335 334 334 334 334 335 333 332 332 332 331 330 330 330 331 331 330 328 327 329 329 332 333 334 336 335 333 330
341 341 339 336 336 336 338 339 340 340 339 339 338 338 338 337 337 337 336 336 336 336 336 337 336 336 336 336 337 337 335 335 335 334 334 335 335 335 334 335 333 332 331 331 331 331 330 329 330 329 330 329 327 328 329 330 332 335 335 335 334 331
339 340 338 337 335 335 336 337 338 338 338 337 336 337 337 336 336 337 337 336 336 337 336 336 336 336 337 337 336 335 334 335 334 333 334 334 335 335 336 335 333 331 331 332 332 331 330 329 329 328 329 329 327 327 327 328 331 334 335 336 335 333
339 339 338 337 337 336 336 337 337 337 337 336 336 335 335 335 335 336 337 336 336 336 336 335 336 336 336 336 334 333 333 334 333 332 333 334 333 335 336 334 332 331 332 333 331 331 330 328 329 328 327 327 328 327 326 326 329 332 334 335 335 334
338 337 336 334 336 336 336 336 336 336 335 336 335 334 335 335 335 336 336 336 336 335 335 335 335 336 336 335 334 333 333 333 333 332 333 334 334 334 335 334 333 332 333 333 332 331 330 329 328 327 327 326 326 328 326 326 328 330 332 334 335 335
338 335 334 333 333 332 332 333 333 333 334 335 334 333 334 334 335 336 336 336 336 335 335 334 334 335 335 335 334 334 334 334 333 332 333 334 335 334 333 333 333 333 333 333 332 331 329 329 327 326 327 326 326 327 326 326 327 328 330 333 334 335
336 335 333 332 332 331 330 330 330 332 332 334 333 331 332 334 335 336 336 336 335 334 334 334 335 334 335 335 334 334 334 334 333 333 334 333 333 334 334 333 333 333 333 332 332 331 330 329 328 326 326 326 326 326 326 326 327 327 327 330 333 334
334 334 333 332 332 331 330 330 331 332 332 333 332 331 332 333 334 336 336 335 334 334 334 334 335 334 335 335 334 333 333 333 332 333 334 332 332 334 334 333 334 334 333 332 331 330 329 329 329 328 328 328 328 327 327 326 327 326 327 328 330 332
334 334 334 332 332 330 330 331 331 332 331 330 331 331 332 331 333 334 333 334 334 334 334 334 335 335 335 335 334 333 333 332 332 333 334 333 333 333 334 333 334 335 333 331 331 330 329 328 329 329 329 329 331 331 330 330 329 327 327 327 328 330
335 334 332 331 331 330 330 330 330 330 329 329 328 329 330 330 331 331 331 332 333 333 333 333 334 334 334 334 333 333 332 332 332 334 334 333 333 333 334 333 334 334 333 332 331 331 330 329 330 330 330 330 331 330 329 330 330 329 328 328 328 328
335 333 331 331 332 331 330 329 329 328 327 328 327 327 327 328 327 328 329 330 332 332 332 332 332 332 333 332 332 332 331 331 333 334 333 333 334 333 334 333 333 334 333 332 331 331 330 329 330 330 331 331 331 330 329 330 330 330 329 328 328 329
334 333 332 332 331 329 328 326 326 325 324 326 326 325 326 326 327 327 328 328 330 330 330 330 330 330 330 330 330 330 331 331 332 333 332 332 333 333 333 332 332 333 333 332 332 331 331 330 330 330 330 331 331 330 330 330 329 329 329 329 329 328
335 333 331 331 328 328 327 325 325 324 323 325 325 325 326 326 326 326 327 327 327 327 327 327 327 328 328 327 328 329 329 329 330 331 331 331 332 332 333 332 332 333 332 333 332 332 332 332 331 330 331 330 331 331 331 330 328 325 326 328 329 328
334 332 331 329 328 327 327 325 326 324 322 323 324 325 327 326 326 326 325 325 324 324 324 324 325 326 325 325 324 326 327 328 328 329 330 331 331 331 331 331 331 332 332 332 332 332 332 331 331 330 330 330 330 331 330 330 328 324 323 326 327 327
332 331 329 328 328 327 326 324 324 324 323 323 323 325 326 325 325 324 323 323 324 324 324 323 324 325 324 324 324 324 325 326 328 328 329 330 331 331 331 331 331 332 332 331 331 331 331 331 330 330 330 330 331 332 331 329 328 326 324 323 324 325
330 329 328 327 326 325 324 324 323 323 323 325 325 326 326 325 324 323 323 324 324 325 324 323 323 323 324 323 323 323 324 325 326 327 328 329 329 330 330 330 330 330 330 330 330 330 330 331 330 329 330 331 333 335 333 331 329 328 327 326 325 325
328 328 328 326 325 325 324 324 323 323 324 326 325 323 323 323 323 323 323 323 324 325 324 323 323 323 322 322 321 322 322 322 323 324 325 325 326 328 328 329 329 329 329 329 329 330 331 331 330 330 331 332 333 334 335 335 332 330 330 329 329 329
328 327 327 326 325 325 325 324 324 325 323 323 322 322 323 322 322 322 322 323 323 324 323 323 323 322 322 321 321 321 320 321 321 321 322 322 323 324 325 326 327 329 329 329 329 330 330 330 330 330 330 331 332 333 335 333 333 333 330 326 327 329
328 327 326 326 325 324 325 324 324 323 321 321 322 323 322 321 321 321 322 323 323 324 324 323 322 322 322 322 321 321 319 318 319 319 319 319 320 319 320 321 323 325 327 328 328 328 328 328 328 328 329 330 330 331 332 331 333 334 332 328 326 328
328 327 326 327 324 322 323 323 322 321 320 321 323 323 322 321 321 321 322 322 322 323 322 322 321 321 322 321 320 319 317 316 315 315 315 316 317 317 317 318 319 320 322 324 326 327 328 328 328 328 328 328 327 327 328 329 331 332 333 332 329 327
329 327 327 326 322 322 322 321 320 319 319 322 323 322 322 321 320 321 322 322 321 321 321 320 320 320 319 318 317 316 316 316 315 314 314 315 316 318 319 318 319 318 318 320 321 323 325 325 326 327 327 327 326 325 325 325 326 328 331 334 332 330
329 327 327 325 321 322 322 320 320 318 319 323 322 322 322 320 320 321 321 321 321 321 320 318 317 317 316 316 316 315 315 315 315 315 315 316 317 318 319 319 319 319 318 318 318 318 320 319 319 322 323 324 326 326 325 325 325 325 328 332 333 333
329 328 327 323 321 323 321 320 320 319 321 322 321 321 320 320 320 321 321 321 321 320 319 317 316 317 316 316 316 316 315 315 316 317 317 317 317 318 320 319 319 319 319 319 318 317 318 318 315 317 319 319 321 323 325 326 326 325 325 328 330 331
329 329 327 323 322 323 321 321 321 320 321 322 320 320 320 320 320 321 321 320 320 320 319 317 317 317 317 318 317 316 316 316 317 317 317 318 318 319 319 319 319 319 319 320 319 318 320 320 316 315 316 317 317 319 319 321 322 321 321 323 324 324
330 329 327 323 322 324 322 322 321 320 321 320 319 320 320 320 320 320 320 320 320 320 319 318 318 318 318 318 317 316 316 317 316 316 316 317 317 317 317 318 318 318 318 318 317 317 318 319 319 317 316 316 317 317 316 316 317 317 318 318 319 321
329 330 328 324 323 324 323 322 321 320 321 319 319 320 320 320 320 320 320 320 320 320 320 319 318 319 319 318 317 317 317 316 316 316 315 315 316 316 316 317 317 318 317 316 317 317 316 315 317 318 317 316 316 316 316 316 316 317 317 317 317 319
330 331 328 324 323 324 323 322 321 320 320 320 320 321 320 320 320 320 320 319 320 320 320 319 319 320 318 319 318 318 317 317 316 315 315 315 315 316 316 316 316 317 317 317 316 315 315 314 314 315 317 316 315 315 315 315 315 316 317 317 316 316
330 331 328 325 323 324 323 323 323 321 321 321 320 321 321 320 320 320 320 319 319 319 320 319 320 320 318 318 319 318 317 316 315 316 316 315 314 314 315 316 315 316 316 315 315 314 314 313 313 313 315 316 315 313 313 314 314 314 315 315 315 315
329 330 329 325 324 323 323 324 324 321 321 321 320 320 321 321 320 320 320 319 318 319 320 319 319 320 319 319 320 319 318 317 316 316 316 315 315 314 314 316 315 315 316 316 317 317 315 314 313 312 313 315 314 311 312 314 312 313 314 314 314 315
328 329 329 327 324 324 324 324 324 323 322 322 321 320 319 320 320 319 319 320 319 318 318 319 319 319 320 319 320 320 319 318 316 316 316 315 316 315 313 315 316 315 316 317 316 316 315 315 315 313 312 313 313 310 310 312 311 311 312 311 312 313

ECMWFFLT2_925_thetae_042.txt.gz
Theta_e
333 333 333 334 336 336 335 332 332 335 336 334 333 332 333 333 333 333 334 334 334 335 336 338 338 338 337 335 335 335 335 334 333 332 332 332 332 332 332 330 330 330 330 329 327 327 327 325 325 326 326 327 326 328 333 336 334 333 333 333 332 332
330 331 331 334 336 336 335 332 332 335 335 333 332 332 332 333 333 333 334 334 334 335 335 336 337 337 337 336 335 335 335 335 333 333 333 332 332 332 331 329 329 327 326 326 326 326 326 325 324 325 326 327 327 330 333 335 335 333 333 332 331 331
329 330 330 334 337 336 335 332 332 334 334 332 331 331 331 332 333 334 335 334 334 335 335 335 336 337 337 336 335 335 335 334 333 333 332 332 331 331 330 328 326 324 321 322 323 324 325 325 324 324 325 327 328 331 332 334 335 333 332 332 331 330
328 329 330 334 335 335 334 332 332 332 332 331 330 331 331 333 335 336 335 334 335 335 335 336 336 337 337 337 336 335 334 333 333 332 333 331 331 330 329 327 323 322 321 321 321 322 324 327 327 325 325 325 329 331 330 333 335 333 333 331 330 329
327 328 329 332 334 333 331 331 331 331 331 331 332 332 332 333 335 336 336 335 335 336 336 337 337 336 336 337 337 336 334 334 333 333 333 331 331 330 329 326 323 326 326 322 322 324 326 329 329 328 327 325 329 330 327 330 334 334 333 331 330 329
327 328 329 330 331 330 330 330 330 331 331 332 333 333 333 333 334 335 335 335 335 336 336 337 337 337 336 337 337 336 335 335 334 333 332 332 331 329 329 328 326 329 330 327 327 329 329 330 330 330 329 327 328 328 325 329 334 334 332 331 330 329
329 329 330 329 330 330 329 329 330 331 331 332 334 333 333 333 334 334 334 335 335 336 336 336 337 337 337 337 337 336 335 335 334 333 333 333 332 330 331 331 330 331 332 330 330 331 331 331 330 330 330 328 326 326 326 329 334 334 332 331 329 329
332 331 332 332 331 330 329 329 329 330 331 331 333 333 333 333 334 334 334 335 335 335 336 335 335 336 337 337 336 336 335 335 334 334 333 333 333 333 334 333 333 332 332 331 331 331 331 331 330 330 330 330 328 327 327 330 334 334 332 332 331 330
336 335 335 334 333 332 331 330 330 331 332 332 333 334 334 334 334 334 335 335 335 335 335 336 334 335 336 336 336 336 335 335 335 334 333 333 333 334 335 334 334 333 333 332 331 330 330 330 330 329 330 330 329 328 328 330 333 333 333 332 332 332
339 338 337 337 336 336 334 331 331 333 334 334 336 336 336 335 335 335 336 336 336 335 335 335 335 335 336 336 336 335 335 335 335 334 334 334 333 333 334 334 334 333 334 333 332 330 330 330 329 328 329 330 330 329 328 329 331 332 332 333 333 333
341 339 339 340 340 338 336 334 335 337 337 337 336 336 336 336 336 336 336 336 336 335 335 334 335 336 336 336 335 334 334 335 335 334 334 334 333 333 333 333 334 334 333 333 331 330 330 330 329 328 328 329 329 329 329 328 329 331 332 333 333 334
341 341 341 341 341 340 338 337 338 338 338 338 336 336 336 336 337 336 336 336 336 336 335 334 335 336 336 336 335 334 334 335 334 334 334 333 333 333 333 334 334 333 334 333 331 330 330 330 329 328 328 327 327 328 329 328 328 331 332 333 333 333
342 341 341 340 340 340 339 339 339 338 338 337 336 335 335 336 337 336 336 336 336 336 336 335 335 335 336 336 335 334 334 333 333 333 333 333 333 332 333 333 333 333 333 332 331 332 331 330 329 329 329 328 327 327 327 327 328 332 333 333 333 333
342 341 340 339 339 338 338 338 338 337 337 335 335 334 335 335 335 335 336 336 336 336 336 335 335 334 335 335 334 334 333 332 332 333 332 332 332 332 333 333 333 334 333 332 332 332 331 331 329 328 329 328 328 328 327 326 327 331 333 333 333 333
340 339 338 338 338 337 337 337 336 335 335 334 333 333 334 334 334 335 335 335 336 336 336 335 335 334 334 335 334 333 333 333 333 333 332 332 332 332 333 333 333 334 333 332 332 332 331 330 329 329 329 329 328 328 328 327 327 329 332 333 333 332
338 337 336 335 336 335 335 335 334 333 332 332 331 332 333 333 334 335 335 335 335 335 335 335 334 334 334 334 334 333 333 333 333 333 332 332 333 333 333 333 333 333 333 332 332 331 330 330 329 329 329 328 329 329 329 328 328 328 329 332 333 332
337 336 336 335 335 334 333 333 333 331 330 330 330 331 332 332 334 334 333 334 333 334 334 334 334 334 333 333 334 333 333 333 333 333 332 332 333 333 332 332 333 333 333 333 332 331 330 330 329 329 329 328 328 328 329 329 328 328 328 330 332 332
335 334 333 333 333 333 332 332 331 330 330 329 331 332 332 331 332 332 332 332 332 332 332 332 332 332 332 331 331 332 332 332 332 331 332 332 333 332 332 331 333 333 332 333 333 331 330 330 329 329 329 329 329 329 329 329 329 329 329 329 330 330
333 332 332 331 332 332 332 331 332 332 331 330 331 332 331 331 331 331 331 331 331 331 330 330 330 330 329 330 329 329 330 331 331 331 331 332 332 332 331 330 331 332 332 333 333 331 331 330 330 329 329 329 329 329 330 329 329 328 327 328 328 328
332 331 331 331 331 331 330 330 331 331 331 330 331 331 332 331 331 330 330 329 329 328 329 329 328 326 326 327 327 327 328 329 330 330 330 331 331 332 332 331 331 332 332 332 332 331 331 331 330 330 329 329 330 330 330 329 329 328 327 326 326 326
330 330 330 330 329 328 328 327 327 327 328 328 329 329 329 329 328 327 327 327 326 326 327 326 325 324 324 326 326 326 327 328 329 329 329 329 330 331 331 331 331 331 331 331 331 331 331 331 331 330 330 330 330 330 330 329 330 329 328 326 325 324
328 329 328 327 327 327 326 325 324 325 326 326 326 326 325 325 324 324 323 322 322 323 324 323 323 323 324 325 325 326 327 328 329 329 329 329 329 330 330 330 330 330 330 330 330 330 331 330 330 330 329 330 331 331 330 329 329 329 328 326 325 324
327 327 326 324 323 324 325 324 324 325 326 325 324 324 323 322 322 322 321 321 320 321 322 323 322 322 324 325 325 326 327 327 328 328 327 328 328 329 330 330 330 330 330 330 329 329 330 330 330 329 329 330 332 333 333 330 329 329 328 328 327 326
327 327 326 324 322 322 323 324 324 325 325 324 323 322 321 321 321 321 322 322 322 322 322 322 322 322 323 323 322 323 324 325 327 327 327 326 327 328 329 329 329 329 330 329 329 329 330 329 330 330 329 329 329 331 335 332 329 329 329 328 329 328
329 328 327 324 323 323 323 324 325 325 325 323 322 321 320 321 322 322 322 322 322 321 322 321 321 321 321 320 319 320 322 323 326 327 325 323 324 326 327 328 328 329 329 329 329 328 329 329 330 330 329 329 330 332 335 331 329 330 328 327 327 327
329 326 325 324 324 323 322 323 325 324 323 322 321 321 321 322 323 322 322 322 321 321 321 320 320 320 319 318 317 317 318 320 323 323 321 321 321 322 325 327 328 328 329 329 328 328 329 329 329 329 328 329 330 331 332 329 330 331 329 327 326 326
328 327 326 326 326 324 322 323 324 324 323 320 321 321 320 322 323 322 322 322 321 320 320 321 320 319 316 315 315 315 315 316 317 318 318 319 320 321 323 325 326 327 327 327 327 327 327 327 328 328 328 329 328 328 328 328 330 332 333 331 328 326
329 328 327 326 326 324 323 323 323 323 321 319 321 321 321 322 323 322 322 321 320 319 318 319 319 318 315 314 314 314 313 312 313 315 316 316 317 319 320 321 322 325 326 326 325 325 326 326 326 326 327 327 326 326 326 326 327 328 332 334 331 328
330 326 325 325 324 324 324 324 324 321 320 320 321 321 321 322 322 322 321 319 319 318 316 316 316 316 315 314 314 314 312 311 311 312 314 315 316 317 317 318 320 322 323 322 321 321 321 321 323 324 325 325 325 325 324 324 324 324 328 331 332 329
330 324 323 324 324 324 324 324 322 319 319 320 321 321 321 322 321 320 319 319 319 317 314 314 315 314 314 314 314 314 314 314 314 313 313 315 315 315 314 316 318 319 319 318 317 317 317 317 319 321 323 324 324 324 321 319 319 321 323 323 325 322
328 324 324 323 323 324 323 321 319 318 320 320 320 321 320 320 321 320 319 318 318 315 314 313 314 314 314 315 316 316 316 316 317 315 315 316 316 316 315 315 316 317 316 315 315 316 316 316 317 317 319 319 319 318 317 316 315 317 318 319 321 319
327 324 324 323 323 322 321 318 318 319 321 320 321 320 319 319 320 319 318 317 316 315 315 314 313 313 313 315 316 316 316 317 318 316 315 315 315 315 314 313 315 317 317 315 315 316 316 315 316 316 315 315 316 316 316 316 316 315 316 316 318 316
327 325 324 324 323 321 318 318 320 322 321 320 320 319 318 320 320 319 317 315 316 315 316 314 313 312 312 313 315 316 316 316 317 316 314 314 312 311 309 308 310 315 318 317 316 315 315 315 314 315 314 314 315 315 316 316 315 315 314 313 313 313
327 326 325 324 322 319 317 319 322 322 321 321 319 317 319 321 319 318 316 314 315 315 314 313 311 310 311 312 313 314 315 316 316 315 315 315 314 311 309 306 306 308 312 315 317 316 315 314 314 313 313 314 314 314 314 315 314 313 313 313 313 313
327 325 324 323 320 318 319 320 321 322 321 321 319 317 319 321 319 318 316 315 314 313 311 311 310 310 312 313 313 312 311 313 314 314 315 315 315 314 310 306 305 305 305 308 313 316 315 314 314 312 311 312 314 313 312 312 313 313 312 312 311 312
326 324 322 323 321 318 319 320 321 321 321 320 319 316 319 320 318 318 318 316 315 313 311 312 311 311 314 315 314 313 309 308 310 312 315 315 315 315 313 309 307 308 308 307 308 313 315 314 313 312 310 310 311 310 308 308 311 312 312 311 310 310
326 324 322 323 322 318 318 320 322 322 321 320 318 316 317 318 318 318 318 318 317 316 314 314 313 312 314 315 314 313 310 308 308 310 314 315 314 314 314 312 310 310 311 311 309 310 314 314 313 312 310 308 307 307 306 306 309 311 310 309 309 309

ECMWFFLT2_925_thetae_045.txt.gz
Theta_e
334 337 337 336 337 338 339 339 338 337 336 334 333 334 335 334 334 335 336 335 335 336 337 338 338 337 335 334 333 332 331 330 330 331 331 330 330 330 330 329 328 328 327 327 326 326 325 325 324 324 324 326 329 334 335 333 333 332 332 332 332 331
333 337 336 336 337 339 340 339 338 336 335 334 334 335 335 335 335 335 335 334 335 335 336 337 338 337 336 334 333 333 333 332 331 331 331 331 330 329 328 328 326 326 325 324 325 326 325 325 324 324 323 326 330 333 335 334 332 332 332 332 332 331
337 336 335 335 336 339 339 338 337 336 335 335 336 336 334 334 334 333 334 334 334 335 336 337 337 337 337 335 334 333 334 333 332 331 331 331 330 330 327 325 324 324 324 322 322 323 324 324 324 324 324 326 330 332 334 334 333 332 332 332 332 330
338 336 333 334 335 338 338 337 337 337 336 335 335 334 332 332 332 332 334 334 335 335 336 336 337 337 337 336 335 334 333 333 333 332 332 331 330 330 328 325 323 323 323 321 321 321 323 325 325 325 326 326 328 330 332 335 333 332 332 332 331 329
338 337 332 332 334 337 337 337 338 337 334 333 333 331 330 330 331 332 333 333 334 335 336 336 336 337 336 336 335 334 333 334 333 333 333 331 331 330 328 326 323 325 325 323 321 322 324 327 327 328 328 327 328 328 328 334 334 332 333 332 332 330
339 338 332 330 333 336 336 336 336 335 333 332 330 330 330 330 331 334 334 334 335 335 336 336 336 336 336 336 335 335 335 334 333 333 333 332 331 330 329 326 324 328 330 327 325 325 327 329 329 329 330 328 329 328 325 330 335 333 332 332 331 329
340 339 334 331 333 334 335 334 333 333 331 330 330 331 331 332 333 334 335 335 335 335 335 336 336 335 336 335 335 336 336 336 334 334 333 332 332 330 328 327 327 330 331 330 329 329 329 330 330 329 329 329 328 327 323 327 334 334 332 332 331 330
340 341 336 332 333 333 333 332 331 331 331 331 331 332 333 333 333 334 335 335 335 335 335 336 336 335 335 335 335 336 337 336 336 335 334 333 332 330 329 330 330 331 332 331 330 330 330 330 330 329 329 329 328 327 325 325 331 334 333 331 331 330
339 339 335 331 331 331 331 330 330 330 331 332 332 333 333 333 333 333 334 334 335 335 335 335 335 335 335 335 335 336 336 336 336 335 335 334 333 332 330 331 332 333 333 332 331 331 330 330 330 329 328 329 329 329 329 327 329 334 333 331 331 330
337 334 330 329 329 329 329 329 329 330 331 332 332 333 333 333 333 333 334 334 335 335 335 335 334 335 335 335 336 336 336 335 336 335 335 335 334 333 332 332 332 333 333 333 333 332 330 330 330 328 328 329 329 329 330 329 329 332 333 331 331 331
338 334 330 329 328 329 329 329 329 329 331 332 332 333 334 335 334 334 334 334 335 335 335 335 335 334 334 335 336 336 335 335 335 335 335 335 334 334 333 333 333 333 333 333 334 332 330 330 330 328 328 328 328 329 329 329 329 330 332 331 331 331
338 336 333 332 331 332 333 334 332 330 332 334 334 336 337 337 336 335 335 335 335 335 336 336 335 334 335 335 336 335 335 335 335 335 334 334 334 334 333 333 333 333 333 333 333 332 331 331 330 329 328 327 327 328 328 329 328 329 332 331 330 331
339 338 336 335 335 336 337 337 335 333 334 336 337 338 337 337 336 336 336 336 336 336 335 335 334 335 335 335 335 336 335 335 334 333 333 333 333 333 333 333 333 333 333 333 332 332 332 332 330 329 328 328 327 327 327 328 328 328 330 330 331 331
340 339 339 338 338 339 339 338 337 336 336 338 338 337 336 336 335 336 336 336 335 336 335 334 334 334 334 334 335 335 334 334 333 332 333 333 332 332 332 332 333 333 332 332 332 332 332 331 330 329 328 328 328 327 327 326 327 327 329 330 332 331
341 341 340 340 340 340 340 339 338 337 337 336 336 335 335 335 334 335 335 335 334 334 335 334 334 334 334 334 334 334 333 333 332 332 332 332 332 332 332 333 332 333 333 332 332 331 331 330 329 329 329 328 328 328 327 327 327 327 328 330 332 332
341 341 341 341 340 340 339 339 337 336 335 334 334 334 334 334 334 334 334 334 333 333 334 334 334 334 333 333 334 334 333 333 332 333 333 332 332 332 332 333 332 333 333 332 332 331 330 329 329 328 329 329 328 328 328 327 326 327 330 330 332 332
341 342 341 341 340 339 338 337 335 334 333 333 333 333 333 333 334 334 334 335 334 333 334 334 334 333 333 333 333 333 333 333 332 333 333 332 332 332 332 333 332 333 333 332 332 331 330 329 329 328 328 328 328 329 329 328 327 328 330 331 332 332
342 342 340 339 338 337 336 335 334 333 332 332 332 332 333 334 334 333 333 333 333 333 333 333 333 334 333 333 332 332 333 332 332 332 332 331 332 332 332 332 332 332 333 333 332 332 331 330 329 328 328 328 328 329 329 328 328 328 329 331 332 331
341 340 338 336 336 336 335 334 333 332 331 330 331 332 333 333 332 332 332 331 332 331 331 331 331 332 331 331 331 331 331 331 331 331 331 331 332 332 332 332 331 332 332 332 332 332 331 330 329 329 329 328 329 329 329 328 328 328 329 330 330 330
340 338 337 335 335 334 334 333 332 332 331 330 331 332 332 332 331 331 330 330 330 329 329 328 327 327 328 330 329 329 329 329 330 330 330 331 331 332 332 331 331 331 332 331 332 332 331 331 330 329 329 329 329 329 329 328 328 328 328 328 328 328
338 337 335 334 333 333 333 332 332 332 331 330 330 331 330 330 330 330 328 327 327 328 328 326 325 324 326 328 328 327 328 328 329 329 330 330 330 331 331 330 330 330 330 330 331 330 331 331 329 329 329 329 329 330 330 330 329 328 327 327 326 327
336 334 333 332 332 332 332 332 332 331 331 330 330 331 329 328 327 327 326 325 325 326 326 324 323 323 324 326 327 327 328 328 328 329 329 329 329 330 331 330 329 329 328 329 329 329 330 330 330 329 328 328 330 330 329 330 330 329 328 327 325 325
334 332 332 332 331 331 331 330 329 328 329 329 329 329 327 325 324 324 322 321 323 324 324 322 322 322 323 326 326 326 327 328 328 328 328 329 329 330 330 329 328 328 328 328 328 328 329 330 330 329 328 329 330 330 331 329 330 330 329 328 326 325
332 331 331 331 330 329 328 327 326 327 327 327 327 326 324 323 322 322 320 320 321 322 322 322 322 322 323 325 325 326 327 327 327 327 327 328 328 329 330 329 328 329 328 328 328 328 328 328 329 329 328 328 326 330 334 329 327 329 329 329 329 328
331 330 331 329 327 327 325 325 325 325 325 324 324 323 322 323 322 321 321 321 321 321 322 322 321 322 323 323 323 324 325 325 325 325 326 326 328 328 329 329 328 329 328 328 328 327 328 328 329 328 327 327 327 332 334 328 325 328 328 328 328 327
329 329 329 327 326 325 324 324 324 323 323 322 322 322 322 322 321 321 321 321 321 320 321 320 320 321 320 320 321 321 324 326 324 323 323 324 325 327 327 328 328 328 328 328 327 327 328 329 329 329 327 328 329 331 330 326 326 327 327 327 326 326
328 328 326 325 325 324 324 323 324 323 322 322 322 321 321 322 321 321 321 320 320 320 320 319 318 317 317 317 317 319 322 324 322 320 320 321 323 325 326 327 327 328 327 328 327 327 328 328 328 329 328 327 327 327 327 327 328 328 330 329 326 326
327 326 325 324 322 323 323 323 324 323 323 322 320 320 322 322 321 321 321 320 320 320 319 318 316 315 315 315 314 315 317 319 319 318 318 319 320 322 323 325 326 326 325 325 325 326 326 327 328 328 328 327 326 325 325 326 326 327 331 332 329 325
325 325 326 325 323 322 323 323 324 323 323 322 318 318 322 322 321 322 321 320 319 318 318 318 317 315 314 314 312 310 311 314 316 315 316 317 318 319 321 322 324 324 322 321 321 322 322 323 325 326 327 325 324 323 322 323 324 324 326 329 329 325
325 326 326 325 324 323 323 324 324 323 322 320 317 319 322 322 322 322 320 319 317 316 315 316 315 314 314 313 311 309 310 312 313 313 314 315 315 317 318 320 321 320 319 318 317 318 318 320 322 324 324 324 323 320 318 318 320 320 319 321 323 320
327 327 326 325 325 324 323 323 323 323 322 319 317 320 322 322 321 321 319 318 316 315 314 315 315 314 314 314 312 312 312 313 313 312 312 313 313 314 317 317 317 316 316 317 317 317 317 318 320 321 321 320 319 317 316 315 316 316 316 317 320 318
328 327 327 326 326 325 323 323 322 323 321 318 317 319 321 321 321 319 318 317 315 313 314 314 314 315 315 314 314 314 314 313 312 311 309 309 309 311 314 316 315 315 314 315 316 316 316 316 316 317 317 317 316 316 315 315 314 315 314 315 316 315
327 328 328 327 326 325 323 323 322 322 321 318 317 319 320 320 320 318 318 317 315 313 313 313 314 315 315 315 314 314 315 313 312 312 310 308 307 307 310 313 315 315 314 314 315 315 315 315 315 315 315 315 315 315 315 314 314 313 313 312 312 312
327 328 327 326 325 324 323 323 323 322 319 317 318 319 319 318 317 316 317 317 314 312 313 313 313 314 315 315 314 314 314 314 313 313 313 311 309 307 306 309 312 314 315 315 314 314 314 313 313 314 314 314 314 314 314 313 313 312 312 311 311 311
327 326 325 323 322 322 323 323 322 320 318 317 318 319 318 315 314 315 316 315 313 312 312 312 312 313 313 314 315 314 313 313 312 312 313 313 312 309 305 305 306 310 314 316 314 314 313 312 311 312 313 313 312 312 312 312 311 311 311 310 310 310
326 325 323 322 321 320 321 322 320 319 318 318 319 319 318 315 314 316 315 313 312 312 311 311 311 311 312 313 313 312 313 314 313 312 313 314 314 312 308 306 305 306 310 314 314 314 313 312 310 309 310 309 308 309 310 311 310 309 309 308 308 309
323 322 322 322 321 320 320 320 319 319 319 319 320 319 317 315 317 318 315 312 311 311 310 310 309 310 311 312 313 312 311 312 313 312 313 314 314 314 311 309 308 307 308 311 313 313 313 312 310 308 307 307 306 307 308 309 308 307 307 307 307 307

ECMWFFLT2_925_thetae_051.txt.gz
Theta_e
340 341 339 339 339 337 336 335 336 337 338 337 336 335 335 337 337 336 337 336 335 335 334 331 328 327 326 326 326 328 330 330 330 329 329 329 328 328 329 329 329 329 328 327 326 325 324 324 325 328 331 333 332 332 332 332 333 332 333 332 332 332
340 341 341 340 340 337 336 337 337 337 338 337 336 337 337 337 337 336 337 337 337 337 336 334 332 330 329 329 328 328 331 331 331 330 330 330 329 330 329 329 329 329 328 326 326 325 325 324 325 327 331 333 332 332 332 332 332 333 333 332 333 331
339 340 341 340 338 338 337 338 339 339 338 338 337 337 337 336 337 336 336 336 337 337 337 337 335 333 332 331 330 330 331 331 331 331 331 330 329 329 329 329 328 327 325 325 325 325 325 325 325 326 330 333 333 332 332 332 332 333 332 332 333 331
339 339 339 337 337 338 340 340 340 339 338 338 338 336 336 336 336 335 335 336 336 336 336 336 336 334 334 333 332 332 331 331 332 331 330 330 329 328 326 326 325 323 323 323 323 324 325 326 325 326 328 332 333 333 332 331 331 332 332 331 332 331
338 337 335 335 336 337 339 340 339 339 338 337 336 334 334 333 333 334 333 335 336 336 336 336 336 336 335 335 334 334 333 333 333 331 330 330 330 330 327 325 323 325 324 322 322 323 326 327 327 327 327 330 333 333 332 331 331 332 332 332 332 331
337 336 333 334 336 335 338 340 339 338 337 336 335 333 334 334 333 333 334 334 334 335 335 336 337 337 337 335 334 335 334 334 333 332 331 331 331 329 328 325 324 328 329 325 324 326 328 329 328 328 327 328 332 333 333 331 331 332 332 332 332 331
337 337 336 336 336 337 337 337 337 335 335 335 333 332 333 332 332 333 335 335 334 334 334 336 337 338 337 336 334 335 334 333 333 333 331 331 330 330 329 326 326 330 331 329 328 329 329 329 329 328 327 328 330 332 333 333 332 332 332 332 332 331
338 338 337 337 337 337 336 335 336 334 333 333 332 332 332 332 332 334 335 335 335 335 335 336 336 337 337 336 335 335 335 333 334 333 333 332 331 331 330 327 328 331 332 331 331 331 330 329 328 328 327 328 329 330 331 333 333 332 332 331 331 331
338 338 337 337 337 337 336 336 337 334 334 333 332 333 332 332 333 334 334 335 335 335 335 335 336 336 336 335 335 335 333 333 334 333 333 333 332 332 331 328 330 331 332 332 332 331 331 330 329 328 327 328 329 329 328 330 333 333 332 332 331 331
338 338 337 338 338 337 338 338 338 336 335 333 332 332 332 333 333 333 333 333 335 335 335 335 336 336 335 335 334 335 334 333 334 334 333 333 332 332 331 330 331 332 333 332 332 332 331 331 330 328 328 327 328 328 326 328 331 333 333 332 331 331
338 338 337 338 336 337 338 338 338 337 335 333 332 333 333 333 333 333 333 333 334 334 334 335 335 335 335 335 334 335 334 333 334 334 334 334 333 333 332 332 332 333 333 333 333 332 331 332 331 328 328 327 327 327 327 328 329 330 332 332 332 331
337 338 337 337 336 336 337 337 337 336 334 332 333 333 333 333 333 333 333 333 334 334 334 334 335 335 335 335 335 335 335 333 333 334 334 334 333 334 333 333 333 333 333 333 334 333 332 333 332 329 328 327 327 327 328 328 328 328 329 330 331 331
336 337 337 337 336 337 337 337 335 333 332 332 333 333 333 334 335 335 334 334 335 335 335 335 335 335 334 335 334 335 334 332 333 334 333 333 333 333 334 334 333 333 333 333 334 333 332 332 331 330 329 327 327 327 328 327 328 328 327 328 329 331
336 337 337 337 337 337 336 335 333 330 331 333 333 334 335 335 335 335 335 335 335 335 335 335 334 334 334 335 334 334 334 333 333 333 332 332 333 333 333 334 333 333 333 334 334 333 333 333 332 331 330 328 327 326 327 327 327 327 328 328 327 328
334 336 336 336 336 336 334 332 331 330 332 335 335 335 336 335 335 335 335 335 335 335 335 334 334 334 334 334 334 334 334 333 332 332 331 332 332 333 333 333 333 333 333 333 333 332 332 333 332 331 329 328 327 327 326 326 327 326 327 327 327 327
331 335 336 336 335 334 333 333 333 333 335 336 335 336 335 335 334 335 335 335 334 334 334 334 334 334 334 334 334 334 333 332 332 332 332 332 332 333 332 332 332 332 333 333 333 332 332 332 332 330 329 328 328 328 327 326 326 326 326 327 327 327
332 334 336 337 335 334 335 335 335 336 336 335 335 335 333 333 334 334 334 334 333 333 333 334 333 333 333 333 333 333 333 332 332 332 332 331 331 332 332 332 332 332 333 333 333 332 332 331 330 329 328 328 328 327 327 327 326 326 326 326 326 327
332 335 336 337 337 336 336 336 336 336 335 334 333 332 332 333 333 333 334 333 333 333 333 333 333 332 332 332 332 332 332 332 331 331 331 331 331 331 331 331 332 331 332 332 332 332 331 330 329 329 328 328 328 328 327 327 327 326 326 326 326 327
332 335 336 337 338 337 336 336 335 334 332 331 332 332 332 332 332 332 332 332 332 332 332 332 332 331 331 331 331 331 332 331 331 331 331 331 331 330 330 330 331 331 331 331 332 331 331 330 329 330 330 329 329 329 328 328 328 327 327 328 328 329
335 335 333 334 337 337 336 335 334 332 330 331 332 331 331 331 331 331 330 330 330 330 330 330 330 330 330 330 329 329 330 330 330 330 330 330 330 330 330 330 330 331 330 330 331 331 331 331 330 331 330 330 330 330 329 328 328 328 327 328 330 330
335 333 329 330 336 337 336 335 332 331 331 332 331 330 329 329 329 329 328 328 328 328 327 327 327 328 328 327 327 327 327 328 329 329 330 329 329 329 330 329 329 330 330 329 330 330 329 330 330 331 331 330 330 330 330 329 328 328 328 328 328 329
335 334 329 329 336 337 335 334 331 330 331 331 330 329 327 327 327 326 326 326 326 326 325 323 325 326 326 325 324 324 324 326 328 328 329 328 328 328 328 329 329 329 329 328 330 329 329 329 330 330 331 331 330 330 330 330 330 329 328 327 327 327
336 336 331 330 336 336 334 332 330 329 330 330 329 328 326 326 326 325 324 324 324 324 324 322 323 324 324 323 322 322 323 325 326 326 327 327 328 328 328 329 329 328 328 328 328 328 328 329 329 329 329 329 329 330 330 330 330 330 328 327 327 328
337 335 332 333 336 335 332 331 329 329 329 329 329 328 327 326 326 325 324 324 324 323 322 322 321 321 322 322 322 323 323 323 324 325 326 327 328 328 328 328 328 327 327 328 328 328 328 327 328 328 328 328 328 329 330 330 331 331 330 329 329 329
337 335 334 335 335 333 331 330 329 329 329 329 329 328 327 326 325 324 322 322 323 323 321 321 320 321 321 321 322 323 323 323 323 323 324 326 327 328 328 327 327 327 326 327 328 328 327 327 327 327 327 328 328 328 329 330 331 330 329 330 330 329
337 336 335 335 334 331 330 329 329 329 328 328 327 326 325 324 322 321 320 320 321 321 321 320 320 320 320 321 321 322 323 323 323 322 322 324 326 327 328 328 327 327 326 327 328 328 328 327 327 327 327 327 327 329 329 329 329 329 329 329 328 327
337 336 335 334 332 331 329 328 327 327 328 328 326 324 323 322 320 320 320 320 321 321 320 320 320 319 319 319 319 320 323 323 322 321 321 323 325 326 327 327 327 327 327 327 327 327 328 327 327 327 327 327 326 327 327 327 328 329 329 327 324 323
336 334 333 332 331 330 329 327 326 326 326 327 325 323 322 321 320 320 320 320 320 319 319 319 318 317 317 316 316 319 323 323 321 319 319 321 323 324 325 325 324 324 324 326 327 327 328 328 328 328 327 326 324 324 325 325 326 328 329 327 323 321
334 332 331 330 330 329 327 326 325 325 325 325 324 323 321 320 319 319 319 318 318 318 317 317 316 316 315 314 315 320 322 321 317 317 317 319 321 323 324 322 320 320 319 321 323 326 327 327 327 327 326 325 323 322 322 322 322 325 327 326 322 322
331 330 328 328 328 328 326 325 324 324 324 323 322 322 321 320 319 319 318 318 318 318 316 316 315 313 312 310 312 316 317 315 313 314 315 317 319 321 321 319 317 317 317 317 320 324 326 326 326 325 324 323 323 322 321 321 322 324 324 323 321 320
327 327 326 326 326 326 325 324 324 323 323 322 322 321 320 320 319 319 319 319 318 317 316 315 313 312 309 308 309 311 311 309 310 311 314 316 318 318 318 317 316 316 316 317 319 322 323 322 322 320 318 319 319 319 319 320 321 322 323 321 320 319
324 324 323 324 325 325 324 324 323 322 322 321 321 321 320 319 320 320 319 318 316 316 315 313 313 312 310 309 308 307 307 307 307 309 311 313 315 316 316 315 315 315 315 316 316 318 318 317 317 316 315 315 315 316 316 315 316 320 322 321 319 318
323 323 323 324 325 324 324 323 323 322 322 321 321 320 319 319 319 320 319 317 314 314 314 313 313 313 312 311 309 308 308 306 306 306 308 311 313 314 314 313 314 315 314 314 314 315 315 315 315 314 314 313 313 313 312 312 313 316 319 320 319 317
322 323 324 324 324 323 322 323 322 322 322 322 321 320 319 318 318 319 320 317 313 314 314 314 314 314 314 313 311 311 310 308 307 306 306 308 311 313 314 313 314 314 313 313 313 313 313 313 313 313 312 311 311 311 310 310 311 312 315 318 318 317
324 323 324 325 324 323 322 322 322 322 322 322 321 320 318 317 317 318 319 316 313 313 314 315 315 315 314 315 314 313 313 312 312 310 307 306 308 311 313 313 313 313 312 312 310 310 311 312 312 311 311 310 310 310 309 308 309 309 311 313 316 317
324 322 325 326 325 325 324 323 323 322 323 323 322 320 318 317 316 317 318 315 312 313 314 315 315 315 315 315 315 314 314 314 314 313 312 309 307 308 309 311 312 312 312 310 308 307 307 308 309 309 309 309 309 308 307 307 307 306 306 309 312 315
323 323 326 326 325 325 325 324 324 323 323 323 322 320 319 317 317 317 317 315 312 312 313 314 314 314 315 315 314 314 314 313 314 314 314 312 311 309 308 309 311 311 312 311 308 305 305 305 306 307 308 307 307 306 306 306 306 305 304 305 308 311

ECMWFFLT2_925_thetae_057.txt.gz
Theta_e
338 337 339 338 336 334 331 331 331 333 333 330 336 340 339 338 338 337 335 334 335 336 333 332 331 329 329 328 329 329 328 328 329 329 328 327 328 328 327 326 326 326 326 326 327 327 329 330 332 332 332 332 332 333 337 337 336 335 334 334 335 332
340 339 339 338 335 332 330 332 332 333 333 332 337 338 337 337 337 336 334 334 335 336 336 335 333 331 331 330 329 329 329 329 328 328 327 328 329 328 327 327 326 326 326 326 326 328 329 329 330 332 332 332 332 334 336 336 335 335 334 334 335 331
341 339 339 338 336 333 333 335 333 334 335 336 337 336 336 338 339 337 335 336 335 335 337 337 335 336 336 332 331 331 331 330 328 328 328 329 329 328 328 327 327 326 326 326 327 330 332 330 330 331 332 332 333 334 336 336 334 334 334 335 334 331
341 338 338 339 337 337 338 337 335 336 337 336 336 336 336 338 340 338 337 337 336 336 337 337 336 336 335 333 332 331 331 331 330 329 328 330 330 329 329 328 327 326 327 327 329 332 332 332 331 331 332 333 333 334 336 336 334 334 334 334 334 331
341 339 338 339 340 339 339 338 338 338 336 335 336 336 337 339 339 338 337 335 334 336 335 335 334 334 335 334 333 332 333 333 332 332 330 332 333 331 330 330 328 326 328 330 331 332 331 333 331 331 332 333 333 334 336 335 333 334 334 333 334 331
340 340 339 340 340 339 339 339 338 338 337 336 336 336 337 338 338 337 337 334 332 334 335 334 334 334 335 335 334 334 334 334 335 333 332 334 335 332 331 333 330 328 330 331 331 332 332 332 332 330 331 332 333 333 333 334 333 334 334 333 333 331
341 340 340 339 339 339 339 339 338 338 338 338 337 336 337 336 336 337 337 334 333 334 335 334 335 335 334 334 335 334 334 334 334 333 333 335 334 332 333 332 332 331 332 331 331 332 331 331 331 331 330 330 331 331 332 333 333 333 334 334 333 330
341 340 341 340 339 339 338 338 339 338 338 338 337 337 338 336 335 337 337 335 335 336 335 334 335 335 335 334 334 335 335 334 334 334 334 335 335 334 334 333 333 333 333 332 332 332 332 331 331 330 330 330 330 330 331 332 333 333 334 334 332 330
340 339 340 341 339 339 338 337 337 337 337 337 338 339 338 336 335 337 338 336 335 335 336 335 335 335 336 336 334 335 335 335 334 334 335 335 334 334 334 335 334 334 334 333 334 332 332 332 331 330 330 330 329 329 330 331 332 333 333 333 333 331
339 339 339 340 339 338 337 337 337 337 337 338 338 339 338 336 336 336 337 337 335 335 334 334 334 333 336 337 335 336 335 335 334 335 335 334 335 334 334 336 335 334 334 333 333 333 332 332 332 329 328 329 328 328 330 330 330 331 332 333 334 332
337 338 337 337 338 336 335 337 339 338 338 339 339 338 338 338 336 335 335 335 335 334 334 334 334 333 334 335 335 336 335 335 334 335 336 335 334 335 334 335 335 335 334 334 334 333 333 332 332 330 328 329 328 329 330 329 329 329 331 333 334 334
339 338 335 337 337 334 335 338 340 339 338 339 339 338 338 338 336 335 335 335 334 333 334 334 333 333 334 334 335 335 335 335 335 335 336 335 334 335 334 334 335 334 334 335 334 333 333 332 332 332 328 329 328 328 329 329 330 329 330 332 333 334
340 338 338 339 338 336 337 339 339 339 338 338 339 338 337 336 336 336 336 336 335 334 334 334 332 331 334 335 335 335 335 335 335 334 335 335 334 334 334 333 334 333 333 334 334 333 333 332 332 333 331 330 329 329 330 328 329 329 330 331 331 333
339 338 339 339 338 338 337 338 339 338 337 338 338 337 336 336 336 336 335 336 336 335 335 335 333 333 334 335 335 335 335 335 334 334 335 335 334 334 333 333 333 333 332 333 333 332 332 332 332 333 332 332 331 331 331 329 330 330 329 331 331 332
338 337 338 338 338 338 337 338 338 338 338 338 338 336 336 336 336 336 335 335 336 335 335 334 333 335 335 335 335 334 334 334 333 333 334 334 334 334 333 333 333 333 333 333 333 331 331 332 331 331 332 334 333 331 331 330 330 331 329 330 331 331
336 336 335 336 337 336 336 336 335 336 338 336 336 336 336 335 336 336 335 334 335 335 334 334 334 334 335 335 334 333 333 333 333 334 334 334 334 333 333 333 332 333 333 334 333 331 330 330 329 331 333 334 333 332 331 330 331 331 330 331 331 332
335 335 334 335 337 335 333 333 332 334 335 334 335 336 336 335 336 336 335 334 335 335 334 333 334 334 333 335 334 333 334 334 333 334 333 333 334 333 333 333 332 332 333 334 333 331 330 330 330 331 333 334 334 334 333 332 332 331 330 331 331 331
334 335 335 334 334 332 332 333 332 332 333 333 335 336 335 335 336 336 335 335 335 335 335 334 334 334 334 335 334 334 335 334 333 333 333 332 333 333 332 333 333 333 333 333 333 332 330 330 330 330 331 333 334 334 334 334 334 333 331 331 331 331
333 335 335 332 331 332 334 334 331 331 332 333 334 334 333 333 333 335 336 336 336 335 335 335 334 334 334 334 334 334 335 334 333 333 333 333 332 332 331 332 333 333 333 332 333 333 331 331 330 329 331 332 332 332 334 333 334 333 333 333 333 333
335 335 335 334 333 334 335 335 333 333 333 332 332 332 331 330 330 331 333 334 335 335 335 335 334 335 334 333 333 334 334 334 333 333 333 332 332 332 332 333 333 333 333 332 333 333 332 332 331 330 331 331 331 332 333 333 333 333 333 334 334 334
336 335 334 335 334 335 337 336 336 335 333 331 330 330 330 329 329 329 330 331 331 332 333 333 334 334 333 332 332 333 333 333 333 333 333 332 333 333 333 333 332 333 333 333 332 331 332 333 333 333 333 332 331 332 332 332 332 332 333 333 333 333
335 335 335 335 335 336 336 336 336 334 331 329 329 329 329 329 329 330 330 329 329 329 330 330 331 331 330 330 330 331 331 331 331 331 332 332 332 333 333 333 332 332 332 332 332 332 332 334 334 333 332 333 333 332 331 330 331 332 331 332 332 331
334 335 335 334 335 334 333 335 335 332 329 329 328 328 329 328 328 328 328 329 329 329 328 328 328 327 327 328 328 328 328 328 328 329 329 329 330 331 333 333 333 332 331 331 331 331 331 332 332 331 330 331 332 332 331 330 331 331 329 330 331 330
335 335 335 334 335 334 333 335 334 331 330 329 329 329 328 327 327 327 327 328 328 328 327 327 326 325 326 327 327 327 327 327 328 328 328 328 327 328 331 332 332 332 331 330 330 331 332 332 331 330 329 330 330 330 330 330 331 331 328 329 330 330
336 335 335 334 335 335 335 335 333 331 331 330 329 328 327 327 327 326 326 326 327 326 326 326 325 325 326 328 328 328 327 328 328 327 327 327 327 327 328 328 329 330 332 331 330 331 331 331 332 331 330 330 330 330 330 329 330 330 329 330 330 329
335 335 334 332 334 336 335 333 332 331 330 329 329 328 327 327 326 325 326 326 326 326 325 325 325 325 326 327 327 327 327 327 326 327 327 326 327 327 328 328 328 329 330 331 330 330 330 331 332 332 330 330 330 329 329 329 329 329 329 330 329 328
335 335 334 334 335 336 334 333 332 330 329 328 327 328 327 327 326 325 325 325 325 325 325 325 325 325 326 326 326 327 326 325 325 325 326 326 327 327 327 328 329 329 329 330 331 331 330 330 329 330 330 331 331 330 329 329 329 330 328 328 328 328
334 335 335 336 336 335 332 331 331 329 328 327 328 328 328 327 325 324 324 324 324 324 324 324 325 325 325 325 325 325 324 324 323 323 324 325 326 326 326 327 327 328 328 329 331 330 330 330 328 328 331 331 331 331 330 328 329 330 328 328 328 327
333 335 335 335 336 333 331 330 331 329 326 326 328 327 326 325 325 325 325 323 322 323 324 324 323 323 322 322 322 321 321 322 322 321 323 324 325 325 325 325 325 326 327 327 328 329 329 329 328 328 329 329 329 329 329 328 329 330 328 328 327 326
333 334 334 334 334 332 329 328 329 328 325 326 326 325 324 324 325 325 324 323 322 322 322 322 321 321 321 320 320 320 320 322 323 322 322 322 322 322 321 322 324 325 326 325 326 326 326 326 326 326 325 326 326 325 326 327 328 328 327 328 327 326
333 333 333 332 330 329 327 326 327 326 325 326 326 325 324 324 323 323 323 323 323 321 320 320 319 320 319 319 320 320 321 321 322 322 321 320 319 319 320 322 323 324 324 324 324 324 324 323 323 322 321 321 321 321 322 324 326 327 327 328 327 326
331 332 332 328 325 327 326 326 327 324 324 326 326 324 324 323 323 323 323 323 323 321 319 318 318 319 319 319 319 319 320 320 321 321 319 319 318 319 320 321 321 322 322 322 322 322 321 321 321 319 318 318 317 316 317 320 322 324 326 327 326 324
330 332 332 326 324 328 327 327 327 325 325 326 326 324 323 323 323 322 322 322 321 319 318 318 318 319 319 319 319 318 319 319 320 320 320 319 319 318 318 319 319 320 320 319 319 319 319 319 319 318 317 316 315 314 314 317 320 322 323 324 322 322
331 331 332 330 329 330 329 328 327 325 326 327 325 324 323 323 323 322 321 320 319 318 318 318 318 319 319 318 317 318 318 318 318 318 319 319 318 317 316 316 317 318 318 319 318 318 318 318 318 317 316 315 314 314 314 315 318 320 321 321 320 320
331 331 333 333 333 332 331 329 327 327 327 327 326 324 323 323 322 320 320 320 319 319 318 318 319 319 318 317 317 317 317 317 318 318 318 318 317 317 315 315 316 316 316 317 317 316 317 318 317 317 316 314 314 314 314 313 315 318 319 320 319 319
331 330 332 333 333 332 331 329 328 328 327 326 326 324 323 323 322 320 320 320 320 319 319 319 319 320 318 318 318 317 317 317 318 318 318 317 317 317 316 315 316 315 314 315 316 315 316 317 316 316 315 314 313 313 314 314 314 315 318 319 318 319
331 331 331 331 331 331 330 329 329 328 328 327 326 325 323 323 322 320 321 321 320 320 319 318 320 320 319 319 318 318 318 318 318 318 317 317 317 317 316 316 316 315 315 315 315 315 315 315 316 316 315 314 314 313 313 314 314 315 317 318 318 318

ECMWFFLT2_925_thetae_060.txt.gz
Theta_e
338 337 335 335 332 332 333 332 334 334 329 328 333 339 339 339 337 335 337 338 337 336 335 336 335 335 335 333 333 331 329 326 324 328 330 328 327 327 327 327 328 329 329 329 329 329 330 331 332 332 332 331 332 334 336 338 336 335 336 335 334 331
339 338 336 337 335 333 333 333 331 328 330 330 334 338 339 338 337 335 336 336 335 333 333 334 332 331 331 330 330 328 327 324 325 328 328 326 326 326 326 327 327 327 327 328 328 327 328 329 330 332 332 331 330 331 336 337 335 335 336 334 333 331
339 338 338 338 337 335 332 331 326 327 333 332 334 338 339 338 336 333 333 333 331 330 330 329 327 329 330 329 329 328 328 326 326 327 326 326 326 326 327 326 326 326 326 326 326 328 329 329 329 330 331 332 330 331 336 336 333 335 335 334 333 331
339 338 338 338 336 334 331 329 328 329 334 333 334 337 337 336 332 331 332 332 332 332 332 330 331 334 334 330 330 330 329 327 327 327 326 327 327 327 327 327 326 326 325 326 327 331 332 332 330 329 330 331 331 333 336 335 333 334 335 333 332 331
339 339 337 338 335 333 331 331 331 332 333 334 336 335 335 334 331 331 332 332 333 335 336 335 337 337 335 331 330 330 330 330 330 329 328 330 332 331 329 329 328 325 325 328 330 331 332 332 333 331 330 331 333 334 335 335 334 334 335 334 332 331
339 338 337 337 337 334 333 333 334 334 334 336 336 334 335 333 331 334 334 333 333 337 338 337 338 336 334 332 332 332 332 334 335 334 331 333 336 335 333 331 332 329 328 330 331 331 332 332 332 332 330 331 332 333 334 334 334 334 334 333 331 330
340 339 337 336 337 337 336 336 335 336 336 337 336 334 336 334 333 335 335 334 334 336 336 336 336 335 334 334 334 333 334 335 335 336 335 335 335 336 334 332 333 331 330 331 331 332 332 331 331 331 331 331 331 332 333 333 334 334 334 333 331 330
341 339 337 337 338 338 338 338 336 336 337 337 336 334 335 335 333 332 331 333 335 335 335 335 336 336 336 335 335 334 333 334 334 335 335 335 335 335 334 333 332 331 330 330 331 333 332 331 330 330 331 330 330 331 331 331 333 334 334 333 331 330
340 339 337 338 339 339 339 338 337 337 338 337 336 335 334 333 331 329 330 333 335 335 335 336 337 337 336 335 336 335 334 334 334 334 334 335 335 334 332 332 332 331 331 331 331 332 333 332 330 329 329 329 330 329 330 331 331 334 335 333 331 330
339 337 337 338 339 339 339 339 338 338 338 338 335 334 334 332 331 331 333 335 336 336 335 336 337 338 337 336 336 336 336 335 334 334 334 334 334 334 332 331 332 332 333 332 332 333 332 332 331 330 329 329 329 328 329 330 331 332 334 334 331 330
338 337 337 337 337 338 338 338 338 337 337 336 334 334 335 332 332 333 334 335 336 336 336 336 337 337 337 337 336 336 336 335 334 335 334 335 335 334 333 332 333 333 333 333 333 334 332 332 332 330 329 330 328 328 330 330 329 331 333 335 333 330
337 338 338 336 337 337 336 336 337 336 335 334 333 333 335 334 333 334 335 335 334 334 335 334 335 336 336 336 336 335 336 335 335 334 334 335 334 334 333 333 333 333 333 333 334 334 332 332 332 332 331 330 329 328 330 329 329 330 334 336 335 332
338 338 338 337 336 336 336 335 334 335 334 333 333 333 334 334 334 334 334 334 333 334 334 333 333 334 334 335 335 335 335 335 334 334 334 335 333 333 334 333 333 332 332 333 332 333 332 331 331 332 331 331 330 329 329 328 329 329 334 337 336 333
337 337 337 336 337 337 337 336 334 335 335 333 333 334 334 334 335 335 334 333 333 333 333 333 333 333 333 335 335 334 334 334 334 334 334 333 333 333 333 333 332 332 332 332 332 332 332 331 331 331 330 331 332 329 329 329 329 330 333 336 336 335
336 336 337 336 336 337 337 338 336 335 334 333 333 333 334 335 336 335 332 332 332 332 333 333 333 334 334 335 334 333 334 334 334 333 333 333 333 333 333 333 332 332 333 333 333 332 332 331 331 331 330 331 332 331 330 329 329 330 331 333 335 335
337 337 337 336 337 336 337 338 338 336 335 333 333 333 333 335 336 334 331 331 331 332 333 333 333 333 334 335 334 333 334 334 333 333 333 333 333 334 332 332 332 332 333 334 333 332 331 330 331 331 330 331 332 332 332 331 330 330 330 331 332 333
337 336 337 337 338 337 337 338 336 337 336 335 335 334 334 335 335 334 332 330 330 332 332 333 333 333 333 333 333 333 334 333 333 334 334 333 334 334 333 332 332 332 332 334 334 333 331 330 330 330 330 331 333 333 332 332 332 331 329 330 331 331
336 336 337 337 337 336 336 334 333 334 335 335 336 336 335 335 334 334 333 333 332 332 332 333 333 332 333 334 333 333 334 333 334 334 333 333 333 332 332 333 333 332 332 334 334 332 331 330 330 330 331 331 332 333 333 333 332 332 330 329 330 330
336 336 336 336 334 332 332 332 332 333 333 334 334 334 334 334 334 335 334 334 333 334 334 334 334 333 333 335 334 333 333 333 334 333 332 332 333 332 331 332 334 333 333 333 333 333 331 330 330 330 331 331 332 332 333 333 332 332 330 330 330 330
337 336 336 334 332 332 333 333 333 332 331 332 333 332 331 332 333 334 334 334 334 335 334 334 334 333 333 334 334 334 333 332 333 333 333 332 333 333 332 332 333 334 334 333 333 333 332 331 331 330 331 331 331 333 333 333 332 333 332 330 329 330
337 336 334 333 333 335 336 336 335 333 333 332 331 330 330 330 331 331 332 332 333 333 333 334 333 333 333 333 333 333 333 333 332 333 333 333 332 333 333 332 332 333 334 333 332 333 332 332 331 330 331 332 332 333 334 332 331 333 332 331 330 330
335 335 335 334 336 337 338 337 335 333 331 330 330 330 330 330 330 330 330 330 331 331 331 331 331 331 331 330 330 332 332 332 331 332 332 332 332 333 333 332 332 333 333 332 332 333 333 332 331 330 331 333 332 332 332 331 331 331 331 331 330 329
332 333 335 336 337 338 337 335 333 330 329 329 330 329 329 329 329 329 328 329 329 329 329 329 328 328 329 329 329 329 330 329 329 330 330 331 332 332 333 333 332 332 332 331 332 333 333 332 331 330 331 333 333 333 333 332 331 330 330 331 330 328
333 333 335 336 338 338 335 333 331 330 329 329 329 328 327 326 327 327 327 328 328 327 328 327 326 327 328 328 328 328 328 328 328 328 328 328 329 330 331 332 332 331 331 330 331 332 332 331 330 331 332 333 332 332 334 333 331 330 330 330 328 328
333 334 334 336 337 335 332 332 331 331 330 328 327 327 326 326 326 327 327 327 326 326 326 326 326 327 328 328 328 328 328 328 328 327 327 327 327 328 328 329 330 330 330 330 330 330 330 330 330 331 331 332 332 333 334 332 331 331 329 329 328 328
333 333 334 336 336 333 332 332 331 331 329 328 327 327 327 326 326 326 326 326 326 325 325 325 326 326 327 327 328 327 327 327 326 327 327 327 327 328 328 328 329 330 329 329 329 329 329 329 330 330 330 331 332 333 332 332 332 331 329 328 328 327
333 334 335 335 334 333 333 332 331 330 328 328 328 328 327 325 325 326 327 326 326 325 325 325 326 326 327 327 327 327 326 325 325 326 326 327 327 327 328 328 328 329 328 329 329 328 328 329 330 330 329 330 330 330 331 331 332 331 329 329 328 325
333 335 336 335 333 333 332 331 330 328 328 328 329 328 326 325 325 325 325 325 324 325 325 325 325 325 325 325 325 324 324 323 323 324 325 326 326 326 326 327 328 328 328 328 329 328 328 329 329 328 328 328 329 329 329 330 330 330 330 329 327 324
334 335 336 335 333 332 332 330 329 329 328 329 329 327 326 325 325 324 324 324 325 324 324 324 323 323 322 321 321 321 323 323 323 323 324 324 323 324 325 326 327 326 326 326 327 327 327 327 326 327 327 327 329 329 329 330 329 329 328 329 327 325
333 333 334 334 332 331 330 329 328 329 329 328 327 326 325 325 325 324 323 323 324 323 322 322 321 321 320 320 321 322 323 323 322 321 321 320 321 322 325 325 325 325 325 324 324 324 324 323 322 322 322 323 326 327 329 330 330 328 328 328 327 326
333 333 333 332 331 330 329 328 327 328 328 327 325 325 325 325 325 325 323 322 322 322 321 321 320 320 320 320 321 322 322 322 320 319 319 319 321 322 323 323 323 323 323 323 322 322 321 320 319 318 317 317 319 321 325 328 328 328 327 327 327 325
334 333 333 332 331 330 329 327 326 327 326 325 324 324 325 324 324 323 323 323 321 320 320 320 319 319 319 319 320 321 321 321 320 319 318 319 319 320 320 321 320 320 320 320 320 320 319 318 317 316 315 315 316 318 323 325 325 325 326 327 327 324
333 334 333 332 330 328 328 326 325 327 326 325 324 324 323 324 324 323 324 323 320 318 319 320 319 319 319 319 319 320 320 320 320 320 319 318 317 318 319 319 319 319 318 319 319 318 317 317 316 315 314 315 315 316 319 322 323 324 324 325 324 322
333 333 332 330 328 325 325 325 325 326 326 326 324 323 324 323 323 324 323 322 319 318 319 319 319 319 319 319 318 318 319 319 319 319 319 317 315 316 317 317 317 317 317 317 318 317 317 317 316 314 314 314 314 314 316 318 321 323 322 322 322 320
332 332 331 328 324 324 325 326 326 326 326 326 324 324 324 324 323 323 322 320 319 319 319 319 319 318 317 318 318 318 318 318 318 318 317 316 315 315 315 315 316 316 316 316 316 316 317 316 315 314 313 314 314 314 314 316 318 320 319 319 318 318
332 332 331 327 324 325 327 328 327 326 326 325 324 323 323 323 322 321 320 320 319 319 319 320 319 317 317 317 317 317 318 318 318 318 317 317 316 316 315 315 315 316 316 316 316 316 316 316 315 314 314 314 314 313 314 315 318 318 318 318 318 318
333 332 331 328 327 328 329 328 326 326 327 325 324 323 323 323 322 320 321 320 319 319 320 320 318 317 317 317 317 317 318 318 318 317 317 317 317 317 316 315 315 315 316 316 316 316 316 316 315 314 314 314 314 314 314 315 316 316 316 317 317 316

ECMWFFLT2_925_thetae_063.txt.gz
Theta_e
343 343 342 342 342 341 340 339 338 338 337 337 334 333 337 337 336 337 337 335 335 336 336 334 335 335 335 334 334 333 332 331 332 332 328 325 326 326 327 328 328 329 329 329 330 329 330 331 332 331 331 333 335 335 336 336 336 336 334 333 332 331
342 342 341 341 340 339 337 336 336 336 334 332 331 334 337 337 337 337 337 336 336 337 335 334 335 335 334 334 332 330 330 331 333 330 326 324 325 325 326 326 325 326 327 328 328 328 328 328 330 331 330 331 333 334 335 335 335 335 333 333 332 330
339 338 337 337 337 337 337 335 335 332 328 329 333 336 336 336 337 336 336 337 336 336 334 332 332 333 333 332 330 327 329 331 331 327 325 326 326 325 325 323 323 325 326 327 329 329 330 329 329 329 329 329 330 332 334 334 335 335 333 332 331 330
336 334 333 333 335 337 337 335 332 330 329 331 335 337 335 336 337 336 337 337 334 332 330 327 330 334 333 330 328 327 328 328 327 326 327 327 327 325 325 324 323 325 327 328 330 331 331 332 331 329 328 328 329 331 334 334 334 334 333 332 331 330
336 335 334 333 334 336 334 331 330 331 332 333 335 336 335 336 336 336 336 333 330 328 326 328 334 336 331 328 329 329 328 328 327 327 329 331 329 327 328 329 328 327 327 328 329 330 331 332 332 331 329 328 330 332 334 334 335 334 333 332 330 330
336 336 336 334 334 334 331 330 331 332 333 333 334 335 335 335 334 333 332 330 329 328 327 332 337 337 331 329 330 331 332 333 332 330 331 334 333 331 330 332 331 329 330 329 330 331 332 332 332 332 331 330 331 332 334 334 334 334 333 332 330 330
337 337 337 336 334 333 332 332 332 332 334 334 333 333 333 332 331 331 331 331 332 331 332 335 337 336 332 332 333 335 336 336 336 334 332 333 334 334 332 333 332 331 331 330 331 331 331 331 331 331 331 331 331 331 332 333 334 334 333 332 331 330
338 338 337 336 334 334 335 335 333 332 334 333 333 332 331 330 330 330 331 332 335 335 335 337 337 336 334 335 336 336 336 336 336 336 332 331 333 334 333 333 333 332 331 330 331 332 332 331 331 330 330 330 330 330 332 333 333 333 333 332 331 331
338 338 337 336 336 336 337 336 334 333 334 333 333 332 331 330 330 332 333 333 335 336 337 337 337 337 336 337 337 335 334 334 335 335 333 331 332 334 333 332 332 331 331 331 331 332 332 332 331 329 329 330 329 329 331 334 334 333 333 332 330 331
339 337 337 337 337 337 337 336 335 333 333 333 332 333 333 331 333 335 334 333 334 336 336 337 337 337 337 337 336 335 334 334 334 334 333 333 333 333 333 331 331 331 331 332 332 332 332 332 331 330 329 329 329 328 329 333 334 333 332 332 330 330
339 337 337 338 338 337 336 336 334 333 334 334 332 333 334 334 334 332 330 333 334 335 335 336 337 337 337 337 336 335 335 335 334 334 333 334 334 333 333 331 331 332 333 333 333 333 333 332 332 331 330 329 329 328 328 330 331 332 332 332 332 332
338 338 338 338 338 336 336 335 335 334 334 334 333 332 333 333 332 328 330 334 335 335 335 335 337 337 336 336 336 335 335 334 334 334 334 334 334 334 333 332 332 333 333 333 333 333 333 332 332 331 331 330 329 328 327 328 328 330 332 331 331 332
338 338 338 339 338 336 335 336 335 335 333 333 332 332 332 331 330 329 332 335 335 335 335 334 335 336 336 336 335 335 335 334 334 334 334 334 334 334 333 333 332 333 332 332 333 332 332 332 331 331 331 330 329 328 327 328 327 330 333 331 329 328
337 338 338 337 337 337 336 336 335 334 333 333 332 332 332 332 333 334 334 335 335 335 334 334 334 334 335 335 334 334 335 334 334 334 334 333 333 333 332 332 332 332 331 332 332 332 332 331 331 331 331 331 330 329 328 328 329 330 333 331 329 328
337 337 337 336 336 336 336 335 334 334 333 333 333 332 333 333 335 335 335 335 334 333 333 333 333 333 333 334 334 334 334 333 333 333 333 332 332 332 331 331 331 331 331 331 331 331 331 330 331 330 331 331 331 330 329 329 329 330 332 332 330 329
337 336 336 336 335 334 334 334 333 333 333 333 333 333 333 334 334 335 334 334 333 333 333 333 333 333 333 334 334 333 333 333 332 332 332 332 332 332 331 331 331 331 331 331 331 331 330 330 330 330 331 332 332 331 330 330 329 329 330 332 332 331
337 336 337 337 336 334 334 334 333 333 333 333 333 334 333 333 334 334 334 334 333 333 333 333 333 333 333 333 333 332 332 332 332 332 333 333 333 332 331 330 330 330 331 333 333 332 330 329 330 330 331 333 333 331 331 331 330 329 329 330 331 332
336 336 338 338 337 336 336 334 334 334 333 333 332 333 333 333 334 333 333 333 333 334 334 333 333 334 333 333 332 333 333 332 333 333 333 333 332 331 331 330 330 330 331 333 333 332 330 329 330 330 331 332 333 332 332 332 331 330 329 330 330 331
336 336 337 338 337 337 336 334 334 333 332 332 332 332 333 333 334 334 334 333 333 333 334 333 333 333 333 332 333 333 333 333 333 333 332 332 332 332 331 331 331 331 332 333 333 332 331 329 330 330 331 332 333 332 332 331 331 330 329 330 330 330
337 337 337 338 338 336 335 334 333 332 331 331 331 332 333 334 334 334 334 334 334 334 334 333 333 333 333 333 333 333 333 333 333 333 332 332 332 332 331 331 332 333 333 333 333 333 331 330 330 330 331 333 331 330 331 331 330 330 329 330 330 330
338 337 337 337 336 334 334 334 333 333 332 332 331 332 334 334 334 334 334 334 334 334 334 333 333 333 333 333 333 333 332 332 332 333 332 332 332 333 332 332 333 334 333 333 333 332 332 331 330 331 332 332 329 328 330 330 329 330 330 329 330 331
337 335 334 333 332 332 332 333 333 333 333 332 332 333 333 333 333 332 333 334 334 333 333 332 331 331 331 331 331 331 332 331 331 332 332 331 332 333 332 332 332 333 333 332 332 332 332 332 330 330 331 331 330 329 329 329 328 329 329 329 330 330
335 334 333 333 334 333 332 331 332 332 332 332 332 332 332 331 331 330 330 330 329 329 329 329 329 329 329 329 329 329 330 330 329 330 330 330 331 332 332 332 332 333 332 332 332 332 332 332 330 330 331 332 332 331 330 328 328 328 329 328 328 328
335 335 335 336 337 336 334 333 332 331 330 331 330 330 330 329 328 328 328 328 327 327 327 328 329 330 329 329 329 329 329 329 329 329 329 328 329 331 332 331 330 332 331 331 332 331 332 332 330 331 332 332 331 331 331 329 327 328 328 327 328 327
335 336 337 337 337 335 333 332 330 329 329 329 329 329 329 328 327 328 328 328 328 327 327 327 327 327 328 328 328 328 327 328 328 328 328 328 329 329 330 330 329 330 330 330 330 331 330 331 330 330 331 331 331 332 331 328 328 328 327 327 328 327
335 336 336 336 335 333 331 330 328 328 327 327 328 328 328 327 327 327 327 326 326 326 326 326 326 326 327 327 327 326 325 326 327 327 327 327 328 328 329 329 329 329 329 329 329 330 329 330 331 330 330 330 332 332 329 328 329 328 326 327 327 328
335 334 334 334 333 331 330 329 328 327 326 325 326 326 326 326 326 326 325 325 325 325 326 327 326 326 326 326 326 326 325 325 326 326 326 327 327 328 328 328 328 328 328 328 329 329 329 329 330 330 330 329 329 330 329 328 329 328 326 325 324 325
333 332 332 332 332 331 330 329 328 327 326 326 326 325 325 325 326 326 325 325 325 325 325 325 325 325 326 326 325 324 324 324 325 325 326 327 327 327 327 328 328 328 328 328 328 328 328 328 328 328 329 329 329 330 328 327 327 326 325 324 323 323
331 331 331 332 331 331 330 328 326 325 326 328 326 325 325 326 326 325 324 325 325 324 324 324 324 324 324 325 324 323 324 325 325 325 324 325 326 327 326 327 327 327 327 327 327 327 326 327 327 327 327 328 329 329 328 327 326 323 322 323 324 323
333 333 333 333 333 332 330 328 326 326 327 327 326 326 326 326 325 324 324 324 324 324 323 322 322 321 321 322 323 322 323 324 323 322 322 322 324 326 325 325 325 325 325 325 325 323 320 320 322 324 327 328 329 329 329 327 325 324 323 322 323 322
334 335 334 334 334 332 331 330 328 328 327 325 325 325 324 324 324 324 324 323 323 322 322 321 320 320 321 322 322 320 320 321 320 320 322 322 323 324 323 323 324 323 322 321 320 319 316 316 316 319 323 325 327 328 328 327 325 324 324 322 322 322
336 336 334 334 333 332 331 330 329 328 327 325 325 324 323 324 324 324 323 322 322 321 320 320 320 321 321 322 321 319 319 319 319 321 322 322 322 322 321 321 321 321 321 319 317 316 315 314 315 315 318 321 325 326 327 327 325 325 324 322 322 321
336 336 335 333 332 331 330 329 329 328 326 325 324 324 324 324 323 322 322 322 321 320 319 319 320 320 321 321 320 320 319 318 318 319 319 319 320 319 319 319 318 318 318 317 316 315 314 314 314 314 315 318 322 324 325 326 325 324 323 322 320 319
335 336 334 331 331 330 329 328 328 327 325 325 324 325 325 323 322 322 322 321 320 319 319 318 319 319 320 320 320 319 319 318 317 317 318 318 318 318 317 317 316 316 316 316 314 314 314 313 313 314 314 316 318 320 322 325 326 324 322 321 320 318
334 335 334 331 330 330 328 327 328 327 325 324 324 324 324 323 322 322 320 319 319 319 318 318 319 319 319 319 319 318 319 317 315 315 317 316 316 316 315 315 315 315 314 314 314 313 313 313 313 313 314 315 316 317 318 321 323 324 323 321 318 317
333 334 334 331 330 329 327 326 328 326 324 324 323 323 323 322 323 322 320 318 319 319 319 319 319 318 318 317 317 317 317 316 315 314 315 315 315 316 316 316 316 315 315 315 314 314 313 313 312 312 312 314 316 316 315 315 317 320 321 321 317 316
333 334 333 330 329 328 325 325 327 326 324 323 323 323 323 323 323 321 319 318 318 319 319 318 317 317 317 317 317 317 317 316 315 315 315 315 315 315 315 315 315 315 315 315 314 314 314 313 313 312 312 313 314 315 314 314 314 315 317 318 317 316

ECMWFFLT2_925_thetae_069.txt.gz
Theta_e
341 341 340 339 340 341 342 342 341 336 329 328 329 332 336 337 337 337 337 337 335 333 333 334 334 333 332 330 328 329 331 332 332 331 332 332 332 332 332 332 331 330 329 329 329 329 330 330 330 331 331 332 335 336 335 333 331 330 330 328 328 329
342 341 339 339 341 341 342 342 340 332 327 329 333 335 337 337 336 336 337 337 336 335 334 334 334 334 332 328 327 330 332 331 329 330 331 331 331 331 330 330 329 329 328 328 328 329 329 329 329 330 331 331 334 336 335 333 332 330 330 328 328 330
342 341 339 340 341 342 342 341 340 334 326 329 334 337 337 337 336 335 336 337 336 335 334 334 334 333 330 326 328 331 329 327 327 329 331 330 330 330 328 327 326 327 327 327 327 328 328 328 329 330 330 330 333 335 335 334 332 331 330 328 329 330
342 340 340 340 340 341 342 341 340 333 325 328 334 335 336 337 336 335 335 336 335 334 335 335 334 332 327 326 330 330 328 327 327 328 329 329 329 327 326 325 325 326 326 327 328 329 329 329 329 329 330 330 332 334 334 334 332 331 330 329 330 331
341 340 340 340 340 340 341 340 338 331 327 330 334 333 335 337 336 334 334 336 335 334 334 334 334 331 325 325 327 327 327 327 326 327 327 327 327 326 326 326 326 327 328 329 330 331 330 330 329 328 330 330 332 334 334 334 332 331 330 329 330 332
340 340 340 339 339 339 339 339 335 331 331 332 333 333 336 337 336 335 335 335 335 331 330 332 332 327 325 324 324 325 326 326 327 328 327 327 328 329 329 329 328 329 329 330 331 331 331 331 330 329 329 330 332 333 334 333 332 331 330 329 331 331
339 340 340 339 339 339 338 337 334 330 329 330 331 333 336 337 336 335 335 335 333 329 326 330 331 326 326 326 325 325 326 327 330 332 331 330 331 332 332 331 330 330 330 331 331 331 331 331 330 329 329 330 333 333 334 333 332 330 329 330 331 331
340 340 340 340 339 339 337 335 334 330 328 330 332 334 336 337 336 335 335 334 331 328 324 328 331 327 327 328 327 328 328 329 330 331 332 332 333 333 332 331 331 331 330 330 331 331 330 330 330 329 330 331 333 334 333 333 331 330 330 330 331 330
340 340 340 339 339 337 335 333 331 329 330 333 334 335 336 336 335 334 335 333 330 326 322 329 332 328 328 329 329 331 332 332 331 330 330 331 332 332 332 331 331 330 330 330 331 331 330 330 329 329 330 331 332 333 333 332 331 330 330 330 331 330
340 339 338 338 337 334 332 331 329 329 331 334 335 335 336 335 333 334 334 330 328 324 324 331 333 329 330 330 331 332 332 332 331 330 331 331 332 332 331 330 330 330 330 331 331 331 331 329 329 328 329 330 331 332 333 332 331 330 330 331 331 330
338 336 335 334 333 332 331 330 328 330 332 333 335 335 335 333 333 334 332 329 327 324 328 334 333 331 332 332 333 333 332 332 331 331 332 332 333 333 331 330 331 332 332 332 331 331 331 330 329 328 328 329 329 331 333 332 331 331 331 331 331 331
335 333 333 332 331 331 331 330 328 330 332 332 334 335 334 333 333 333 330 329 328 327 331 335 333 333 333 333 334 334 333 332 332 333 333 333 333 333 331 331 332 333 333 332 331 331 331 330 329 328 328 328 328 330 332 332 332 331 331 331 331 331
334 333 333 332 331 331 331 329 328 329 331 332 334 334 334 333 333 332 330 330 330 332 334 334 334 334 334 333 334 335 334 334 334 334 334 333 333 333 332 331 332 332 333 332 331 331 330 330 329 328 328 327 328 329 331 332 332 331 331 331 331 332
335 334 334 333 332 331 331 329 329 330 332 332 333 334 334 333 332 331 330 331 332 334 335 335 334 334 334 334 334 335 335 334 334 333 333 333 333 333 332 332 332 332 332 331 331 330 330 330 329 328 327 327 328 329 331 332 332 331 331 331 332 332
336 335 334 334 333 332 331 330 332 332 333 333 333 334 334 331 330 330 331 332 332 334 335 334 334 334 334 334 335 335 334 334 334 333 333 333 333 333 332 332 332 331 331 331 330 330 330 329 329 328 327 327 327 328 330 331 331 331 331 331 331 332
336 336 335 335 334 333 332 332 333 334 333 333 332 332 331 329 329 332 333 332 332 333 334 334 334 334 334 335 335 334 333 334 333 333 332 332 332 332 332 332 331 331 330 330 330 330 330 330 329 328 328 328 328 328 329 329 330 331 331 330 331 332
337 336 336 335 335 334 334 334 334 334 334 334 333 332 331 330 331 333 332 330 332 333 334 335 335 335 334 334 334 333 333 333 333 332 332 331 331 331 331 331 332 332 330 329 329 330 330 330 329 329 329 329 329 330 330 330 330 331 331 330 330 331
337 337 336 336 335 335 335 335 334 334 334 333 333 333 333 332 333 333 329 329 333 334 334 335 335 334 334 333 333 333 333 332 332 331 331 331 331 331 331 331 332 332 331 329 329 330 331 330 329 329 329 329 329 330 331 331 331 331 331 330 330 332
337 337 337 336 336 336 335 334 334 334 334 333 333 333 333 332 332 330 328 330 334 333 333 334 333 333 332 333 333 333 332 332 331 331 332 332 332 331 331 331 332 332 331 329 329 331 331 330 330 329 329 329 329 329 330 331 331 331 330 329 330 332
338 337 337 336 336 335 334 334 334 334 333 333 333 333 333 332 331 330 331 333 334 333 333 333 332 333 333 333 332 332 332 332 332 332 331 331 331 331 331 332 333 332 330 329 330 331 331 331 330 329 329 329 329 329 328 329 330 331 330 329 329 330
337 337 336 336 335 334 333 333 333 332 332 332 333 333 333 333 332 333 334 334 333 332 333 332 332 333 333 332 331 332 332 332 332 332 331 331 331 331 332 332 332 332 330 329 331 331 331 332 330 329 328 329 329 328 328 329 329 330 330 330 329 330
336 336 337 336 335 334 334 333 332 332 332 332 333 333 333 333 334 334 334 333 332 333 333 332 333 333 333 332 332 332 332 332 332 332 331 331 332 331 332 332 332 331 330 329 330 331 331 331 329 328 327 327 327 327 327 328 328 328 328 329 329 330
335 336 336 336 335 334 334 333 333 332 332 332 332 333 333 333 334 333 333 332 333 333 332 332 333 332 332 332 332 332 331 331 331 332 331 331 332 332 332 332 332 331 330 330 330 330 330 329 328 328 328 328 328 327 327 327 327 327 328 328 329 329
335 336 336 335 334 334 333 332 332 332 332 332 332 333 333 333 334 333 333 333 333 333 332 332 332 332 332 332 331 330 331 331 331 331 331 331 332 331 332 332 332 331 330 330 330 329 329 329 328 328 329 329 327 326 327 327 326 326 327 327 328 329
335 335 335 334 333 333 333 332 332 332 332 332 332 333 334 334 334 334 333 334 334 333 332 331 331 331 331 331 330 329 329 330 330 330 331 331 331 331 331 332 332 331 331 330 330 329 330 329 328 328 328 328 329 329 327 327 326 325 326 327 327 328
335 335 335 334 334 333 333 332 331 331 331 332 333 333 334 333 333 333 333 333 333 332 331 330 329 329 329 329 328 328 328 328 329 329 329 329 330 330 330 331 331 331 331 331 330 330 330 329 329 329 328 327 330 330 326 325 327 326 326 326 327 328
335 335 335 334 335 334 332 332 331 331 332 332 333 333 333 333 333 333 333 332 331 330 329 328 328 328 327 327 327 326 326 327 327 327 327 327 328 329 329 329 330 330 330 330 330 330 330 330 329 329 329 327 328 328 325 326 326 326 327 326 325 327
335 335 335 335 335 333 331 332 331 331 332 332 331 331 331 331 331 331 331 330 329 329 329 328 327 327 327 327 326 326 326 326 326 326 326 326 327 327 328 328 328 329 329 329 330 329 329 330 330 329 329 328 328 327 325 325 325 326 326 325 324 325
335 335 335 336 334 332 331 331 331 331 331 330 329 329 329 329 328 328 328 329 329 329 328 327 327 326 327 326 326 326 326 326 326 327 327 327 327 327 327 328 328 328 328 328 329 329 329 329 329 329 328 327 327 326 325 325 325 324 324 324 324 324
333 334 334 335 334 332 331 331 331 331 331 330 329 329 328 328 328 327 328 328 328 327 327 327 326 326 325 325 326 326 326 326 326 326 327 327 327 327 327 327 327 327 327 327 328 328 328 329 329 328 328 327 326 325 324 323 323 323 322 321 323 323
332 333 334 334 333 332 331 331 331 331 330 330 328 327 327 326 326 327 327 328 327 326 326 325 325 325 324 324 325 325 325 325 325 326 326 327 327 327 327 327 326 326 325 326 326 327 328 328 328 328 328 327 326 325 324 323 322 323 321 320 321 321
330 333 334 333 332 332 332 331 330 330 330 328 327 326 326 325 325 326 327 327 326 325 324 324 324 324 323 323 325 325 324 324 324 325 325 326 326 325 326 325 323 320 319 319 321 324 326 326 327 328 328 327 326 326 325 324 323 323 322 321 321 320
331 332 333 332 331 330 330 330 329 330 329 327 326 326 325 325 326 326 326 326 325 324 323 323 323 323 322 324 324 324 322 322 324 325 324 324 324 322 322 322 319 315 315 316 317 320 323 325 326 327 328 327 327 326 325 323 323 322 322 322 321 319
331 331 332 331 330 328 328 329 328 328 328 326 326 326 325 325 325 325 325 324 324 323 322 322 321 322 323 324 323 321 320 321 323 323 323 323 322 321 319 317 316 314 314 316 318 320 321 323 324 326 327 327 327 326 325 323 323 322 322 322 321 320
330 330 331 331 329 328 327 327 327 327 327 326 326 325 324 324 324 324 323 323 322 320 320 320 320 322 324 323 320 320 320 320 321 321 322 322 321 320 318 315 314 313 314 316 318 320 321 322 323 324 325 326 327 326 325 324 322 322 323 322 321 320
331 331 331 331 330 330 328 326 326 326 326 326 326 325 324 324 323 323 323 322 321 319 320 320 319 320 322 321 320 321 321 319 318 319 320 319 318 319 318 315 314 313 313 314 316 317 318 320 321 322 324 325 326 326 325 323 322 322 322 321 320 320
331 331 331 330 330 329 328 326 325 326 325 325 325 324 324 324 323 323 322 322 321 320 320 321 319 318 319 320 320 321 319 317 317 317 316 315 315 316 316 315 314 313 312 313 314 314 314 316 319 321 323 324 325 325 325 323 321 321 321 320 320 319

ECMWFFLT2_925_thetae_072.txt.gz
Theta_e
339 338 339 339 340 341 341 342 342 340 336 333 331 332 335 337 337 337 337 336 336 337 338 338 337 336 335 332 331 331 331 333 334 333 334 334 333 334 334 332 330 329 328 328 329 329 330 331 333 334 335 335 335 334 333 331 331 329 328 327 327 327
339 339 339 339 340 340 341 342 341 339 335 334 334 335 337 338 338 337 336 334 333 335 336 335 333 332 331 330 331 332 332 332 332 332 331 332 332 332 332 330 329 328 327 328 328 329 330 331 332 333 334 336 335 334 334 332 331 329 328 328 328 329
340 340 339 340 340 340 341 342 340 337 335 335 336 337 337 338 337 336 335 332 332 333 333 333 332 331 329 329 330 331 331 331 331 331 331 332 331 330 329 329 328 327 327 327 328 329 329 330 332 332 334 336 335 334 334 331 330 329 328 328 330 331
341 341 340 339 339 340 341 341 337 333 334 336 337 338 337 337 337 336 335 333 333 333 334 334 332 330 328 328 329 330 330 331 331 331 331 330 328 327 327 327 327 327 327 328 328 328 329 330 331 331 333 335 335 334 333 332 330 329 328 329 331 332
340 340 339 339 339 339 341 341 335 331 332 335 337 338 337 336 336 335 335 334 334 334 334 333 329 326 327 327 327 329 330 329 329 329 329 327 326 325 325 326 326 327 328 329 329 329 328 329 330 330 331 334 334 334 333 332 330 329 329 330 331 332
340 339 339 339 338 339 341 340 335 331 331 334 337 337 337 336 335 335 334 334 333 334 334 331 326 323 324 326 326 327 328 327 327 327 328 327 327 327 327 327 328 329 330 330 330 329 329 328 329 329 330 333 333 334 334 332 330 329 329 330 331 331
339 339 338 338 338 339 341 340 336 331 330 335 337 336 337 336 334 334 334 333 332 333 333 329 324 323 323 324 324 325 326 328 328 327 329 329 329 330 329 329 329 330 330 330 330 330 330 328 328 329 331 332 333 334 334 332 331 329 329 330 331 330
340 339 338 337 338 340 341 340 336 331 332 335 335 335 337 336 334 334 334 333 330 330 331 327 325 324 323 323 324 325 328 330 331 330 331 331 330 331 330 329 329 330 330 331 330 330 330 329 329 329 331 332 333 333 333 333 331 329 329 329 330 329
340 339 338 337 338 340 340 338 334 332 335 335 333 334 336 337 335 334 334 333 329 327 330 328 326 326 324 324 325 326 329 331 332 331 332 331 331 331 330 329 330 329 330 331 330 330 329 329 329 329 330 332 333 333 333 333 331 329 329 329 330 329
339 339 338 337 338 340 339 336 334 334 334 332 332 333 335 337 336 335 334 332 328 325 327 328 327 327 327 327 329 330 332 332 332 331 331 331 331 331 330 330 329 329 330 330 331 330 329 329 329 329 330 331 332 332 333 332 331 330 329 330 330 329
337 337 337 337 338 339 337 335 334 332 330 330 332 334 335 336 336 336 334 332 328 323 327 330 328 328 329 330 332 333 333 332 332 332 332 332 332 331 330 329 329 329 330 331 331 330 330 329 329 329 329 330 331 332 332 332 331 330 329 330 330 329
336 337 338 339 339 338 336 335 333 330 329 331 333 334 335 335 335 335 333 330 327 324 328 332 329 329 330 331 333 332 332 332 332 333 333 333 333 332 330 329 330 331 331 331 331 331 330 329 328 328 328 330 331 332 332 332 331 330 330 330 330 330
337 338 339 339 339 336 335 333 330 329 330 332 333 334 335 334 334 334 331 328 325 325 331 334 332 330 332 333 333 333 331 332 333 333 333 333 333 332 331 330 331 332 332 331 331 331 329 329 328 328 328 329 331 332 332 331 330 330 330 331 331 330
338 338 339 338 337 334 332 331 329 329 331 332 333 334 335 333 333 332 330 328 326 328 332 334 333 332 333 333 334 334 333 333 333 333 333 333 333 333 332 331 331 332 332 331 330 330 329 328 328 327 328 329 331 332 332 331 330 330 330 331 332 331
338 338 338 337 335 333 332 330 329 330 331 332 332 334 334 333 332 331 329 329 330 331 334 334 334 334 334 334 334 334 334 334 333 333 333 333 333 332 332 331 331 332 331 331 330 329 329 328 327 327 328 330 331 332 332 331 330 330 331 332 332 331
337 336 336 335 333 332 331 330 329 329 330 331 332 333 333 333 333 331 330 330 332 334 335 335 334 334 335 335 334 335 334 334 333 333 332 332 333 332 332 331 331 331 331 330 330 329 328 327 327 327 328 329 331 332 332 332 331 331 332 333 332 331
335 335 334 334 332 332 331 331 330 330 331 332 332 334 334 333 332 331 330 331 332 333 334 334 334 334 335 335 335 334 333 333 333 332 332 332 332 331 331 331 330 330 330 330 329 329 328 328 328 328 328 328 329 330 331 331 331 332 332 332 331 331
335 334 334 333 333 332 331 331 332 332 333 332 333 334 334 333 331 330 331 332 332 332 332 334 334 334 334 335 334 333 333 333 332 332 331 331 331 331 331 331 331 330 329 329 329 329 329 328 328 328 329 329 329 329 329 329 330 331 332 332 332 332
335 334 334 334 333 332 332 332 332 333 333 332 332 333 332 330 329 331 332 331 331 332 333 334 334 333 333 333 333 333 333 332 331 331 331 330 330 330 330 331 331 330 329 329 330 329 329 328 328 328 328 328 329 329 329 329 328 330 331 332 332 331
336 335 334 334 333 332 332 332 332 333 333 332 332 332 331 330 330 333 331 328 330 332 333 333 333 332 332 332 333 333 332 332 331 331 331 330 330 329 330 331 331 331 329 329 330 329 329 328 328 327 327 327 328 328 329 329 329 329 330 330 331 331
335 335 334 333 333 332 332 332 332 332 332 332 333 333 332 332 332 332 330 328 331 333 332 332 332 332 332 332 333 332 332 331 331 331 331 330 330 330 330 332 332 330 329 329 329 329 329 329 328 327 327 327 327 327 328 328 328 329 329 329 329 329
335 335 335 333 333 332 332 332 332 332 332 331 332 333 332 332 332 331 331 331 332 333 332 332 332 332 332 332 332 332 331 331 331 331 331 331 331 331 331 332 332 330 328 329 329 329 329 329 328 328 327 327 326 327 327 327 328 328 328 328 328 329
335 335 335 333 333 332 331 332 332 333 332 332 332 332 332 332 332 332 333 333 332 332 332 332 332 332 332 332 331 331 331 331 332 331 331 331 331 331 331 332 331 330 328 329 329 329 329 329 328 327 327 327 327 327 327 327 327 328 328 328 328 328
335 335 334 334 333 332 332 332 333 332 332 332 332 332 332 333 333 333 333 332 332 332 332 332 332 332 332 332 331 331 331 331 332 331 331 331 331 331 331 331 331 330 329 329 329 330 330 328 328 327 326 326 324 325 328 327 325 326 328 328 328 328
335 334 334 334 333 332 332 332 332 332 332 332 332 332 333 333 333 333 332 332 332 332 332 332 332 332 332 332 332 331 331 331 331 331 331 331 331 331 331 331 331 330 329 329 329 329 330 329 328 328 326 325 326 327 327 326 325 326 326 327 328 328
334 334 334 333 334 333 332 332 332 331 331 331 332 332 333 333 333 333 332 332 332 332 332 332 332 332 332 331 331 330 331 331 331 331 330 331 331 331 331 330 330 330 330 329 329 329 330 329 328 328 326 326 328 328 325 325 326 326 326 326 327 328
334 333 334 334 334 333 332 332 332 331 331 331 332 333 333 333 332 332 332 333 333 332 332 331 331 331 331 330 329 328 329 329 329 329 329 330 330 330 331 330 330 331 331 330 329 329 329 329 328 328 327 327 327 327 325 325 326 326 326 326 326 327
334 333 334 334 334 333 332 332 331 331 331 331 332 333 333 333 333 333 333 333 332 331 330 329 329 329 328 327 327 327 327 327 327 326 327 328 329 329 329 330 330 330 331 330 330 329 329 330 329 328 328 328 328 327 325 324 325 325 326 326 325 325
334 334 333 333 333 332 331 331 331 331 331 332 332 333 333 332 333 333 332 331 330 329 328 327 327 326 326 326 325 325 326 326 325 325 326 326 327 328 328 328 329 329 330 330 330 330 329 329 329 328 328 328 327 325 324 324 324 324 325 325 326 325
334 334 333 334 333 330 331 331 331 331 332 332 332 332 332 332 332 332 331 330 329 328 327 326 326 326 326 326 325 325 325 325 325 325 326 326 326 327 327 327 327 328 328 329 329 329 329 329 329 329 329 328 326 324 324 323 323 324 324 324 325 324
334 334 334 334 333 331 330 330 330 331 331 331 331 331 331 330 330 330 329 328 328 327 327 326 326 326 326 325 325 326 325 325 325 326 326 326 326 326 327 327 327 327 327 327 328 328 329 329 329 329 329 327 326 325 324 323 322 323 324 323 324 323
333 333 333 332 331 330 328 327 329 330 330 329 329 329 329 328 328 328 328 328 327 327 327 326 325 325 325 325 325 325 325 325 325 325 326 326 326 327 327 327 326 327 327 327 327 327 328 328 328 329 328 327 326 325 325 324 323 323 324 323 323 322
332 331 332 331 330 329 326 326 330 330 329 328 327 327 327 327 327 327 327 328 327 326 326 325 324 323 323 324 325 325 325 324 325 325 325 325 324 325 325 324 322 321 322 323 324 325 326 327 327 328 328 326 325 325 324 324 324 323 323 322 321 320
331 330 331 331 331 330 329 329 331 330 329 328 326 326 327 326 326 327 327 327 326 325 325 324 324 323 323 323 325 324 323 323 324 324 324 323 322 321 321 319 316 316 316 317 320 323 324 325 326 327 328 326 325 325 324 324 324 323 323 321 320 319
329 330 331 330 330 331 331 330 330 330 330 328 325 326 326 325 324 325 326 326 325 324 324 323 323 323 322 323 324 323 321 321 323 323 322 321 320 318 316 315 315 315 316 317 319 321 322 324 325 326 327 327 326 326 324 323 323 323 323 321 320 318
328 329 331 330 330 331 331 330 329 329 330 327 325 326 325 324 324 325 325 325 324 324 323 322 321 322 323 324 323 320 319 320 321 321 321 320 319 317 314 314 314 314 316 319 320 321 321 322 323 325 326 327 327 326 323 322 323 323 322 320 319 317
326 329 331 330 330 330 329 328 328 328 329 327 325 325 325 324 324 325 324 324 323 322 321 320 320 322 323 323 321 319 319 319 319 320 319 319 319 318 315 313 313 314 316 318 319 319 319 320 322 324 325 326 326 325 323 322 322 323 322 319 317 316

ECMWFFLT2_925_thetae_075.txt.gz
Theta_e
340 339 339 340 340 341 342 340 338 337 336 334 333 332 333 334 336 337 337 337 338 338 337 338 338 337 336 335 334 333 335 335 335 335 335 335 334 332 330 330 330 329 328 329 331 331 334 335 335 335 335 334 334 332 330 330 330 332 333 331 332 330
340 339 339 340 340 341 341 341 339 338 335 332 332 333 335 336 336 337 337 337 338 337 338 339 337 335 334 333 332 332 334 334 334 334 335 334 334 333 331 330 329 328 328 328 330 331 333 334 334 335 335 334 334 333 330 329 330 332 333 332 332 330
341 340 340 340 340 341 342 341 340 338 334 333 335 336 337 337 337 337 336 337 338 338 338 336 334 333 333 332 332 332 333 333 332 332 332 332 333 332 331 329 328 327 327 328 329 331 333 334 334 335 335 335 334 334 331 329 330 332 332 333 332 329
341 341 341 340 340 341 341 341 340 337 334 334 336 337 337 337 337 337 336 336 336 336 335 334 332 332 332 332 333 332 331 331 331 330 330 330 330 330 329 328 327 327 327 328 329 330 332 333 333 334 335 335 334 334 331 330 330 331 332 333 332 329
341 341 341 341 341 341 341 340 339 336 335 336 337 338 337 336 337 335 334 335 335 334 335 334 332 331 333 332 332 332 332 332 331 330 329 329 328 328 327 327 327 327 327 328 328 330 331 332 333 334 335 335 335 334 331 330 330 331 333 334 332 329
341 341 341 341 341 341 341 340 338 336 336 336 337 337 337 336 336 334 333 334 335 335 335 334 332 332 333 333 333 333 332 331 329 327 326 326 327 327 327 327 328 328 328 328 328 329 330 331 332 333 335 334 334 333 332 331 330 330 333 335 332 330
341 340 340 340 340 340 340 339 336 336 337 336 337 337 337 337 336 335 334 334 335 334 331 331 332 332 332 332 331 330 328 327 326 326 326 326 326 327 328 329 330 330 330 329 329 328 330 331 331 332 334 334 334 333 332 331 331 330 332 335 332 330
341 340 340 340 339 339 340 338 335 335 337 337 337 337 337 336 336 335 334 334 335 331 325 327 332 331 328 328 327 327 326 326 327 328 329 328 328 328 329 329 330 330 330 330 330 329 329 330 330 331 333 333 334 333 333 332 331 330 332 335 333 331
341 341 340 339 339 339 340 338 335 335 336 337 338 337 337 336 336 335 332 333 334 329 322 325 331 329 325 325 326 327 327 328 330 330 330 330 329 329 329 329 330 330 330 330 330 329 328 329 329 330 332 333 333 333 333 332 331 330 332 334 334 332
340 340 340 339 338 339 339 336 334 335 335 336 337 336 337 336 336 334 331 332 332 328 323 325 327 325 323 325 328 330 330 331 331 331 331 330 330 330 330 329 330 330 330 330 329 329 329 329 329 330 331 333 334 333 333 332 332 331 332 334 335 333
339 339 339 339 338 339 338 333 333 335 335 335 335 335 336 336 335 332 330 331 331 328 325 325 324 323 324 326 330 332 332 332 331 331 331 331 330 330 330 329 330 330 331 330 330 329 329 329 329 330 331 333 333 334 333 333 333 333 334 335 334 333
340 339 337 338 339 338 336 332 333 334 335 334 334 335 336 337 335 332 330 329 329 330 328 326 325 325 327 329 332 333 332 332 332 332 332 331 331 330 329 329 330 331 331 331 330 329 328 328 329 330 331 332 333 334 333 333 333 333 333 333 332 332
339 339 337 336 337 338 335 332 333 334 334 333 334 335 335 336 335 332 332 330 328 330 330 328 327 328 330 332 333 333 332 332 332 333 333 332 332 330 330 330 331 331 331 331 330 329 328 328 329 330 332 333 333 334 334 333 333 332 332 332 331 331
338 339 338 336 336 337 335 332 333 333 333 333 333 335 335 335 335 333 333 331 327 329 332 330 329 330 332 333 333 333 333 333 333 333 333 332 332 331 330 331 331 331 331 331 330 329 328 329 330 331 332 333 333 334 334 334 333 333 333 332 332 330
337 336 336 336 337 335 334 333 333 332 333 333 334 335 335 335 335 334 333 330 327 330 334 332 331 332 333 334 334 334 334 333 333 333 332 332 333 332 331 331 332 331 331 330 330 329 329 330 331 331 332 332 333 333 334 334 334 334 334 332 331 330
337 336 335 337 336 334 333 332 331 331 333 333 334 335 335 335 335 334 332 330 329 331 335 334 333 333 333 334 334 334 334 333 333 333 332 333 332 332 331 331 331 331 331 330 330 329 329 330 330 331 331 332 333 333 333 333 333 334 333 332 331 331
337 337 336 336 335 333 332 331 330 331 333 333 333 334 334 334 334 333 332 331 331 333 335 335 334 334 334 335 335 334 333 333 333 332 332 333 332 332 331 331 330 331 331 331 330 330 330 330 330 330 330 331 331 332 333 333 333 333 332 332 332 332
337 336 336 335 334 333 332 331 331 331 332 332 333 334 334 334 334 334 332 331 332 334 335 334 334 334 334 335 334 333 333 333 333 332 332 333 332 331 331 331 330 330 330 331 331 330 330 330 330 330 329 330 330 330 331 331 332 332 332 332 332 332
337 336 335 334 333 333 331 331 331 331 332 332 332 333 333 333 334 333 332 331 332 332 332 333 333 334 334 335 334 333 333 332 332 332 332 332 331 331 331 331 330 330 330 330 330 330 330 329 329 329 329 329 329 330 330 330 331 331 332 332 331 331
336 335 334 333 332 332 332 331 331 331 332 332 332 333 333 333 333 333 332 332 332 332 332 333 334 334 333 334 333 333 333 332 331 332 332 332 331 331 332 332 330 330 330 330 330 330 330 329 329 329 328 329 329 329 330 330 330 331 331 332 331 331
334 334 333 332 332 332 332 332 332 332 332 332 332 333 333 333 333 333 333 333 332 332 333 334 334 333 333 333 333 333 332 332 331 332 332 331 331 331 331 331 330 330 330 330 329 329 329 329 329 328 328 328 328 329 329 329 330 330 330 330 330 330
334 332 332 332 332 332 332 332 332 332 332 332 332 332 332 332 332 333 333 332 331 333 334 334 333 333 333 333 333 332 333 332 332 331 331 331 331 331 331 331 331 330 330 330 329 329 330 330 330 329 329 329 328 328 328 328 329 329 329 329 329 329
334 332 332 332 332 332 333 333 333 332 332 332 332 332 332 331 331 332 333 332 332 333 334 333 333 333 333 333 332 332 332 332 332 331 331 331 331 331 331 331 331 330 330 329 329 329 329 330 330 329 329 329 329 328 328 327 328 328 329 329 329 329
334 333 331 332 333 332 333 333 332 332 332 332 332 332 332 332 332 332 333 333 333 333 333 333 333 332 332 332 332 332 332 332 332 331 331 331 331 331 331 331 331 331 330 329 329 329 329 330 330 329 329 328 327 328 328 328 327 328 329 329 329 329
334 333 332 332 333 332 332 332 331 331 331 331 332 332 332 332 332 333 334 334 333 333 333 332 332 332 332 331 332 332 332 331 331 331 331 331 331 330 331 331 331 331 330 330 329 329 329 329 329 329 328 328 327 328 328 327 327 327 327 328 328 328
334 334 334 333 333 332 332 331 330 331 332 332 332 332 333 333 333 334 334 333 333 332 332 332 332 332 332 332 332 331 331 331 331 331 331 332 332 331 331 331 331 331 331 330 330 329 329 330 329 327 326 328 328 328 328 327 327 327 326 327 327 327
335 334 334 333 332 332 332 332 332 332 332 332 332 332 333 333 334 333 333 333 332 332 332 332 332 332 332 331 331 331 331 331 331 331 331 331 331 331 331 331 331 331 331 331 330 330 330 330 329 328 326 328 328 328 328 327 326 327 327 327 327 327
335 334 333 333 333 332 333 333 333 333 332 333 333 333 333 333 333 333 333 333 332 332 332 332 332 332 332 331 330 330 330 330 330 330 330 330 331 331 331 331 331 331 331 331 331 331 331 330 330 329 328 328 328 327 328 328 327 327 327 327 326 325
335 334 333 333 333 333 333 333 333 333 333 333 333 333 332 332 332 332 333 333 332 331 331 331 331 331 330 329 328 328 328 328 328 328 328 329 330 330 330 330 330 331 331 331 331 331 331 331 331 330 329 329 328 327 327 327 328 327 326 326 326 325
334 334 333 333 333 333 332 332 332 332 332 332 332 332 332 332 332 333 333 332 330 329 329 329 329 329 327 326 326 326 326 326 326 326 326 326 328 328 328 328 329 329 330 330 330 330 330 331 331 330 329 329 328 328 327 327 327 327 326 326 326 325
334 334 332 331 332 332 332 331 331 331 331 331 332 332 332 332 333 333 332 330 329 328 327 328 327 327 326 326 325 325 325 325 325 325 325 325 326 326 327 327 328 328 328 329 330 329 330 330 330 330 329 329 328 328 328 328 327 326 327 326 325 325
333 332 330 329 331 332 331 331 331 331 330 330 332 332 332 332 332 332 330 329 328 327 327 327 326 326 325 325 325 325 325 325 324 325 325 326 326 326 326 327 327 327 327 328 328 328 328 328 329 330 329 329 329 329 328 328 327 327 327 326 325 325
328 329 329 330 331 330 330 331 330 330 330 330 332 332 332 332 331 330 328 327 327 327 326 326 326 326 325 325 324 324 324 324 324 324 325 326 326 326 326 326 326 326 326 327 326 327 327 328 328 330 330 328 328 327 327 327 327 327 327 325 325 324
327 328 329 330 330 329 331 330 326 327 331 331 332 332 331 330 329 328 328 327 326 325 325 325 325 325 324 324 324 323 323 323 324 324 325 325 325 325 324 322 320 320 321 322 323 325 326 326 327 328 329 328 326 326 326 326 327 327 326 326 325 323
328 330 329 329 329 329 330 327 322 325 330 331 330 331 329 328 328 327 327 326 325 324 324 325 325 324 323 324 324 324 324 324 324 324 323 323 322 321 319 317 316 316 317 318 319 323 324 325 326 327 328 327 326 325 325 325 326 326 326 326 324 323
329 330 330 329 329 327 327 327 325 327 329 328 328 328 327 327 327 327 326 326 325 324 324 324 324 323 323 323 324 324 324 323 323 322 321 320 319 317 316 316 315 316 317 319 319 321 322 323 325 326 327 326 326 325 324 325 326 325 325 325 324 322
328 330 331 331 330 328 327 329 329 329 329 327 327 327 326 326 326 326 326 326 325 324 324 324 323 322 322 324 324 323 322 322 322 321 321 320 318 315 314 315 315 316 318 320 320 321 321 322 324 325 327 326 326 325 323 324 325 324 324 323 322 321

ECMWFFLT2_925_thetae_078.txt.gz
Theta_e
343 344 344 344 343 340 338 338 338 336 335 335 336 337 337 337 337 338 338 339 338 339 338 338 338 337 337 338 338 337 337 337 336 336 334 333 332 332 331 330 330 330 330 332 334 335 335 335 334 334 334 333 333 336 337 336 335 335 334 334 333 331
344 345 344 343 342 341 339 340 340 337 336 336 335 335 337 338 339 339 338 339 338 338 338 338 338 338 337 337 337 337 337 337 337 336 335 333 332 331 330 330 330 329 329 331 333 335 335 335 335 335 334 334 336 337 337 336 336 335 334 333 333 331
345 346 345 343 342 342 342 342 342 340 337 336 334 337 339 340 340 339 338 340 339 339 338 337 337 337 337 336 335 335 336 336 336 336 335 334 332 331 330 330 330 329 328 330 332 334 336 337 336 335 334 336 337 336 337 337 336 336 334 334 332 331
345 345 345 344 343 342 341 341 342 340 337 337 338 340 341 341 341 340 341 342 341 341 339 337 336 335 336 336 333 333 334 335 335 334 334 334 333 331 330 329 329 328 328 330 333 334 335 338 338 337 337 337 338 337 337 336 336 336 334 334 332 330
344 344 344 344 344 342 340 341 342 339 338 340 340 341 341 341 342 343 343 341 341 341 339 338 337 335 335 336 335 333 334 334 333 332 332 333 332 331 331 330 329 329 331 332 333 333 334 337 338 338 338 338 337 337 337 336 336 336 335 334 331 331
343 344 343 343 343 342 341 341 341 338 339 342 342 342 341 341 341 342 341 340 340 340 339 338 337 337 336 336 336 335 335 334 333 332 331 332 332 332 332 332 331 331 332 332 332 334 334 336 337 338 338 338 337 336 336 335 336 336 335 334 331 331
343 344 343 343 343 343 342 342 340 339 340 341 341 341 341 341 340 340 340 340 339 339 339 338 337 337 336 336 336 336 335 334 332 332 333 333 333 333 333 333 333 333 331 331 331 332 334 335 336 337 337 337 336 336 336 334 335 336 335 334 332 332
343 343 343 342 342 342 341 341 339 337 338 339 340 340 340 341 340 339 339 340 339 339 338 336 336 336 336 336 335 335 334 333 333 333 333 333 334 334 334 335 335 335 333 331 330 331 333 334 334 335 336 336 336 336 335 334 334 336 336 334 333 332
342 342 342 341 340 340 340 340 339 336 335 337 339 340 340 339 338 337 338 338 338 338 337 335 335 335 335 335 334 334 334 334 334 333 331 331 332 332 332 334 334 334 335 333 332 331 331 333 333 334 335 336 336 335 335 335 335 336 336 336 334 332
341 341 341 339 339 339 339 339 338 334 334 336 339 340 339 337 337 337 337 336 335 336 336 334 334 334 334 334 333 333 334 334 334 333 331 329 330 331 330 331 331 331 332 332 334 333 332 332 332 332 334 335 336 336 335 335 335 335 336 336 335 333
341 341 340 338 338 339 338 337 335 333 334 336 338 339 338 337 337 338 338 336 333 333 335 335 334 335 335 334 333 333 334 334 334 334 333 331 331 331 330 330 330 330 330 331 334 335 333 333 332 332 334 335 336 335 335 335 334 334 335 336 335 333
341 341 340 338 338 337 336 336 335 333 335 335 336 338 338 337 338 338 337 336 333 332 335 335 335 335 334 334 335 335 335 335 335 334 334 334 333 331 329 329 330 330 330 332 334 334 334 334 333 334 334 335 336 335 335 335 333 334 335 336 334 333
340 340 339 338 337 336 336 336 335 335 336 335 336 338 338 337 338 336 335 336 335 334 335 335 334 335 335 336 336 336 336 336 335 334 334 335 334 333 331 331 331 331 332 333 334 334 334 335 335 336 336 337 336 335 335 334 334 335 336 336 334 333
340 339 338 338 336 336 336 335 334 336 336 337 337 337 337 337 337 336 335 336 336 336 335 334 333 335 337 337 336 336 335 334 334 334 334 334 334 334 334 334 333 333 334 334 334 334 334 335 335 336 336 337 337 337 336 334 335 335 336 335 334 334
339 338 337 337 336 335 335 334 335 336 335 336 337 337 337 336 335 335 335 335 336 336 335 335 335 336 337 337 336 336 334 334 334 334 334 334 334 334 334 334 334 334 334 333 334 334 334 334 335 335 335 336 336 336 336 335 335 335 336 335 334 334
339 338 337 336 336 334 334 334 335 336 335 335 337 337 336 336 334 335 335 335 336 336 335 335 335 336 337 336 336 336 335 334 334 334 334 334 334 334 334 333 334 334 334 334 334 334 334 334 334 334 334 335 335 336 336 335 334 334 334 333 334 333
338 338 337 336 335 334 333 334 334 334 334 335 336 337 336 336 335 335 335 335 336 336 336 336 336 337 337 336 336 337 336 335 334 334 334 334 335 334 334 333 333 334 334 334 334 334 334 334 333 333 333 334 335 335 335 335 334 333 334 333 333 332
337 336 335 335 335 334 332 333 334 333 333 334 335 336 336 336 336 335 335 335 336 337 336 336 336 336 337 337 336 336 335 334 335 334 334 335 335 335 335 334 334 333 333 334 334 334 334 334 333 332 333 333 333 334 334 334 333 333 333 333 332 332
336 334 333 335 335 334 333 333 333 332 332 333 334 336 336 335 336 335 335 335 335 336 336 337 337 337 337 337 337 336 335 334 335 335 335 335 335 335 335 334 334 333 333 333 334 334 333 333 332 333 333 333 333 333 333 333 333 332 332 333 332 332
335 334 334 335 334 334 334 333 332 332 332 333 335 336 336 336 336 336 336 336 336 336 336 337 337 337 337 337 337 337 335 334 335 335 335 335 334 334 334 333 333 333 332 332 333 333 333 332 332 332 333 333 333 333 333 333 332 332 332 332 332 332
335 334 335 335 335 334 334 333 333 333 333 334 335 336 336 336 336 336 336 336 336 336 336 336 336 337 337 337 337 336 335 334 334 334 334 334 334 334 334 333 333 332 332 332 332 332 332 332 332 332 333 333 333 332 332 332 331 331 331 332 331 331
336 335 335 335 335 334 333 334 334 334 333 334 335 336 336 336 336 336 336 336 336 336 336 336 336 336 336 336 336 336 335 335 334 335 335 334 333 334 333 333 333 333 332 333 332 331 331 332 332 333 334 333 332 332 331 331 330 330 330 331 331 331
336 335 335 335 335 334 334 335 334 334 334 334 335 335 335 335 335 336 336 336 336 336 336 336 336 336 336 336 336 335 335 335 335 335 335 334 333 333 333 333 333 333 332 332 332 331 332 332 332 332 332 332 332 331 331 331 330 330 331 331 330 331
336 335 335 335 335 335 335 335 335 334 334 334 335 335 334 334 335 335 336 335 335 336 336 335 336 335 335 335 335 335 335 335 334 335 335 335 334 334 334 334 333 332 332 332 332 332 333 332 332 332 332 332 332 331 331 330 330 330 330 331 330 330
336 335 335 334 334 335 335 335 335 334 333 334 334 334 335 334 335 335 335 335 335 336 336 335 336 335 335 335 335 335 334 334 334 334 335 335 335 334 334 333 333 333 332 332 332 332 333 332 333 332 331 331 331 330 331 331 330 330 330 330 330 330
336 335 334 335 334 335 335 335 334 333 333 333 333 334 335 334 335 335 335 335 335 335 336 336 336 335 335 335 335 335 335 334 334 334 334 334 334 334 334 333 333 333 332 332 332 332 332 332 332 332 331 332 331 331 331 331 330 329 329 330 329 329
336 336 335 334 333 334 334 334 334 334 333 333 333 333 334 334 335 335 335 335 335 336 336 336 336 336 336 335 335 336 335 334 334 334 334 334 334 334 334 334 333 333 332 332 332 332 332 331 332 331 331 332 332 332 331 331 330 329 329 329 329 329
336 335 334 332 332 333 333 333 334 334 333 334 333 333 335 335 335 335 335 335 336 336 335 334 335 335 335 334 334 335 335 335 335 334 333 334 335 335 335 334 334 333 333 333 333 332 330 330 331 331 332 331 332 332 331 331 330 329 330 329 328 328
334 332 331 331 331 332 333 334 335 335 334 334 334 334 335 334 334 335 336 335 334 334 333 333 333 333 333 332 332 333 333 333 333 332 330 331 332 334 335 335 334 333 333 333 333 332 330 330 331 331 331 331 330 330 330 330 330 329 329 329 328 328
332 329 330 331 331 332 333 333 333 334 335 335 335 334 334 334 334 335 335 334 333 332 332 332 332 332 331 331 330 330 330 330 330 329 327 327 329 331 333 334 334 334 333 333 333 332 330 329 329 329 330 330 330 330 329 329 329 329 329 329 328 328
330 328 331 331 331 333 334 333 332 334 336 336 335 334 334 335 335 335 334 332 331 331 330 330 331 330 330 329 329 329 329 328 329 328 327 327 327 328 329 331 333 334 334 333 332 333 332 330 330 330 330 330 330 330 329 329 329 328 328 329 328 327
329 329 332 331 332 333 334 334 333 334 335 334 334 334 335 335 335 334 333 331 331 330 329 329 329 329 330 330 329 329 328 328 328 328 327 327 327 326 327 328 330 332 333 333 333 333 333 332 332 331 331 331 329 328 329 328 328 328 328 328 328 327
330 331 332 331 332 333 333 333 333 335 335 334 334 334 334 335 334 333 332 331 330 329 329 329 329 329 329 329 329 329 328 328 327 328 328 327 327 327 327 328 329 329 331 333 333 333 333 333 332 332 331 331 329 328 329 329 328 328 328 328 327 327
331 331 331 331 332 333 332 332 333 334 332 332 335 335 334 334 334 333 332 331 330 329 329 329 329 329 329 329 328 328 328 327 327 328 328 327 327 328 327 327 327 328 329 330 332 333 332 333 333 333 332 331 330 329 329 329 328 328 328 327 327 327
331 331 331 332 332 332 332 332 333 331 328 329 334 334 333 334 333 333 332 330 330 328 328 328 328 328 329 329 328 328 327 326 326 327 327 327 327 326 325 324 324 324 325 326 330 331 331 332 333 333 333 332 330 330 329 329 329 328 327 327 327 326
332 332 331 332 332 331 332 332 329 326 326 328 332 333 333 332 332 331 330 329 329 328 327 327 328 328 329 329 328 327 326 325 325 325 326 325 325 324 323 323 323 323 323 324 327 329 329 331 332 333 332 331 330 330 329 329 328 327 327 326 326 325
332 332 331 332 332 331 332 331 326 324 328 330 331 332 332 330 330 330 330 329 328 328 327 327 328 328 328 328 327 326 325 324 324 324 324 323 322 322 322 323 323 324 324 324 325 326 326 328 331 332 332 331 330 329 329 329 328 327 327 327 326 324

ECMWFFLT2_925_thetae_084.txt.gz
Theta_e
341 337 337 339 337 336 337 337 337 338 339 339 340 341 342 343 342 341 340 340 338 338 338 336 335 335 334 334 335 336 337 338 339 339 338 337 337 336 335 334 334 334 335 334 334 333 332 332 334 335 336 338 337 337 334 333 335 334 333 330 329 330
340 338 339 337 335 335 335 336 337 338 340 340 342 341 342 342 341 339 338 338 339 340 339 338 338 337 336 335 335 335 336 336 337 337 336 336 336 336 335 334 334 334 334 335 334 333 333 332 333 335 336 338 337 337 336 335 335 334 333 329 329 331
339 338 340 336 335 335 334 336 337 338 340 340 341 341 341 340 339 337 337 338 339 339 339 338 339 339 337 337 336 335 334 333 334 334 334 335 335 335 335 334 334 334 334 336 336 336 334 332 333 333 334 338 338 336 336 334 334 335 333 328 328 331
338 339 339 336 335 334 335 337 337 338 339 339 340 341 341 340 339 339 339 338 338 338 338 338 338 339 338 338 337 335 334 333 331 332 332 333 333 334 334 333 334 333 334 336 338 338 337 335 334 332 333 338 337 334 335 335 334 334 332 328 327 330
339 339 337 336 335 334 336 337 338 339 338 339 340 340 340 340 340 340 340 338 337 338 337 337 338 338 338 338 337 336 336 335 333 333 333 332 331 332 332 333 333 333 333 334 336 337 337 337 335 334 337 338 335 334 335 335 334 334 331 328 328 329
340 339 338 337 336 336 336 337 340 340 338 339 339 339 339 340 340 338 338 338 338 339 338 336 337 338 337 338 337 337 338 337 336 334 333 332 332 332 331 331 333 333 333 333 335 335 336 337 336 337 339 338 336 334 334 334 335 334 331 329 330 330
340 339 338 338 337 337 337 338 340 339 337 337 337 338 339 339 339 338 338 339 338 338 338 337 337 337 337 337 337 337 338 336 336 334 333 334 333 332 331 331 332 332 333 334 334 335 335 336 336 337 337 337 335 333 333 334 335 335 332 331 332 331
338 338 339 338 339 339 339 340 339 337 336 335 336 338 338 339 339 338 338 337 337 336 337 337 336 337 337 337 337 336 336 335 335 334 333 335 334 331 331 333 333 333 334 335 334 334 335 335 335 336 336 336 333 332 332 332 335 335 333 332 332 330
339 340 340 339 340 340 340 340 339 337 336 336 338 339 339 340 339 338 337 336 336 336 336 336 336 337 337 336 336 336 336 334 334 333 333 334 334 332 333 334 334 334 335 334 334 334 334 333 333 334 334 333 332 332 331 331 334 335 333 332 332 330
341 341 340 341 341 341 341 340 339 338 338 338 339 339 340 340 338 337 338 336 336 336 335 336 335 336 336 335 336 336 335 335 334 334 334 334 335 335 336 336 335 336 336 334 333 333 332 333 332 332 332 331 332 332 331 332 334 334 333 332 331 330
341 340 341 341 342 342 341 340 340 339 338 340 339 339 339 338 337 338 337 337 336 335 334 335 334 335 335 335 336 336 335 335 335 336 336 336 336 336 337 336 336 336 337 336 335 333 332 333 332 331 331 332 332 332 330 332 334 333 333 332 330 330
340 340 341 341 341 341 341 340 340 339 338 340 340 339 338 336 337 338 338 337 336 335 334 335 335 334 334 335 336 335 335 336 335 335 335 336 336 336 336 334 333 335 335 335 334 333 332 332 332 331 331 332 332 332 330 332 332 331 333 332 330 329
340 339 339 340 340 340 341 339 338 338 338 338 339 338 337 336 337 338 338 337 336 335 334 334 334 334 334 334 335 335 336 335 335 335 335 336 335 336 336 333 333 335 334 333 332 332 332 332 332 331 331 332 332 332 331 330 329 330 333 332 330 329
340 339 340 340 340 340 340 339 337 338 337 337 337 337 337 337 336 337 338 337 336 335 334 334 334 334 334 335 335 336 336 336 336 336 335 335 335 335 335 334 334 335 334 334 333 333 335 333 331 331 332 332 332 332 331 330 330 332 333 332 332 331
340 339 340 341 341 340 339 338 336 337 338 337 337 337 337 337 337 336 337 336 336 335 334 334 335 334 335 336 335 335 336 336 337 336 335 334 335 335 335 335 334 334 334 334 335 335 335 333 330 331 332 332 332 331 332 331 331 332 333 332 333 332
340 339 339 340 340 340 339 338 337 338 338 338 337 336 337 338 337 336 336 335 335 337 335 334 334 335 336 336 334 334 335 336 337 337 336 336 336 335 335 335 334 335 335 335 335 335 335 332 330 331 332 332 333 333 333 332 332 332 333 333 333 332
340 340 339 339 340 339 338 336 337 337 337 338 336 335 336 337 337 336 337 335 334 336 335 334 335 336 336 336 335 335 334 335 337 337 337 337 336 335 336 336 336 337 336 336 336 335 334 332 330 331 332 332 334 334 333 333 333 333 332 333 333 333
341 340 340 340 340 339 337 336 337 337 336 337 336 336 336 337 336 336 337 335 334 335 334 334 336 336 336 335 335 335 335 335 336 337 336 336 336 336 336 336 336 337 336 335 334 334 334 332 331 331 331 331 333 334 332 333 334 333 332 332 332 332
340 340 340 340 339 339 337 335 336 337 337 337 335 336 338 337 337 337 336 334 335 336 335 335 336 336 335 334 334 335 335 335 335 336 336 336 335 335 335 336 336 335 334 333 332 333 333 332 331 331 331 331 332 333 332 332 333 333 332 332 332 331
339 339 339 338 338 338 337 334 333 334 335 336 335 336 338 337 337 337 336 335 336 336 335 336 336 335 334 334 334 334 334 334 335 335 334 335 334 334 335 335 334 333 333 333 332 332 332 331 331 331 331 331 333 334 331 330 332 333 333 332 332 332
339 339 338 338 338 338 337 335 334 333 333 334 334 335 337 336 336 336 336 335 336 336 335 334 334 333 333 333 334 333 333 334 334 334 333 334 334 334 335 335 334 333 333 333 332 333 332 331 331 331 332 332 333 334 331 331 332 332 332 332 331 331
337 337 336 336 336 337 338 337 336 335 333 334 334 335 336 335 335 335 335 334 335 336 335 333 334 333 333 333 333 333 333 334 334 334 334 334 334 334 334 334 334 333 333 333 333 333 332 331 331 332 333 333 333 332 331 331 331 330 331 332 331 331
335 335 334 335 336 337 337 336 335 334 332 334 334 334 335 335 334 334 334 335 335 336 335 334 334 334 333 333 333 334 333 333 333 334 334 333 333 334 334 334 333 333 333 333 333 333 332 332 330 331 333 333 333 333 331 331 331 330 331 331 331 331
335 336 335 335 337 337 336 335 335 335 334 334 335 335 335 335 335 333 335 336 335 336 335 334 334 333 333 332 333 334 333 334 333 333 334 332 331 332 333 334 334 333 333 334 334 334 334 333 331 331 333 333 333 334 333 331 330 330 331 331 330 330
336 337 335 335 336 337 336 335 335 336 335 334 335 336 336 335 335 334 334 335 335 335 334 334 334 334 333 332 334 334 334 333 333 334 335 334 333 332 333 335 334 333 333 333 333 334 334 333 332 332 331 332 334 335 334 332 330 330 330 330 330 330
336 336 335 335 336 337 337 335 335 336 336 336 335 336 336 335 335 335 334 335 335 334 334 334 334 333 333 333 334 335 334 333 334 334 333 334 335 334 333 334 334 333 333 333 333 334 334 332 332 331 330 332 333 334 333 332 332 331 330 330 330 330
336 335 335 335 336 337 336 335 335 337 337 337 337 336 336 335 334 335 335 335 334 334 335 335 334 333 333 333 334 335 334 334 334 334 333 333 334 334 334 333 334 334 333 333 333 333 333 332 333 333 332 332 331 330 332 332 332 331 330 330 329 329
336 336 335 335 336 337 336 334 335 336 337 337 338 336 335 335 334 334 335 335 334 334 335 335 333 333 333 334 335 335 334 334 335 334 333 333 333 334 333 332 332 332 333 334 333 332 332 332 333 332 332 332 330 330 332 332 331 331 331 330 330 329
335 336 335 335 336 336 336 336 335 336 336 337 337 336 335 335 334 333 334 334 334 333 334 333 332 332 333 334 335 335 334 334 335 334 334 333 333 334 333 332 332 332 331 332 331 332 333 332 331 331 332 333 332 331 331 331 331 330 330 330 330 329
335 335 336 336 336 336 336 337 336 336 336 335 335 336 335 334 334 334 333 333 333 333 333 333 331 331 331 333 334 335 334 334 334 333 332 332 334 334 333 332 333 333 332 331 331 332 333 333 332 332 333 333 332 331 329 329 331 331 330 330 329 329
335 334 336 337 336 336 336 337 336 335 335 333 333 334 334 333 333 333 334 334 333 332 332 333 332 331 331 333 334 334 333 333 332 331 330 331 332 333 333 333 333 333 332 331 331 331 332 334 333 332 332 332 331 330 328 329 330 330 331 330 330 329
334 334 336 337 336 337 336 336 335 335 335 334 334 334 334 333 333 333 335 334 333 332 332 333 332 331 331 332 332 332 332 331 330 329 329 329 330 330 331 333 334 334 333 332 332 332 332 334 333 332 332 331 330 330 330 329 329 329 330 329 329 328
333 333 336 337 337 337 336 336 335 334 335 334 334 334 333 333 333 333 334 334 333 332 331 332 332 331 331 331 331 330 330 330 329 329 328 328 328 329 329 330 332 333 333 332 332 331 332 333 333 332 332 331 329 330 331 330 329 329 329 328 328 328
333 333 335 336 336 337 336 336 335 335 334 334 334 333 332 332 333 333 333 332 332 331 331 332 332 332 331 331 330 329 329 329 329 329 329 328 328 328 328 329 330 331 332 331 330 330 331 331 332 331 330 330 329 330 330 330 330 329 329 329 328 327
333 333 334 335 336 336 336 335 335 336 334 333 333 333 332 332 333 333 333 332 331 331 331 331 331 331 331 330 329 329 329 329 329 329 329 329 328 328 327 328 329 330 332 331 331 331 330 330 330 330 329 329 330 329 328 328 330 329 328 329 328 327
334 334 334 334 336 336 336 335 335 335 334 333 333 333 332 333 333 333 332 331 330 330 330 331 330 330 330 329 329 328 328 328 329 329 329 329 328 327 327 327 327 328 330 330 330 331 331 330 330 330 330 330 330 329 327 328 329 328 328 328 327 327
333 334 334 334 336 336 335 335 335 335 334 333 333 332 332 332 332 332 331 330 329 329 329 329 330 329 329 328 327 327 327 328 328 328 328 328 327 326 326 326 327 327 328 328 329 330 330 331 331 331 331 329 329 329 328 328 329 328 327 327 327 327

ECMWFFLT2_925_thetae_087.txt.gz
Theta_e
343 344 344 343 343 343 342 341 342 340 339 337 335 335 338 340 341 341 340 339 339 339 339 338 337 337 336 335 336 338 339 339 339 338 337 337 336 336 334 334 334 334 332 330 330 332 334 335 336 337 336 336 336 335 334 333 333 330 325 324 327 329
342 343 343 343 343 342 342 342 341 339 338 336 336 338 341 341 341 341 340 339 339 338 337 336 336 336 335 336 336 337 338 338 338 338 337 336 336 336 334 334 334 334 333 331 332 333 334 335 335 335 335 336 335 334 334 334 333 329 325 325 327 329
341 341 341 341 341 341 341 340 339 338 337 337 338 340 341 341 340 340 339 339 339 338 337 335 335 336 334 335 336 336 337 337 337 336 337 336 335 336 334 334 334 334 334 332 332 332 332 333 334 335 335 335 335 334 334 334 332 328 326 326 327 329
339 339 339 339 340 340 339 338 338 338 338 339 340 341 341 340 340 339 338 339 339 339 337 336 337 338 335 335 337 336 336 337 335 333 335 336 335 335 335 334 334 334 334 333 333 332 331 332 333 335 336 335 334 334 334 333 331 328 326 327 328 330
339 339 338 337 338 338 337 337 338 338 339 341 341 341 341 339 338 336 336 338 339 339 338 337 338 339 337 336 336 336 335 335 334 331 332 334 334 334 335 334 333 334 335 335 335 335 334 331 331 335 337 336 334 334 334 333 331 329 328 327 328 328
338 338 336 335 335 336 336 337 339 339 340 341 341 341 340 338 336 335 336 337 338 338 337 337 338 339 338 336 336 335 334 334 333 331 332 332 332 333 333 334 333 334 335 336 336 336 337 335 334 337 337 335 334 334 334 333 332 331 329 327 326 326
338 337 336 335 335 335 336 339 340 339 340 341 340 339 339 338 337 336 337 337 337 337 337 337 338 338 337 337 336 335 335 336 334 333 332 331 330 331 331 333 333 333 333 334 334 335 337 337 336 336 336 335 334 334 334 334 333 331 329 327 325 324
339 338 337 335 334 336 338 340 340 340 340 340 340 339 338 338 337 337 338 337 337 337 338 337 337 337 337 337 337 336 337 336 335 334 332 332 332 331 329 331 332 332 332 333 334 334 336 337 336 334 334 335 333 333 334 334 333 331 329 327 323 321
339 340 338 335 335 338 340 341 340 340 340 340 340 339 338 338 338 338 338 337 337 337 337 336 336 337 337 337 336 336 336 335 335 334 333 333 334 333 329 330 332 332 332 333 334 334 335 336 335 334 334 334 333 332 334 334 333 331 329 327 323 321
339 339 337 335 337 339 340 340 340 340 340 339 339 338 338 339 338 338 337 337 337 337 337 337 336 336 336 337 336 336 336 335 335 334 333 333 334 334 332 332 333 334 334 334 333 332 333 333 333 333 333 332 332 332 334 334 333 332 330 328 325 325
339 339 338 337 338 339 340 340 339 338 337 337 338 338 338 338 338 338 337 337 337 337 337 337 336 336 337 337 336 336 336 336 335 334 333 334 335 336 336 335 335 334 335 336 333 332 332 331 330 331 331 331 332 332 334 334 333 333 331 329 327 326
340 339 338 339 339 339 340 339 338 336 335 336 337 338 338 338 338 338 337 337 337 336 336 336 336 336 336 336 335 336 336 335 335 335 334 335 336 337 337 336 335 334 336 336 333 331 331 331 330 330 331 332 331 332 334 334 334 333 331 329 328 327
340 339 339 339 339 340 340 339 338 336 336 337 338 338 338 339 338 337 337 337 337 336 335 336 335 335 335 335 335 336 336 336 335 335 336 336 336 336 336 335 334 334 335 333 331 331 331 331 331 330 331 332 331 332 334 334 334 332 330 329 328 328
340 339 340 339 339 341 340 339 338 337 338 339 339 339 338 338 338 337 337 336 336 336 335 335 335 334 334 335 335 335 335 335 335 335 335 334 335 335 333 332 331 332 332 331 331 331 331 331 331 331 331 332 331 331 333 334 333 332 330 328 328 328
340 339 340 339 340 341 340 340 339 338 339 340 339 339 338 337 338 338 337 337 336 335 334 334 334 334 334 334 335 335 334 334 333 333 333 332 334 335 333 332 332 333 333 332 332 332 331 330 331 332 332 332 331 331 332 333 333 332 330 329 328 328
339 339 340 340 341 341 340 339 339 338 338 339 339 339 338 337 338 338 337 337 335 334 334 334 334 334 334 334 335 335 335 335 333 333 333 334 335 335 335 334 334 334 333 331 332 332 330 331 331 332 332 331 331 331 331 333 333 332 331 331 331 330
339 340 340 339 340 338 337 337 337 337 337 338 338 337 337 336 336 337 337 336 335 335 334 334 334 334 333 333 334 335 334 335 334 332 333 336 335 335 335 334 334 334 332 331 331 332 331 331 331 332 332 332 331 331 331 333 333 333 332 332 332 332
338 338 338 339 338 334 334 335 336 337 337 338 337 337 337 337 336 336 337 336 335 335 334 334 335 334 333 334 335 334 334 335 335 333 334 336 335 335 335 335 335 332 331 331 331 331 331 331 332 333 333 333 332 331 331 332 333 333 333 333 332 332
337 335 335 337 336 334 334 334 335 336 337 337 337 337 337 337 336 335 336 336 335 335 334 334 334 333 334 335 335 335 334 334 335 335 336 336 335 335 335 336 336 331 329 331 331 332 331 331 332 332 333 333 332 332 332 333 333 333 333 333 332 332
334 334 334 334 336 336 334 333 334 335 336 336 336 336 336 335 336 335 336 335 334 334 334 334 334 334 335 335 335 334 334 333 334 336 336 336 335 335 335 336 336 332 330 331 331 332 331 331 331 331 332 332 330 331 332 332 332 332 332 332 331 331
336 335 334 333 335 336 335 334 335 335 336 335 335 336 336 336 336 336 335 334 333 334 334 334 335 335 335 335 334 334 334 334 334 335 335 335 335 334 335 335 335 333 332 331 331 331 331 331 331 331 331 330 329 330 331 332 331 331 331 331 331 331
337 336 335 335 336 335 335 336 336 336 336 335 335 336 336 336 336 336 335 334 333 335 335 334 335 335 335 334 333 334 334 334 334 334 334 334 334 334 335 335 334 333 333 332 331 331 331 332 332 331 329 328 329 330 330 330 330 330 330 330 330 331
335 335 336 336 336 335 334 335 335 335 335 335 335 335 336 336 336 335 335 334 333 334 335 335 335 335 334 333 333 333 333 333 334 334 333 334 333 334 334 334 333 333 333 333 332 331 331 331 332 331 330 330 330 330 330 328 328 329 330 330 330 330
334 334 335 336 336 335 334 334 334 334 335 335 334 335 336 336 336 335 335 335 334 334 334 334 334 334 332 332 333 333 333 333 334 334 334 333 334 334 334 333 333 333 333 332 332 331 331 331 331 331 331 332 329 330 332 330 328 329 330 331 330 329
335 334 334 336 336 336 335 334 333 333 334 334 334 335 336 335 336 335 334 335 335 334 335 334 333 333 332 332 333 333 333 333 333 333 334 333 333 333 334 334 333 333 333 332 332 332 331 331 331 331 332 331 330 331 333 330 329 329 329 329 329 329
336 335 335 336 337 336 335 334 333 333 333 334 333 334 336 335 335 335 334 334 335 335 335 334 334 333 333 332 332 333 333 333 333 333 334 333 332 332 333 334 333 332 332 332 333 333 332 331 331 331 331 331 332 333 331 329 330 330 328 328 328 329
336 336 335 336 337 336 335 335 334 332 333 334 333 334 336 335 334 334 334 335 335 336 335 334 334 334 333 332 333 334 334 333 333 333 334 334 332 332 332 333 332 332 331 332 333 333 333 332 332 331 331 331 331 331 330 329 330 330 330 330 329 329
336 336 335 335 336 336 335 335 334 333 333 334 334 335 335 335 334 334 334 335 335 335 335 334 334 333 333 332 333 334 334 333 333 333 334 334 333 332 332 332 332 332 331 332 333 332 332 332 331 332 332 331 331 330 329 330 329 329 330 330 329 328
336 336 335 335 336 336 335 336 335 334 334 334 335 335 335 335 334 334 334 335 335 334 334 334 334 333 332 333 333 334 334 334 334 334 333 333 332 332 332 331 331 331 332 332 333 332 332 331 331 332 332 331 331 331 330 330 329 328 328 329 329 327
333 334 335 334 335 335 335 336 336 335 335 335 335 335 335 335 335 335 334 334 334 334 334 334 334 333 333 333 333 334 334 334 334 334 334 333 332 332 332 332 331 331 333 333 332 332 332 332 331 331 331 331 332 331 330 330 329 328 328 328 328 327
332 334 334 334 336 336 335 335 335 335 335 335 335 335 334 334 334 335 334 334 334 333 334 334 333 332 333 333 333 333 332 333 332 333 333 333 333 333 332 332 332 331 332 331 331 332 332 331 331 332 332 331 331 331 330 331 329 328 328 327 328 327
333 333 335 335 336 337 336 335 335 335 335 335 335 334 334 333 333 334 334 334 333 332 333 333 332 331 331 332 333 332 332 332 331 331 332 332 333 333 332 332 333 332 331 331 331 332 332 332 331 332 332 331 330 329 330 331 330 329 328 327 327 327
333 333 335 335 336 337 336 334 334 334 334 335 336 335 334 333 333 333 333 333 333 332 332 332 331 331 331 331 332 331 331 331 331 330 330 331 332 332 332 333 333 333 332 331 331 331 332 333 331 331 332 330 329 328 328 330 330 329 328 327 327 326
333 333 335 336 336 337 335 332 332 331 331 334 335 334 334 334 333 333 333 333 333 332 333 332 331 331 331 331 331 330 330 330 330 329 329 329 329 330 331 332 333 333 332 332 331 331 332 332 332 332 331 330 329 329 329 328 329 329 328 327 326 325
333 333 335 336 336 336 335 330 329 330 332 333 334 334 333 333 334 334 334 333 333 333 332 332 331 331 331 330 330 330 329 329 328 329 329 329 329 329 330 331 332 332 332 331 330 331 332 332 332 332 331 329 330 331 330 328 328 329 328 328 326 325
332 333 335 336 336 336 334 331 329 330 332 332 332 333 333 333 333 333 333 332 332 332 332 332 331 331 330 330 329 329 328 328 328 328 328 328 328 329 329 329 330 332 331 330 329 330 330 330 331 331 330 329 329 330 330 329 329 328 327 327 326 325
332 333 334 336 336 333 331 331 330 330 332 331 331 332 332 333 333 332 332 331 331 331 332 331 331 330 330 329 329 329 329 328 327 327 326 326 327 328 328 328 329 330 331 330 330 330 329 329 329 329 329 330 329 328 329 329 329 328 327 327 325 325

ECMWFFLT2_925_thetae_093.txt.gz
Theta_e
345 345 343 341 340 339 339 337 335 334 332 334 335 336 337 335 336 337 338 339 339 339 337 336 335 336 337 337 338 337 337 337 335 333 332 331 330 328 323 318 318 322 331 336 336 335 335 334 334 334 333 333 330 327 324 322 322 324 326 327 328 329
345 344 343 342 341 340 340 339 336 334 334 337 338 338 337 335 336 337 339 340 340 340 338 337 334 335 337 337 337 336 337 336 335 334 332 331 331 330 326 320 319 325 334 337 336 335 335 334 334 334 333 332 329 327 324 322 322 324 326 327 328 329
345 344 343 342 342 341 341 339 336 334 336 340 340 339 336 335 337 338 339 340 340 339 339 337 335 335 335 337 337 336 336 336 335 334 332 332 332 332 329 322 321 328 335 336 336 335 334 334 334 333 333 331 330 327 324 323 323 325 326 328 329 330
344 344 344 343 343 342 341 338 334 335 340 341 341 339 336 336 337 338 339 339 339 339 339 337 336 335 335 337 337 336 336 336 335 334 333 332 332 332 330 325 323 331 335 335 336 335 334 334 333 333 332 332 330 327 325 325 325 326 328 329 330 329
344 344 344 344 343 342 341 337 335 338 342 341 341 339 337 336 337 339 338 338 338 339 339 337 336 336 336 337 337 336 336 336 335 334 333 332 332 332 332 328 327 332 334 334 335 335 335 334 333 333 332 332 330 328 327 326 326 328 328 328 327 328
344 343 343 343 342 342 341 338 337 340 342 342 341 339 338 338 338 339 338 338 339 339 339 338 336 336 337 336 337 336 335 336 335 334 334 332 332 333 332 330 330 333 332 332 333 333 334 334 333 333 332 332 330 328 328 327 327 328 328 327 326 328
343 343 342 343 342 342 341 339 339 341 341 341 341 339 340 339 339 339 338 339 339 338 338 337 336 336 336 335 336 336 335 335 334 333 334 333 333 333 332 331 332 332 331 331 333 334 335 335 334 333 333 331 330 329 329 328 328 328 328 327 326 328
340 341 342 342 341 341 342 341 340 341 340 340 340 339 340 340 340 339 338 339 338 336 336 336 337 336 334 333 334 335 335 334 332 331 334 334 333 333 332 332 331 331 332 333 334 335 335 335 334 333 333 332 330 330 329 328 328 327 326 327 327 328
339 341 342 341 340 341 343 342 340 340 340 339 339 339 339 340 339 339 338 337 337 335 334 336 337 336 334 333 333 333 333 333 331 330 333 333 333 333 333 332 332 332 334 335 334 334 332 334 335 333 333 332 331 330 329 328 327 326 325 326 329 328
339 341 342 341 340 341 342 341 341 340 339 338 337 338 339 340 339 339 338 337 337 335 333 336 337 336 335 334 333 333 333 333 332 331 331 331 331 333 333 333 333 333 334 334 333 333 332 334 336 334 333 333 332 331 330 328 327 326 326 327 327 325
339 341 341 340 339 340 340 339 340 338 338 338 338 338 339 340 340 339 338 336 338 337 335 335 337 337 336 335 334 334 334 333 332 330 330 330 330 331 333 332 332 333 333 332 333 333 332 334 336 335 333 333 332 331 330 328 326 325 326 325 323 322
340 340 340 339 339 339 337 337 339 338 339 339 339 339 339 339 339 339 338 337 337 338 337 336 337 337 336 336 335 335 334 333 332 331 332 332 331 331 331 332 333 333 333 333 333 332 333 336 337 334 333 333 332 332 330 328 326 325 325 324 322 324
340 340 339 338 339 338 336 335 337 337 337 338 338 339 339 337 337 338 338 336 336 337 337 336 336 336 336 336 335 335 334 333 333 332 333 333 333 332 330 331 333 334 334 333 332 333 335 337 336 334 332 333 332 332 330 328 326 325 325 324 324 325
340 339 338 337 337 336 334 333 334 335 336 336 336 337 338 337 336 337 336 336 337 337 337 337 336 336 336 336 335 335 334 334 333 333 333 333 333 333 331 332 333 334 333 332 332 334 336 335 334 333 332 333 333 332 330 328 327 326 325 325 326 326
339 339 338 336 334 333 332 330 332 334 335 336 335 335 336 336 336 337 336 335 336 337 338 337 336 336 336 336 335 335 335 334 334 334 333 334 335 334 333 334 334 333 332 331 333 334 334 333 332 332 333 333 333 332 331 329 327 326 326 326 326 327
339 339 338 336 333 332 332 331 331 333 334 334 334 335 335 336 337 337 337 336 336 337 337 337 337 336 336 336 335 335 335 335 335 335 334 335 335 335 335 334 333 333 332 331 331 332 331 331 331 332 333 334 333 333 332 330 328 326 326 326 326 327
339 339 337 336 334 332 333 333 333 333 333 333 333 334 336 336 337 337 337 337 337 336 336 337 337 336 336 336 335 335 335 335 335 335 335 335 335 335 334 334 333 332 332 330 330 330 331 331 331 332 333 333 333 333 333 331 328 327 327 327 327 327
339 339 338 336 334 333 333 333 335 335 334 334 333 334 335 335 335 336 338 337 337 336 336 337 337 336 336 335 335 335 335 335 335 335 335 335 334 333 333 333 332 331 331 330 330 331 331 331 331 331 333 333 334 334 333 331 329 328 328 328 328 328
339 338 338 337 335 335 334 335 336 336 335 335 335 335 335 335 335 337 337 337 337 336 337 337 336 336 335 335 334 335 335 334 334 335 334 334 334 333 333 333 332 330 330 330 330 331 331 331 331 332 333 334 334 333 333 332 330 329 329 329 328 329
339 339 339 337 336 335 335 336 336 336 336 336 335 335 335 336 337 337 337 337 337 336 336 336 335 336 334 334 335 334 335 334 333 333 333 334 334 334 334 333 332 331 330 330 331 331 331 331 330 331 332 333 333 333 332 332 331 330 330 329 329 330
339 339 339 337 336 335 335 336 336 336 337 336 336 335 336 337 337 337 337 337 336 335 335 335 335 335 334 334 335 334 334 334 333 333 334 334 334 334 334 333 332 331 330 330 331 331 331 330 329 330 330 331 332 332 331 331 331 330 330 330 330 331
338 338 338 337 336 335 335 336 336 336 336 335 336 336 336 336 337 337 337 335 335 333 333 334 334 334 333 333 334 334 334 334 332 333 335 335 334 334 333 333 332 331 330 330 331 331 331 330 329 329 329 329 329 330 330 330 330 328 328 330 330 330
337 337 336 335 335 335 336 336 335 335 335 335 335 336 337 337 337 337 336 334 334 333 332 332 333 333 333 333 334 334 334 334 332 333 335 335 335 334 333 333 332 331 331 330 330 331 331 330 329 329 329 330 329 329 329 329 329 328 328 329 329 329
335 334 334 334 334 334 335 335 335 335 335 335 336 336 337 337 337 337 336 335 334 334 333 332 333 333 333 332 333 333 334 334 333 332 334 335 335 334 333 333 332 331 331 330 330 331 331 330 330 330 329 329 329 329 330 329 328 328 328 328 328 329
333 332 333 334 334 334 334 334 335 335 334 335 335 336 336 336 336 336 335 335 335 335 333 333 333 334 334 333 333 333 333 334 334 333 334 335 334 333 333 333 332 332 331 330 331 331 331 330 330 330 329 329 329 329 330 329 328 328 328 328 329 329
333 333 333 333 334 334 333 334 334 334 334 334 335 335 336 335 335 335 334 334 334 334 333 333 333 334 334 334 333 334 333 333 334 334 334 335 334 333 333 333 332 332 331 331 331 330 331 330 330 329 328 328 329 329 329 328 329 329 328 328 328 329
334 334 334 333 334 333 333 333 333 333 334 334 335 335 335 335 334 334 333 333 333 334 333 333 333 334 335 334 334 334 333 333 333 334 334 334 334 333 333 332 332 331 331 331 330 330 330 330 330 329 328 329 330 329 327 327 329 329 328 329 328 328
335 335 334 333 333 333 333 332 333 333 333 334 334 334 334 334 334 334 331 330 332 334 334 334 334 334 335 334 333 334 333 333 333 333 333 333 333 333 333 332 332 332 331 331 330 330 330 330 330 329 329 330 330 329 327 327 327 327 328 329 328 327
334 335 334 333 332 333 332 333 333 333 333 333 334 334 334 334 334 334 331 330 332 334 334 334 335 335 335 334 333 333 332 333 333 333 333 333 333 333 332 332 332 332 332 331 331 331 331 331 331 330 330 330 330 328 327 327 327 327 327 328 329 328
333 333 334 333 333 333 332 332 332 332 333 333 333 333 333 334 334 334 333 331 333 334 334 335 334 334 334 333 333 333 333 333 333 333 333 333 332 333 333 333 332 332 332 332 331 331 331 331 331 330 330 330 329 328 327 327 327 327 326 327 328 327
332 332 333 333 333 333 333 333 333 333 332 333 333 333 333 333 333 334 334 333 333 333 334 334 334 334 334 333 333 333 332 333 333 332 332 333 332 332 333 333 332 332 332 332 331 331 331 331 331 330 330 330 329 329 328 327 327 327 326 325 326 327
332 332 333 333 334 334 334 334 334 333 332 332 332 333 333 333 333 334 333 333 334 333 333 334 334 334 333 333 332 332 332 333 333 332 332 333 332 332 332 332 332 332 332 332 331 331 332 331 331 330 330 330 330 329 328 328 328 327 326 325 326 326
333 333 333 333 334 334 334 334 334 334 332 332 332 332 333 333 333 333 333 333 333 333 333 333 334 334 333 333 332 332 332 333 333 332 332 332 332 332 331 332 332 332 331 331 331 331 332 332 330 330 330 330 330 329 328 328 328 327 327 325 325 325
333 333 333 333 333 333 333 334 334 334 333 332 332 332 333 333 333 333 332 333 333 332 332 333 333 333 333 333 332 331 332 333 333 333 332 332 332 332 331 331 331 331 331 331 331 331 332 331 331 330 330 330 330 329 328 328 328 327 327 326 325 325
333 333 333 333 333 333 333 334 334 334 334 333 332 332 332 333 333 333 333 333 333 332 332 333 333 333 333 332 332 331 332 333 333 333 333 332 332 332 331 332 331 331 331 331 331 331 331 331 331 331 330 330 330 329 329 329 328 328 327 326 325 325
331 331 333 333 333 333 333 333 334 334 333 333 333 332 333 333 333 333 333 333 332 332 333 333 333 332 333 333 332 332 332 333 333 333 333 333 332 332 332 332 331 330 331 331 331 330 330 331 330 330 331 330 330 330 330 329 329 328 327 326 326 326
329 329 330 331 331 332 333 334 334 334 334 333 333 333 333 333 333 333 333 333 332 332 333 333 333 333 333 332 332 332 332 332 332 332 332 332 332 332 332 332 331 331 331 331 331 331 331 331 331 330 331 330 329 329 329 329 328 329 328 327 326 326

ECMWFFLT2_925_thetae_096.txt.gz
Theta_e
344 342 342 341 340 338 337 335 333 333 334 334 336 337 337 336 336 337 337 337 337 335 333 334 335 335 336 337 336 335 333 329 330 329 327 324 319 317 317 322 328 333 335 335 334 334 333 332 333 333 331 328 324 321 320 323 325 327 328 329 329 329
344 342 341 340 339 338 337 335 334 334 336 336 336 337 337 337 338 338 338 338 337 335 334 335 336 335 334 336 337 336 334 331 330 331 330 327 322 318 319 325 331 334 335 334 334 333 334 333 333 333 330 328 324 322 322 324 325 326 327 328 328 329
343 343 341 340 339 339 338 336 335 336 336 336 336 338 337 336 338 339 339 339 337 336 334 334 336 335 334 336 337 337 335 332 331 331 331 330 326 320 322 329 334 335 335 334 334 333 333 333 333 332 330 327 324 323 323 324 325 326 327 328 328 329
343 343 341 340 338 339 339 337 337 336 336 337 338 339 337 335 337 338 339 340 338 336 335 334 334 335 334 335 337 337 336 334 332 332 332 332 329 323 324 332 335 335 335 334 334 334 333 333 333 332 329 327 325 325 325 325 325 326 328 329 330 329
344 343 342 341 339 339 340 338 338 337 337 338 339 339 337 335 337 337 339 341 339 338 336 334 335 335 335 336 337 336 336 334 332 332 332 332 331 326 326 333 335 335 335 334 333 333 333 333 332 331 330 328 326 326 326 326 326 326 327 328 329 329
344 344 343 342 341 340 340 340 339 338 338 339 340 339 336 335 338 338 340 341 340 339 337 336 337 336 335 336 336 336 335 335 333 332 332 332 332 329 328 332 334 335 334 334 333 333 333 333 332 332 330 328 328 328 327 326 326 326 325 325 328 329
344 343 343 343 342 342 341 340 339 339 340 340 340 340 337 337 339 339 339 339 339 339 338 336 337 336 336 337 337 336 335 334 333 333 333 332 332 330 330 331 333 334 334 334 334 333 333 333 332 332 331 329 329 328 328 327 326 326 324 324 328 330
343 342 343 343 342 342 341 340 338 339 340 339 340 340 338 338 339 338 338 338 338 339 338 337 337 336 336 337 336 336 335 335 334 333 333 332 332 331 331 331 332 332 332 333 334 334 333 332 332 332 331 330 329 329 328 327 327 327 325 324 328 330
341 341 342 343 342 342 341 340 338 338 340 339 339 339 338 338 338 338 338 338 337 337 337 336 336 336 336 335 336 336 335 335 333 332 333 333 332 332 331 331 332 333 334 334 334 334 333 333 332 332 332 330 329 329 328 328 327 328 326 325 327 329
341 341 341 342 342 341 341 340 338 339 340 339 339 339 337 338 338 338 338 337 337 336 334 334 335 336 335 334 334 335 335 334 331 331 333 333 333 332 332 331 332 334 335 334 333 332 333 333 333 332 331 330 330 329 328 327 327 327 326 326 327 327
341 341 341 342 341 340 342 341 339 339 340 339 339 337 336 337 337 337 337 337 337 336 333 333 335 336 334 333 333 334 334 333 330 329 331 333 333 332 332 332 331 333 334 333 332 332 332 333 334 332 331 330 330 329 328 327 327 327 326 327 326 326
340 340 341 341 340 339 342 342 339 339 340 339 338 336 335 336 336 336 337 337 336 335 334 333 335 336 335 334 333 333 333 332 331 330 330 331 332 332 332 332 331 333 333 332 332 332 332 333 334 333 332 331 330 329 328 327 326 326 326 326 324 326
339 340 340 341 339 338 340 340 338 339 339 338 337 335 334 334 335 336 337 337 336 335 335 334 335 335 335 335 334 333 333 333 331 330 329 330 330 331 332 332 332 332 332 332 332 332 331 333 335 334 332 331 330 330 328 327 326 326 326 324 323 325
339 339 339 340 339 338 338 338 337 339 339 337 337 336 334 332 333 337 337 337 336 335 336 336 335 335 336 336 335 334 334 333 332 331 330 331 331 331 331 331 332 332 333 333 332 332 332 333 335 333 332 331 331 330 328 327 326 326 325 323 322 325
338 338 338 338 338 336 337 337 336 336 337 337 336 337 335 330 330 335 337 336 335 335 336 335 336 336 336 336 335 335 334 333 333 332 332 332 333 333 331 331 333 333 333 332 332 332 333 334 334 333 332 331 331 330 328 326 326 326 325 324 324 326
339 338 338 337 336 336 336 335 334 333 335 337 336 337 335 331 331 333 335 336 335 334 335 335 336 336 336 335 335 335 335 333 333 333 333 332 333 333 331 332 334 333 332 332 332 333 333 334 334 333 332 332 331 330 328 327 326 326 325 325 326 327
338 338 337 336 336 336 336 334 333 331 332 335 336 337 336 335 335 333 334 335 336 336 335 336 336 336 335 335 335 336 335 334 333 334 333 333 334 333 331 332 333 332 332 332 332 333 333 333 333 332 332 332 331 330 329 328 327 326 326 326 327 328
338 338 337 336 336 337 335 333 331 329 330 333 335 337 337 336 337 335 333 334 337 337 336 336 336 336 335 335 335 335 335 334 334 334 333 334 335 335 333 333 333 331 332 332 332 332 332 332 331 331 332 332 332 331 331 329 327 326 326 326 327 327
337 337 337 337 337 336 335 334 331 330 332 334 334 335 336 336 337 336 335 336 337 336 336 337 336 336 335 335 335 335 335 334 335 334 334 334 335 335 334 333 332 331 331 331 331 331 330 330 331 331 332 332 332 332 332 330 327 327 327 327 327 326
337 338 337 338 338 336 335 334 333 333 334 334 334 335 335 335 336 337 337 336 336 336 336 336 336 336 335 335 336 335 334 334 335 335 334 335 334 334 333 332 332 331 330 330 330 330 329 330 331 332 332 332 332 332 332 331 328 328 328 328 328 328
338 338 338 338 336 333 333 333 333 334 334 334 334 334 334 334 335 335 335 334 335 336 336 335 335 335 335 335 335 334 333 333 335 335 335 335 334 333 333 332 331 330 330 329 329 329 329 330 331 331 332 331 331 331 331 331 329 329 329 329 329 329
338 338 337 337 335 332 332 332 333 333 333 334 334 333 333 333 334 334 334 335 335 336 335 335 335 334 334 334 333 333 333 333 334 334 334 334 334 333 333 332 331 330 330 329 329 328 329 330 330 331 330 330 329 329 329 329 330 330 329 328 328 328
338 337 336 335 334 332 332 332 333 334 334 334 334 334 334 333 333 334 335 335 335 335 335 335 335 334 334 333 333 334 334 334 334 334 334 334 334 334 333 332 331 330 329 329 328 329 329 329 329 329 329 330 329 329 329 328 329 329 328 328 328 327
336 336 335 334 333 332 332 332 333 334 335 335 334 335 335 334 334 334 335 335 334 334 333 333 335 334 333 333 333 334 334 334 334 333 333 333 334 334 333 332 330 331 330 329 329 328 329 329 328 328 329 329 328 330 330 329 328 328 327 327 328 328
334 334 334 333 332 332 332 333 334 334 334 334 335 335 336 335 334 334 335 334 332 333 332 332 332 332 333 333 332 333 333 333 333 333 333 333 334 334 333 332 331 331 330 330 329 328 329 329 328 328 328 328 329 330 329 328 328 328 328 327 328 328
334 334 333 333 333 332 333 333 334 334 334 334 334 335 335 335 335 334 334 333 333 333 332 332 331 332 332 332 332 332 333 333 333 333 333 333 335 334 333 332 331 331 331 331 330 328 329 329 328 328 327 327 328 328 327 328 328 328 328 328 328 328
333 333 333 333 333 333 333 334 333 334 334 334 334 334 334 335 335 335 334 334 333 333 332 332 331 332 332 332 332 332 333 333 333 333 333 333 334 334 334 333 332 331 331 331 330 329 329 329 328 328 327 327 328 327 326 327 327 327 328 328 328 328
334 333 333 333 333 333 333 334 334 333 334 334 334 333 334 335 335 335 334 333 333 333 332 332 332 332 333 333 332 332 332 332 333 334 333 333 334 334 334 333 332 331 331 331 330 330 330 330 329 328 327 328 329 327 326 326 326 326 328 328 328 328
333 334 333 333 333 333 333 333 333 333 333 333 334 333 334 335 334 334 333 333 332 332 332 332 332 332 333 334 333 332 332 332 333 334 333 333 334 334 333 333 332 332 331 330 330 330 330 330 330 329 328 329 329 327 326 326 326 326 326 327 329 327
333 334 333 334 333 332 332 333 333 333 333 333 333 334 334 333 333 333 333 332 332 331 332 333 333 332 333 333 333 333 332 333 333 333 332 333 333 333 333 333 332 332 331 330 330 330 330 330 330 329 328 328 328 327 326 326 326 326 326 326 327 327
333 333 333 333 333 332 332 331 332 332 333 333 333 333 333 333 333 332 332 332 332 331 332 333 333 333 333 333 333 332 333 334 333 333 333 333 333 333 332 332 332 332 331 331 330 330 330 330 330 330 329 329 329 328 327 327 327 326 325 325 326 327
332 332 332 332 331 332 332 331 332 332 332 333 333 333 333 333 332 332 332 332 332 332 332 333 333 333 334 334 332 332 333 333 333 333 333 333 333 332 332 332 332 332 332 331 331 331 330 330 330 330 329 329 329 329 328 328 327 327 325 325 326 327
331 330 330 330 330 331 333 332 332 332 332 332 332 332 333 332 332 332 332 332 331 331 332 333 333 333 333 334 333 332 333 332 332 332 333 332 332 332 332 332 332 332 332 332 332 331 331 331 330 330 330 329 329 330 329 328 327 327 326 325 325 326
331 331 331 330 330 332 333 333 332 332 332 332 332 332 333 332 333 332 332 332 331 332 332 332 333 333 333 333 333 333 332 332 332 332 332 332 332 332 331 331 332 332 332 332 332 332 331 331 331 331 331 330 330 330 329 328 327 327 326 325 324 325
332 332 332 331 331 332 333 333 333 333 333 333 332 332 332 332 332 332 332 331 331 331 332 332 332 332 333 333 333 333 332 332 332 332 332 332 332 333 332 331 331 331 332 332 331 331 331 331 331 331 330 330 330 330 329 328 328 327 327 325 324 324
331 332 332 332 332 332 332 332 333 333 332 332 332 332 332 332 332 331 331 331 331 331 331 331 332 332 332 333 333 333 332 331 332 333 332 332 332 333 332 331 331 330 331 331 331 331 330 330 331 331 330 330 330 330 329 328 328 327 327 326 325 325
329 331 332 331 331 331 330 331 331 332 332 331 333 333 332 332 332 331 331 331 330 330 331 331 332 332 332 332 332 332 332 331 332 333 333 332 332 332 332 331 331 331 331 330 331 330 330 330 331 330 330 330 330 329 329 328 328 328 327 326 325 324

ECMWFFLT2_925_thetae_102.txt.gz
Theta_e
345 344 344 343 342 341 338 337 336 335 335 336 336 336 336 336 337 337 334 335 337 338 338 337 337 336 333 332 329 328 329 329 329 329 328 328 325 325 330 334 334 334 333 333 332 331 329 324 321 320 320 326 332 335 335 334 334 333 333 332 331 330
346 345 345 343 342 342 340 339 339 338 337 336 337 337 338 338 339 339 336 336 338 338 338 338 339 338 336 335 331 326 327 327 328 327 325 323 322 325 331 334 334 334 334 333 333 333 331 326 322 321 325 332 334 334 335 335 334 333 333 332 331 330
346 345 345 344 342 342 341 340 341 341 339 338 337 338 339 340 340 340 338 338 339 339 338 339 339 337 338 338 333 327 326 326 326 326 324 321 321 326 331 333 334 334 333 333 335 336 335 331 325 324 331 335 334 335 335 335 334 334 333 332 331 330
345 345 346 345 343 343 342 342 342 341 341 340 339 340 341 340 342 342 340 341 341 339 339 340 339 337 337 339 335 330 328 327 326 324 323 320 321 328 332 334 334 333 333 335 338 338 337 335 330 330 334 335 334 335 335 335 334 334 334 332 331 329
344 345 345 345 344 344 343 343 343 342 343 342 342 343 343 342 343 343 342 343 342 341 341 341 340 337 336 338 337 335 332 332 332 328 325 326 327 331 334 336 335 334 336 337 338 337 336 336 334 334 335 335 335 335 335 335 335 334 333 332 330 328
345 345 345 345 345 344 344 344 344 344 344 343 343 343 344 343 343 343 343 343 342 342 343 342 341 339 338 338 337 337 335 335 336 333 332 333 334 334 335 337 336 336 338 338 337 337 337 336 335 335 335 335 335 335 334 335 335 334 333 332 329 329
346 345 346 345 345 345 344 344 344 344 344 343 344 343 344 343 343 344 343 343 342 342 343 342 342 341 340 339 337 337 337 336 336 334 334 335 335 336 336 337 337 337 337 337 337 337 336 335 335 335 335 335 335 335 335 334 334 333 332 332 330 329
347 346 346 345 345 345 344 345 344 344 343 343 343 344 344 343 344 343 342 342 342 342 342 342 341 341 341 340 338 337 337 337 335 334 334 334 333 335 335 337 338 337 337 337 336 335 335 335 335 335 335 335 335 335 335 335 333 332 332 332 331 329
347 346 346 346 345 345 345 345 344 344 343 343 343 344 343 342 343 343 342 342 342 342 342 341 341 341 341 341 339 337 337 337 336 335 335 334 332 333 335 336 337 337 337 336 335 335 334 335 335 334 335 335 334 335 335 335 333 332 332 333 332 330
347 346 346 345 345 344 345 345 345 344 343 342 342 342 342 342 341 342 342 342 342 342 342 342 341 340 341 341 340 338 337 337 337 336 335 334 332 333 334 336 337 337 337 336 336 335 335 334 334 334 334 334 335 335 335 334 333 333 333 333 333 330
346 346 345 345 345 345 344 344 345 343 343 342 341 341 341 341 340 340 341 342 342 341 341 341 340 340 340 340 339 339 338 337 337 336 335 335 334 333 334 335 336 336 337 336 336 335 335 334 334 333 334 335 335 335 334 334 333 333 333 333 332 331
345 346 345 345 345 344 343 343 344 343 342 342 340 341 340 340 340 340 341 341 340 340 340 339 338 338 338 338 339 339 338 338 338 337 335 335 335 333 333 335 336 336 336 337 336 336 335 335 335 334 334 335 335 335 334 334 333 333 334 333 332 332
344 345 345 344 343 343 342 342 342 342 342 341 340 340 339 340 340 339 339 340 339 340 340 338 337 337 337 338 339 337 337 338 338 337 336 335 335 334 333 334 335 336 336 336 336 336 335 335 336 335 335 335 335 335 334 334 334 334 333 333 332 332
343 343 344 342 342 342 342 341 341 341 341 340 339 339 339 340 340 338 338 339 339 339 338 338 338 336 337 339 338 338 338 338 337 337 336 336 336 335 334 333 334 335 335 336 336 336 336 336 337 336 336 336 335 334 334 334 333 333 333 333 332 332
341 342 342 341 341 342 343 341 341 341 340 340 338 338 338 338 338 338 338 338 338 338 338 338 337 335 336 338 337 337 337 338 338 337 336 336 336 335 334 334 332 333 335 336 336 337 336 337 337 336 336 335 335 334 334 334 334 333 333 333 332 332
340 341 341 341 340 340 342 340 340 341 339 339 339 337 337 336 336 337 338 338 337 337 337 337 337 335 335 336 336 335 334 336 337 338 337 336 336 336 335 335 333 334 336 336 336 336 336 337 337 337 336 336 335 334 334 334 334 333 333 333 333 333
340 340 341 341 339 338 340 338 338 339 338 338 338 338 337 336 336 337 338 337 336 336 336 335 336 335 334 335 336 336 334 334 336 337 337 337 336 335 336 336 335 335 335 335 335 336 337 337 337 337 337 336 335 335 334 334 334 333 333 333 333 333
339 339 340 340 339 338 338 338 336 337 338 338 338 338 338 337 337 337 337 337 335 335 335 335 335 335 335 336 336 336 335 335 335 335 336 337 337 336 336 336 336 335 334 334 334 336 337 337 337 337 337 336 336 335 334 334 334 333 333 333 332 332
339 339 339 339 338 337 338 338 336 336 338 338 337 337 336 335 336 336 337 337 335 333 334 335 335 335 336 336 336 336 336 336 336 334 334 336 337 336 336 336 336 335 335 335 334 335 337 337 337 336 336 336 335 335 334 334 333 333 333 333 332 332
339 339 339 338 338 336 336 337 336 335 336 336 336 336 334 334 335 335 335 336 335 332 332 334 335 336 336 336 336 336 336 336 336 334 333 334 336 336 337 337 336 336 336 336 334 335 336 336 336 336 336 335 335 335 334 333 333 333 332 332 332 332
339 339 338 337 338 337 337 336 335 334 334 335 335 335 334 333 334 335 335 335 335 334 333 334 335 336 336 336 336 336 336 336 336 335 333 333 335 337 338 337 336 336 336 336 335 335 336 336 335 335 334 334 334 334 334 333 333 332 332 332 332 332
339 338 338 337 337 337 337 336 335 335 334 334 335 335 335 335 334 335 335 335 334 333 334 335 335 335 335 336 336 336 336 336 336 335 334 334 335 336 336 336 335 335 335 335 335 335 335 334 334 334 333 332 332 333 333 333 332 332 332 332 332 332
338 338 337 336 335 336 336 336 335 334 334 335 335 334 334 335 335 334 335 335 333 333 334 335 335 335 335 335 335 335 336 335 335 335 335 334 334 334 335 335 335 335 335 334 335 335 335 333 332 332 332 331 331 332 332 332 332 332 332 332 332 332
338 337 337 336 336 335 335 335 335 334 334 335 335 334 335 335 334 335 336 335 334 333 334 335 335 335 335 335 335 334 335 335 335 335 335 334 333 333 334 334 333 334 334 334 333 333 334 333 332 332 331 331 331 331 331 331 331 331 331 331 331 331
337 336 336 337 336 336 336 335 335 335 335 335 335 335 337 337 336 336 336 336 336 334 334 335 336 335 334 334 334 333 334 334 335 335 335 334 334 334 334 334 333 332 333 333 333 332 332 333 333 333 331 331 331 331 331 331 331 330 330 331 331 331
337 335 335 336 335 335 335 335 335 336 336 336 335 336 337 337 336 336 336 336 335 335 335 335 335 335 334 333 333 333 333 333 334 335 335 334 335 334 334 333 333 332 332 333 333 332 333 333 334 333 331 331 331 330 331 332 331 330 331 331 331 330
335 335 336 335 335 335 335 335 335 335 336 336 336 337 338 337 337 337 337 336 335 335 335 335 335 334 333 333 334 333 333 333 334 334 334 335 334 334 334 333 333 332 332 332 333 333 334 334 333 333 333 333 332 332 332 332 331 331 331 331 330 330
335 335 335 335 334 335 335 335 335 335 336 336 336 338 338 338 338 337 337 336 335 335 335 335 334 334 333 334 334 333 333 334 334 334 334 334 334 334 334 332 332 332 331 333 334 333 334 334 333 332 333 333 332 332 333 333 332 331 331 331 331 331
335 335 335 335 334 334 334 335 335 336 336 336 336 337 337 338 338 338 336 336 336 335 335 334 334 334 333 333 333 333 333 333 334 334 334 334 334 335 334 332 333 333 333 334 334 334 333 333 333 332 333 333 332 332 331 332 332 332 331 331 330 330
335 335 336 335 334 334 334 334 335 335 335 336 336 336 336 337 337 337 336 335 335 335 335 334 334 334 333 333 333 333 333 333 333 334 334 334 334 335 334 334 334 335 335 335 335 334 334 334 333 333 332 332 332 331 330 331 331 331 331 331 330 330
335 335 335 335 335 335 334 334 335 335 335 335 335 335 336 336 336 337 337 336 335 335 335 334 334 334 334 334 333 333 333 334 334 334 334 334 334 335 335 335 335 335 336 335 335 335 335 335 334 333 332 332 332 332 331 331 331 331 331 331 330 330
335 334 334 334 335 335 335 335 335 335 335 335 335 335 335 336 336 336 336 336 335 335 334 333 333 333 333 334 334 333 333 333 334 334 335 333 333 334 334 334 334 335 335 335 335 335 334 334 333 332 332 332 331 330 330 331 330 330 331 331 330 330
335 335 334 334 334 335 334 334 335 335 335 335 335 335 334 335 336 335 335 334 334 334 334 334 333 333 333 333 334 333 332 333 334 334 334 333 332 334 334 333 334 334 334 334 335 334 333 333 332 333 334 334 331 329 329 329 329 330 331 330 330 331
333 333 333 334 334 334 334 334 334 334 334 334 334 334 334 334 335 334 334 335 334 334 334 333 333 333 333 333 333 333 333 334 334 334 334 333 332 333 333 333 333 333 333 334 334 333 334 334 334 334 334 333 331 330 329 330 330 330 331 331 330 331
331 331 332 333 333 334 334 334 334 334 333 333 333 333 333 334 334 333 334 335 334 334 334 333 333 333 333 333 333 333 333 333 334 334 334 333 332 333 333 333 332 332 332 332 332 332 333 334 334 335 334 333 331 331 330 331 331 330 331 330 330 330
329 329 330 331 332 333 332 332 332 332 332 332 332 332 333 333 333 332 333 334 334 334 334 334 333 333 333 333 333 333 333 333 334 334 333 333 333 333 332 332 332 332 332 331 331 332 333 334 334 334 335 334 332 331 331 331 330 331 330 330 330 330
328 329 329 330 330 331 331 330 330 331 331 331 331 332 332 332 332 331 331 332 333 334 334 334 333 333 333 333 333 333 333 333 333 334 334 334 334 332 332 333 331 331 332 331 331 333 334 334 334 334 334 334 331 330 332 332 331 331 331 330 330 330

ECMWFFLT2_925_thetae_105.txt.gz
Theta_e
343 343 343 343 341 341 339 335 335 336 336 335 337 339 338 338 338 337 337 337 337 338 339 339 338 339 339 338 338 338 337 334 333 332 331 327 327 332 333 334 333 332 332 331 328 323 320 319 321 330 335 336 337 338 337 335 334 334 334 333 332 331
343 342 342 343 342 342 339 337 338 338 338 337 337 337 337 338 337 337 337 336 338 339 340 339 339 340 339 338 336 336 335 333 333 333 332 328 326 331 334 334 333 332 333 331 329 328 324 321 326 333 335 336 338 337 338 336 335 335 334 333 331 330
343 343 342 343 342 342 340 339 340 340 340 339 337 337 338 338 339 339 337 337 339 339 339 338 339 339 337 339 336 331 331 332 331 331 331 328 326 330 333 334 334 332 332 333 335 335 332 328 330 335 337 338 338 337 337 336 335 335 334 333 331 330
343 342 342 342 341 342 341 341 341 340 340 340 338 338 340 340 339 339 337 337 339 339 338 339 339 339 338 340 336 330 331 330 329 329 329 328 325 329 333 334 334 333 333 336 338 338 336 333 332 335 338 338 336 336 336 335 336 335 334 332 330 329
342 342 342 342 341 341 341 341 342 340 340 340 339 339 340 340 339 339 338 337 339 339 339 339 339 339 339 339 337 334 335 334 332 329 327 327 325 327 334 336 333 333 335 337 338 336 336 335 334 336 337 336 336 336 336 336 336 335 334 331 329 329
341 341 342 343 342 341 342 343 342 341 340 340 340 340 340 341 339 339 339 337 339 340 339 340 340 339 337 338 338 337 335 336 337 332 327 329 328 328 334 338 336 335 337 338 338 337 337 335 335 336 336 335 336 336 336 336 335 335 334 331 329 330
342 342 342 343 342 342 342 342 343 342 341 340 341 341 341 341 340 341 340 339 339 340 340 339 339 339 336 336 337 337 334 335 338 335 332 331 332 331 334 338 337 337 337 337 338 337 336 334 335 335 335 336 335 335 335 335 335 334 334 331 330 330
341 340 342 343 342 342 340 341 342 342 342 342 341 341 341 340 341 341 340 340 340 340 342 339 338 338 337 337 336 336 335 335 336 337 336 334 333 332 333 337 337 336 336 337 337 335 334 334 334 334 334 335 335 336 336 335 334 334 333 332 331 329
341 340 342 343 343 343 341 341 342 342 342 342 342 342 340 340 340 340 339 340 340 340 341 339 337 338 338 338 337 336 337 337 335 335 337 335 335 334 333 336 338 337 337 337 337 335 334 333 333 333 334 334 335 337 336 335 334 334 334 334 332 328
342 340 341 343 343 343 342 342 342 342 342 342 342 341 340 339 339 340 339 339 340 341 339 337 337 338 337 337 337 337 338 338 336 334 336 334 335 335 334 336 338 338 337 337 336 335 333 333 332 332 334 334 335 336 337 335 334 335 335 334 333 328
343 342 343 344 344 344 343 343 343 343 343 343 342 341 340 340 339 340 339 337 339 340 338 337 337 337 337 337 338 338 337 337 337 336 336 335 334 335 334 335 337 338 337 336 336 334 333 332 331 332 333 334 335 335 336 335 335 335 335 334 334 330
344 344 344 344 344 344 344 343 342 343 343 342 341 341 340 340 340 339 339 338 338 339 339 338 338 337 338 339 339 339 338 337 338 337 337 337 336 334 334 335 336 338 338 337 336 335 333 332 331 332 334 335 335 335 336 335 336 336 336 334 334 332
344 344 343 344 343 343 343 342 342 343 342 342 340 340 340 340 339 339 339 339 338 337 338 339 339 338 339 339 338 339 338 337 338 336 336 337 336 334 332 335 336 337 338 337 336 336 335 333 332 333 334 335 336 336 336 336 335 336 336 335 334 333
344 344 344 344 344 342 342 342 342 341 341 340 340 340 340 340 340 340 340 338 337 337 338 338 339 339 338 337 336 337 337 337 337 336 337 338 337 334 332 334 334 334 337 337 337 337 335 334 333 333 334 336 336 337 336 335 336 336 335 335 335 333
346 346 345 345 346 343 341 342 341 341 340 339 340 340 341 340 340 340 339 338 337 337 337 338 339 338 337 336 336 337 338 337 337 337 338 339 338 336 334 333 333 333 336 337 337 337 336 335 335 334 336 337 337 337 336 336 336 336 335 335 334 334
345 346 346 346 346 344 343 341 340 340 340 339 339 340 340 340 340 339 338 338 336 336 337 337 337 338 336 336 336 337 337 337 338 338 337 337 337 337 335 334 333 331 335 337 335 336 335 335 335 335 336 336 337 337 335 335 336 335 335 335 334 333
343 344 346 345 344 343 341 340 340 340 340 339 340 339 339 340 339 339 339 337 336 335 335 336 336 337 336 335 336 336 336 336 336 337 337 336 336 336 335 334 333 330 334 336 334 335 335 335 335 335 336 336 336 336 335 335 335 334 334 334 333 333
342 342 344 343 343 342 341 340 340 340 339 339 338 338 338 339 339 339 339 336 336 335 335 337 337 337 336 335 336 336 336 336 335 335 336 335 336 335 334 334 334 333 335 337 335 334 335 334 335 335 335 337 337 336 335 335 335 334 334 333 333 333
341 342 342 342 342 341 341 340 339 340 339 339 338 338 338 339 338 339 338 337 336 336 336 337 337 337 336 334 334 335 336 336 334 335 335 335 335 335 334 335 335 335 336 338 336 335 335 335 335 336 336 336 337 336 335 335 335 334 334 334 333 333
342 342 342 341 341 340 340 340 340 339 339 339 338 338 338 338 338 338 338 336 337 338 336 336 337 337 336 335 334 335 335 336 335 335 335 334 335 336 335 335 335 335 335 335 336 334 334 335 336 336 335 335 335 335 335 335 335 334 333 334 333 332
342 342 341 341 340 340 340 340 340 339 339 339 339 338 338 338 338 338 338 337 338 339 338 338 337 336 336 336 335 335 335 335 335 335 335 335 335 335 335 335 335 335 334 333 334 333 333 334 334 334 333 333 333 333 334 334 335 335 334 334 332 332
342 341 341 340 340 340 339 339 339 339 338 338 338 338 338 337 338 338 338 338 338 339 338 338 338 337 336 336 335 336 336 335 335 335 334 336 335 333 333 335 334 334 334 333 334 334 334 334 332 333 334 334 334 333 333 333 334 334 334 333 332 331
341 341 341 340 339 339 339 339 339 339 338 338 338 338 337 337 338 338 338 338 338 338 338 337 338 337 336 336 335 335 336 335 335 335 335 336 335 332 333 335 334 334 333 332 335 335 335 336 334 334 334 334 334 334 333 333 333 333 333 332 332 332
341 340 340 339 339 339 338 338 338 338 338 338 338 338 337 337 337 339 339 338 339 338 338 337 337 336 336 337 336 335 335 335 335 335 335 336 335 333 334 335 335 334 331 330 334 335 334 335 335 335 334 334 333 333 333 333 333 333 333 333 332 332
339 340 340 339 339 339 338 338 338 338 338 338 338 338 338 338 338 339 339 339 339 338 337 337 338 337 337 338 337 336 335 335 335 335 335 335 334 334 335 335 335 334 332 331 333 334 335 335 334 334 334 333 333 333 331 332 333 333 332 332 332 333
339 339 339 338 338 338 337 337 338 339 339 339 338 338 339 339 339 340 339 339 339 339 338 338 338 338 337 337 336 337 336 336 336 336 335 335 335 335 335 335 336 335 334 334 334 335 335 335 334 334 332 332 333 334 332 333 333 332 333 333 333 333
339 339 338 338 338 337 337 337 337 338 338 338 339 339 339 339 340 339 339 339 339 339 339 338 337 337 337 336 336 337 337 336 336 337 337 336 335 334 335 336 336 336 335 336 336 335 334 334 333 333 333 332 334 335 335 334 333 334 334 333 332 332
338 338 338 338 338 337 337 337 337 338 338 338 339 339 340 340 339 339 339 339 339 339 339 338 337 337 337 336 336 336 336 337 336 337 337 336 335 334 335 336 336 337 337 337 336 334 334 334 332 333 333 333 334 335 334 332 332 333 333 332 331 331
338 338 338 338 338 337 337 337 337 337 338 338 338 339 339 339 338 339 339 338 338 338 338 337 337 337 337 336 336 336 336 336 336 336 336 335 335 335 335 335 336 336 336 337 336 335 334 333 332 332 331 332 335 335 332 331 331 331 333 333 332 331
338 338 339 338 338 338 337 337 337 336 338 337 337 338 338 338 339 338 336 335 336 337 337 337 337 337 337 336 336 336 336 336 335 334 334 334 335 335 335 335 336 335 334 334 334 334 333 332 331 332 332 333 335 334 333 332 331 330 332 333 333 332
337 338 339 338 338 338 337 337 336 337 337 337 337 337 337 338 339 336 334 335 335 336 337 337 337 337 337 336 336 336 336 335 334 334 333 334 334 335 334 334 335 334 334 334 333 333 332 332 332 333 334 335 336 334 333 333 332 331 331 332 333 332
337 337 337 337 338 338 338 337 337 338 338 337 337 336 336 338 338 336 335 335 336 336 337 337 337 337 336 336 336 335 336 335 335 334 334 333 333 334 334 334 334 333 333 334 334 333 332 332 333 334 335 335 335 333 332 332 333 332 331 331 332 333
337 337 337 337 337 337 338 338 337 337 337 337 337 336 336 336 335 335 335 335 335 336 337 337 337 336 336 336 336 335 336 336 335 334 333 333 333 334 334 334 333 333 333 333 334 333 332 332 333 333 335 335 334 333 332 333 333 332 333 332 332 334
335 335 336 336 336 337 337 337 337 337 336 336 336 336 336 334 333 334 335 335 335 336 337 337 336 336 336 335 335 335 336 336 335 333 333 334 333 333 334 333 333 332 332 332 332 333 332 333 334 334 335 334 332 332 333 333 332 332 334 332 330 332
333 333 333 334 335 335 336 337 336 336 336 335 335 335 336 335 334 334 336 335 335 336 336 336 335 335 336 335 335 335 335 335 335 333 333 334 333 333 334 333 333 334 334 332 332 332 332 333 335 334 333 332 331 332 332 332 333 332 333 332 331 330
331 331 332 332 333 333 334 335 335 334 334 334 334 334 334 335 335 335 335 336 336 335 335 336 336 335 336 335 334 335 335 335 334 333 333 333 333 334 333 333 334 335 335 334 334 334 333 333 334 333 332 331 332 333 332 332 333 332 332 332 332 331
330 330 331 331 332 332 333 333 333 333 333 333 333 333 333 334 334 334 335 335 335 335 335 335 335 335 336 335 334 334 334 335 335 333 333 333 334 333 333 333 334 333 335 335 334 333 333 333 333 333 332 331 331 332 333 334 333 332 331 330 331 331

ECMWFFLT2_925_thetae_108.txt.gz
Theta_e
343 342 341 341 340 337 335 336 337 335 335 336 336 336 337 337 338 339 339 340 339 338 339 339 339 339 339 338 338 338 337 333 331 330 328 329 332 333 333 333 332 331 326 321 318 318 328 334 334 336 336 337 336 334 332 333 334 333 332 331 330 331
344 343 342 342 341 339 334 335 338 336 334 334 336 337 337 336 336 337 337 338 338 338 339 339 338 340 340 339 338 337 337 334 332 332 329 328 330 333 334 333 332 330 326 323 320 320 329 334 335 336 336 337 337 337 335 334 334 333 332 330 330 331
345 342 343 342 341 341 334 334 337 336 335 335 336 335 335 336 337 337 335 335 337 338 339 340 338 338 340 339 338 337 337 335 333 332 330 327 328 332 334 333 333 331 329 327 325 324 329 335 336 337 337 337 337 337 336 335 334 333 331 328 330 331
344 342 343 343 343 342 334 335 338 337 337 336 336 336 335 338 340 338 334 333 337 340 340 339 337 336 339 339 338 336 336 335 333 332 332 329 326 330 334 333 333 331 332 334 335 332 331 333 334 337 337 336 336 336 336 335 334 333 331 329 330 331
343 342 343 343 343 341 335 338 341 339 340 337 336 336 337 340 340 339 336 334 338 340 340 340 339 338 340 339 337 335 334 334 333 332 332 330 326 328 332 333 333 332 333 336 339 337 334 331 332 337 338 336 336 337 336 335 334 332 330 328 330 331
344 344 344 342 342 341 338 340 340 340 340 337 337 338 340 341 340 339 338 337 338 339 339 339 340 339 339 339 338 335 333 332 332 331 331 330 327 329 332 334 333 332 332 336 339 339 336 332 334 337 336 335 336 335 336 335 334 333 330 327 329 330
344 344 343 342 342 341 340 340 339 340 340 338 338 339 340 341 340 339 338 338 337 338 339 339 339 339 339 339 338 337 335 334 334 333 332 330 330 331 332 337 337 332 331 336 339 338 336 335 334 336 335 335 335 335 335 336 335 333 330 327 328 330
344 343 343 342 342 341 339 340 340 340 340 340 340 339 340 340 340 339 338 337 336 337 339 339 339 339 339 338 337 337 337 336 336 336 335 331 330 332 331 337 340 336 334 336 338 337 336 335 334 335 334 335 335 334 335 336 334 333 331 328 328 329
344 343 343 342 342 342 340 340 341 340 340 340 340 339 340 340 340 340 339 339 338 338 339 339 340 340 339 338 336 336 336 335 336 337 336 333 330 332 331 334 338 337 336 337 337 336 334 333 333 333 334 334 334 335 335 335 334 334 332 329 327 327
344 343 343 342 342 342 340 340 340 341 340 340 340 340 340 340 340 340 340 339 339 339 339 339 340 339 339 338 335 335 335 334 334 335 335 334 333 333 331 332 336 337 336 337 336 335 334 333 332 332 333 334 335 336 335 334 335 334 333 332 328 324
343 342 342 343 343 342 341 341 341 341 341 342 341 341 340 339 339 340 340 340 339 340 339 339 339 339 338 338 337 335 335 334 334 334 333 333 333 334 332 330 334 336 337 336 335 334 333 332 331 331 332 334 335 336 335 334 335 335 334 334 330 324
344 343 343 343 342 342 343 343 343 342 342 341 341 341 340 338 338 339 339 339 339 339 340 339 339 339 338 338 338 337 336 335 335 335 333 332 333 334 334 332 334 335 337 336 334 334 333 332 331 330 332 334 335 335 335 335 335 335 335 334 332 328
344 344 344 343 343 343 343 343 343 343 343 342 341 341 340 339 339 339 338 339 339 338 339 339 339 338 337 337 337 337 337 337 337 336 335 334 334 333 334 334 334 334 336 336 335 334 333 332 331 330 331 334 334 334 335 335 336 335 334 334 333 331
345 345 344 343 343 344 343 342 342 343 342 342 340 339 339 338 338 337 337 337 337 337 338 338 338 338 337 337 337 337 338 338 337 336 336 336 335 334 334 334 334 333 335 336 335 335 334 333 331 330 332 333 334 335 335 335 336 335 335 334 333 332
345 345 345 344 344 343 342 342 342 342 342 341 340 338 338 338 337 334 336 337 337 337 337 337 337 337 338 338 338 338 338 338 337 336 337 337 336 336 334 333 333 333 334 336 336 335 334 334 332 331 333 334 335 335 335 335 336 336 335 335 333 333
345 345 345 344 344 343 342 342 342 342 342 341 340 338 337 337 337 334 336 337 337 337 337 337 337 337 338 338 339 338 338 337 337 337 337 336 336 337 335 333 333 334 334 335 336 335 335 334 333 333 335 335 336 335 335 336 336 336 335 334 333 332
345 344 344 343 343 342 342 341 340 341 342 341 340 338 336 335 336 335 336 336 336 336 336 337 338 338 338 338 338 337 337 337 337 337 338 337 337 338 336 334 333 335 334 334 334 333 332 332 332 334 335 335 335 335 335 335 335 335 334 334 333 332
344 344 344 343 342 342 342 341 340 341 341 341 341 340 337 335 335 336 337 336 335 335 335 335 336 337 338 338 338 337 336 336 337 337 338 338 338 338 337 334 333 334 334 333 333 332 331 332 332 333 333 334 335 335 334 335 334 334 334 333 333 333
343 343 344 344 343 343 343 341 341 341 341 341 341 340 338 337 337 337 337 336 335 335 336 335 335 336 337 337 337 337 337 336 336 336 336 337 337 336 336 335 333 334 334 333 332 333 333 333 333 332 333 334 334 334 334 335 334 334 334 333 333 333
343 343 343 343 343 342 342 342 341 341 340 341 340 340 339 338 338 338 337 337 336 336 336 335 335 336 337 337 336 337 337 337 336 336 334 334 335 335 335 334 334 334 334 334 334 334 333 333 333 332 333 334 334 334 335 335 334 334 334 333 333 333
343 343 342 342 342 342 341 341 341 341 341 341 340 340 339 339 338 338 338 338 337 337 336 334 335 336 336 336 336 336 336 336 336 336 335 334 333 334 334 334 334 334 334 335 336 335 333 332 332 332 333 334 333 334 335 336 335 334 334 333 333 333
342 342 342 341 341 341 340 340 340 340 340 339 340 339 339 339 338 338 338 338 337 338 337 336 336 335 335 335 335 335 336 336 336 336 336 335 334 334 335 335 335 335 335 335 336 335 333 332 332 332 334 333 333 333 334 335 335 334 334 334 333 332
342 342 342 341 341 340 341 340 340 340 340 339 339 339 339 339 338 338 338 338 338 338 337 336 336 336 335 335 335 335 336 336 335 335 336 336 335 335 334 335 336 336 335 334 335 333 333 333 332 333 334 333 334 335 335 334 334 334 334 334 333 332
341 341 341 340 339 339 339 339 340 339 338 339 339 340 339 339 339 339 339 338 338 337 337 336 336 336 335 336 335 334 335 335 335 335 335 336 336 335 335 335 335 335 335 335 334 332 333 334 332 333 333 333 334 334 335 334 333 334 334 334 333 331
341 341 341 340 339 339 339 339 339 340 338 339 340 339 339 339 339 339 339 339 338 338 337 337 337 337 337 336 334 334 334 334 335 335 335 336 336 335 336 335 335 334 334 334 334 333 333 334 333 333 333 334 335 334 335 335 334 334 334 334 333 332
340 341 340 340 339 339 339 339 339 339 340 340 341 340 339 339 339 339 340 339 339 338 338 337 337 337 337 336 335 335 334 334 335 335 335 335 336 335 335 335 334 334 334 334 333 332 333 334 333 333 333 334 335 334 334 335 334 334 334 333 332 332
340 340 340 339 339 338 338 338 338 338 340 340 341 340 340 339 339 339 340 340 340 339 339 339 337 337 337 337 336 336 334 333 333 334 335 334 335 335 334 335 334 333 334 333 332 331 332 333 332 333 333 333 334 334 334 334 334 335 334 333 332 332
339 339 339 339 339 339 338 338 338 338 339 339 340 340 340 339 339 338 339 340 339 339 339 340 339 338 338 337 337 337 335 334 334 334 334 334 334 334 334 335 334 333 333 333 331 331 332 332 332 333 333 333 334 334 333 333 333 334 334 333 333 331
339 339 339 339 339 339 339 338 338 338 338 339 339 339 339 339 339 338 339 339 339 339 339 339 339 339 339 338 337 337 336 336 335 334 334 334 335 335 334 334 334 333 333 332 332 331 331 331 332 334 334 334 334 333 334 334 333 333 335 335 333 332
339 339 339 339 339 339 339 338 338 338 338 338 338 338 338 338 338 338 338 339 339 338 338 338 339 338 338 338 337 337 336 337 336 335 335 334 334 335 334 334 334 334 333 333 333 331 330 331 332 333 333 334 334 332 333 335 333 333 334 334 334 332
339 339 339 340 339 339 339 339 338 338 338 338 338 338 337 336 336 337 337 338 338 337 337 337 338 338 338 338 337 337 337 336 336 336 335 335 335 335 334 334 334 334 334 334 333 333 332 331 331 331 331 332 333 332 332 333 334 333 333 333 334 333
338 339 339 339 339 339 339 339 339 338 338 338 338 337 337 335 334 335 336 338 338 338 337 336 337 338 337 336 337 337 337 336 336 335 335 335 335 335 335 334 334 334 334 334 334 333 333 331 330 330 331 331 331 332 331 331 332 332 332 333 333 333
338 338 338 338 338 338 338 338 339 339 338 339 338 337 337 335 334 334 334 335 337 337 338 337 337 336 333 333 335 335 336 336 336 336 335 334 334 334 335 335 335 334 334 333 333 333 333 332 332 331 331 331 331 332 331 331 332 333 331 331 332 332
335 335 335 335 336 337 337 337 338 338 338 337 337 336 336 336 335 336 336 335 335 336 337 337 336 332 329 330 333 335 335 335 336 336 335 334 334 334 334 334 334 335 333 333 333 333 333 333 333 332 332 332 332 333 333 332 333 333 331 331 331 331
333 333 333 333 334 334 335 336 336 336 336 336 335 335 335 336 335 336 336 336 335 336 336 336 335 331 329 330 331 333 334 335 336 336 335 335 334 334 334 334 334 334 334 333 333 333 333 333 332 332 333 333 333 334 334 332 333 333 331 331 331 329
331 331 332 332 333 333 333 334 334 334 335 334 334 334 334 334 335 335 335 335 335 336 336 335 334 333 332 331 329 330 332 334 336 336 336 335 334 334 333 334 334 333 333 333 333 333 333 333 332 332 333 333 333 333 333 332 332 332 331 331 331 330
330 330 331 331 332 332 333 333 333 333 334 333 333 333 333 333 334 334 334 335 335 335 335 334 333 333 334 332 330 330 331 332 334 335 336 335 335 334 334 334 334 333 333 332 332 332 332 333 333 333 334 333 332 332 331 331 332 332 332 331 330 331

ECMWFFLT2_925_thetae_114.txt.gz
Theta_e
335 332 331 334 333 333 334 332 331 331 332 334 337 337 336 337 339 339 340 340 340 340 341 341 341 340 340 340 339 339 336 331 328 330 331 331 331 330 325 316 313 318 327 331 332 333 333 334 335 334 334 333 332 333 332 331 328 326 327 329 330 330
333 331 331 333 333 333 334 332 331 333 334 335 336 337 337 338 339 338 339 339 340 340 340 339 339 339 338 338 338 338 338 333 329 329 331 332 331 331 328 320 314 316 322 330 333 333 334 335 335 335 335 334 332 332 332 330 327 325 327 329 330 331
329 330 330 333 334 333 332 331 332 332 333 335 336 337 337 338 339 338 338 338 339 339 338 338 337 337 336 337 337 336 337 335 330 328 330 332 331 332 330 324 318 315 319 327 333 334 335 335 336 335 335 335 333 332 332 330 327 326 327 328 330 331
331 332 332 334 335 333 330 329 332 332 331 333 334 336 336 337 338 338 337 337 338 338 337 337 337 336 336 337 337 336 336 336 332 328 329 330 331 332 331 328 321 318 323 330 333 335 334 334 336 335 334 335 333 332 332 330 328 328 327 328 329 330
336 336 335 335 334 332 330 327 330 332 331 331 332 335 335 337 337 337 336 336 337 337 337 338 338 338 337 338 338 336 335 335 333 330 328 329 330 331 332 331 325 321 327 333 333 334 334 333 335 335 334 334 334 333 332 330 329 329 327 327 328 329
339 339 338 335 333 332 329 326 328 331 332 331 332 334 335 335 336 335 334 334 336 337 338 339 339 340 339 338 338 336 335 334 334 331 329 328 328 329 331 332 329 324 326 331 333 335 333 332 334 334 333 333 334 333 332 331 330 329 328 327 329 329
341 340 340 336 332 331 328 328 329 330 331 332 333 334 334 334 335 336 334 335 336 337 339 340 340 340 339 338 338 337 336 334 333 333 330 329 328 328 329 331 332 328 324 326 332 334 332 332 334 334 334 334 334 334 332 331 330 329 329 327 327 328
342 341 341 338 332 330 330 331 331 331 332 333 333 334 335 335 336 338 336 334 335 336 339 340 340 340 339 339 338 338 337 334 332 333 331 330 329 329 328 328 331 332 329 327 330 333 334 335 336 335 336 335 334 334 332 331 330 330 329 327 327 327
343 341 341 340 333 330 332 332 332 333 334 334 335 334 335 337 338 339 338 335 333 336 338 339 340 340 340 340 339 338 337 335 332 332 332 330 330 330 330 328 328 330 331 330 331 333 335 336 336 335 335 334 334 334 333 332 331 330 329 326 326 327
342 342 342 341 335 331 333 334 332 334 335 335 336 335 335 337 338 339 339 337 334 334 336 338 338 339 340 340 339 339 338 337 333 331 332 331 331 331 331 330 328 328 330 331 331 333 335 336 336 334 332 332 333 333 333 332 331 330 328 326 325 326
341 342 341 341 338 333 334 336 335 335 336 336 336 336 336 337 338 339 339 339 337 335 335 336 337 337 338 339 340 339 338 338 336 333 332 332 332 332 333 331 330 329 330 331 331 333 335 337 336 334 331 331 333 333 332 330 330 329 328 327 325 325
341 342 341 341 340 337 336 338 338 337 336 338 338 337 337 337 338 339 339 338 338 338 337 336 336 336 336 338 339 339 338 338 337 336 334 334 334 335 336 334 331 330 331 331 332 333 334 335 334 333 330 331 332 332 330 329 329 329 327 327 325 324
342 342 342 341 341 340 339 339 339 339 338 338 339 339 338 338 338 339 339 338 338 339 338 338 337 337 337 337 338 339 339 338 338 337 336 335 335 336 336 336 332 330 331 332 333 333 332 333 333 332 331 330 330 332 331 329 329 328 327 328 325 324
343 342 342 342 341 341 341 340 339 340 339 339 340 339 339 339 339 339 339 339 339 339 339 339 338 338 339 338 338 338 338 338 338 338 337 336 335 335 335 335 333 331 332 333 334 334 333 333 333 333 332 330 330 331 331 330 329 329 328 329 327 324
343 342 343 342 341 341 341 341 340 340 340 340 340 340 340 339 339 339 339 339 339 338 338 338 338 338 338 338 338 338 338 338 338 338 337 336 335 334 334 334 333 332 333 333 334 334 334 334 334 333 332 331 331 331 331 331 331 331 330 330 329 326
343 342 342 342 341 341 341 340 341 341 341 340 340 340 340 339 339 338 338 338 337 337 337 336 337 337 338 337 337 338 338 338 338 338 337 337 336 335 334 334 333 332 333 334 334 334 334 334 333 332 331 331 331 331 331 332 332 332 331 330 330 328
342 342 341 342 341 341 341 341 341 342 341 341 341 340 340 339 338 337 337 337 336 336 336 336 336 336 336 336 336 337 337 338 338 337 337 337 336 336 335 334 334 334 334 334 334 334 334 334 332 332 331 331 332 331 331 332 332 333 332 330 330 329
342 342 342 342 342 341 341 341 341 342 341 341 341 340 340 338 337 337 337 336 336 336 336 336 335 335 335 336 336 336 336 337 337 337 337 337 337 337 336 335 335 335 335 334 334 334 333 333 332 331 331 331 331 331 331 332 332 332 332 331 331 329
342 343 343 342 342 342 342 341 341 341 341 341 340 340 339 338 338 337 337 336 335 335 335 335 334 334 334 335 336 336 337 337 337 337 337 337 337 337 336 335 334 334 335 335 333 333 333 332 332 331 331 331 331 331 331 332 333 332 331 331 331 330
343 343 343 343 343 342 342 342 342 341 340 340 339 339 339 338 338 337 336 335 335 335 335 335 334 333 334 334 336 337 337 337 337 337 337 337 337 337 336 336 336 335 334 334 333 333 332 332 331 330 330 330 331 331 331 332 332 332 332 331 332 331
344 344 343 343 343 342 341 341 342 341 340 339 339 339 339 339 338 337 336 336 336 336 336 335 334 334 334 334 335 336 336 336 336 336 336 336 335 336 336 337 337 336 333 331 331 332 332 332 331 330 330 330 330 330 331 332 331 330 331 332 332 332
344 344 343 343 342 342 341 340 340 340 339 339 339 339 339 339 338 338 337 337 337 337 337 336 335 334 335 335 335 335 335 335 336 336 336 336 335 336 336 337 337 336 334 331 331 332 332 332 331 330 331 331 330 331 331 331 330 329 330 331 332 332
343 343 343 343 342 342 341 340 339 339 339 340 339 340 339 339 338 338 338 338 337 337 337 337 336 335 335 335 334 333 334 335 335 336 336 335 336 336 336 337 336 336 335 333 333 333 332 331 331 331 330 330 331 332 332 330 329 330 330 331 332 332
343 343 343 343 342 342 341 341 340 340 340 340 339 340 340 339 339 338 338 338 338 338 338 337 336 336 335 335 334 333 333 333 334 335 335 335 335 335 335 336 336 336 335 334 334 333 332 332 331 331 330 330 329 331 334 331 329 330 330 331 332 332
342 342 342 341 341 341 341 340 340 340 340 340 339 339 339 339 339 338 338 338 338 338 337 337 336 334 334 334 334 333 333 333 334 335 335 335 334 334 334 335 335 336 335 335 334 334 333 333 332 332 331 331 331 332 334 332 329 330 329 330 332 332
342 341 340 339 339 339 339 338 338 338 339 338 338 338 337 338 338 338 338 337 338 337 337 336 335 334 334 334 333 332 332 333 334 335 335 335 335 334 334 335 335 336 335 335 334 333 334 333 332 332 330 331 332 333 333 330 330 330 329 329 331 331
341 340 339 338 338 338 337 336 337 337 337 337 337 337 337 338 338 338 338 338 338 337 336 336 335 335 335 333 332 332 332 332 333 333 333 334 335 335 335 335 335 335 335 335 335 333 333 331 330 330 329 330 330 331 331 330 330 331 330 329 329 329
341 340 339 338 336 336 335 335 336 337 337 337 337 337 337 338 338 338 339 339 338 335 334 334 334 335 336 335 334 334 334 334 333 332 333 334 334 335 335 334 334 334 334 335 335 334 334 332 330 329 328 329 329 330 330 330 330 330 330 331 329 329
340 339 338 337 336 335 334 335 336 337 337 337 337 337 337 338 337 338 338 338 337 334 332 333 333 334 335 336 336 336 335 335 334 334 334 334 333 333 334 334 334 333 333 334 335 335 334 332 331 330 329 329 329 329 329 329 329 329 330 332 332 331
338 338 338 338 337 336 335 335 336 337 336 335 336 336 338 338 337 337 336 336 336 334 333 333 333 333 334 335 335 334 334 334 334 334 334 334 333 333 333 333 333 333 333 334 334 334 334 333 331 330 330 329 329 329 329 328 328 329 330 331 332 332
338 338 339 339 339 338 337 336 336 337 337 336 336 338 338 338 336 336 335 335 335 334 334 334 334 334 334 334 334 334 333 332 332 333 333 333 333 332 332 333 333 333 332 333 334 334 334 333 331 330 330 330 329 329 329 328 328 329 330 330 331 332
336 337 337 338 338 338 338 338 337 338 338 338 338 337 337 336 335 335 334 334 334 334 334 334 334 334 334 334 334 334 334 333 332 332 332 332 332 332 332 333 332 332 331 331 333 333 333 332 330 330 330 330 330 330 330 330 329 330 330 330 330 330
333 333 334 334 335 335 335 335 336 336 336 336 335 335 334 334 333 333 333 334 333 333 334 334 334 334 334 334 333 334 333 333 333 332 332 332 331 331 331 331 331 331 329 329 330 332 333 332 331 330 330 330 330 330 330 330 330 330 330 330 329 329
330 331 332 332 332 332 333 333 333 334 333 333 334 333 333 333 333 333 333 334 334 334 334 334 334 334 333 332 331 331 331 332 332 332 331 331 330 330 330 331 330 330 329 328 328 330 331 332 331 330 330 330 330 330 330 330 330 330 330 330 329 329
328 329 330 331 331 331 331 332 332 332 332 332 332 332 332 332 332 332 332 332 333 333 334 333 333 332 330 330 329 328 329 330 330 331 330 330 330 329 329 330 330 329 329 328 328 328 330 331 331 330 330 330 330 330 330 330 330 331 331 330 330 329
327 327 328 329 330 329 329 330 330 330 330 330 330 330 331 330 330 330 330 331 331 331 332 332 331 330 329 329 328 328 329 329 329 329 329 329 329 328 328 329 330 329 329 328 329 330 330 330 331 331 330 330 329 329 330 331 330 331 331 330 330 330
326 326 327 327 328 328 328 329 328 329 329 329 329 329 329 329 328 329 329 329 329 330 330 330 330 330 329 329 328 328 328 329 329 329 328 328 328 328 328 328 329 329 328 328 330 332 331 330 331 331 331 330 329 329 329 331 331 331 330 329 330 330